<?xml version="1.0" encoding="UTF-8" standalone="no" ?>
<gpx xmlns="http://www.topografix.com/GPX/1/1" xmlns:xsi="http://www.w3.org/2001/XMLSchema-instance" xsi:schemaLocation="http://www.topografix.com/GPX/1/1 http://www.topografix.com/GPX/1/1/gpx.xsd" version="1.1" creator="VisuGPX - https://www.visugpx.com">
  <metadata>
    <name>Rando Rambouillet 5 Septembre 2010</name>
    <desc><![CDATA[Rando Rambouillet 5 Septembre 2010]]></desc>
  </metadata>
  <trk>
    <name><![CDATA[ACTIVE LOG085054]]></name>
    <trkseg>
      <trkpt lat="48.64673" lon="1.85649">
        <ele>172.469</ele>
        <time>2010-09-05T06:50:54Z</time>
      </trkpt>
      <trkpt lat="48.64673" lon="1.85647">
        <ele>171.684</ele>
        <time>2010-09-05T06:51:35Z</time>
      </trkpt>
      <trkpt lat="48.64673" lon="1.85647">
        <ele>171.578</ele>
        <time>2010-09-05T06:51:50Z</time>
      </trkpt>
      <trkpt lat="48.64677" lon="1.85662">
        <ele>170.156</ele>
        <time>2010-09-05T06:51:59Z</time>
      </trkpt>
      <trkpt lat="48.64676" lon="1.85709">
        <ele>169.581</ele>
        <time>2010-09-05T06:52:16Z</time>
      </trkpt>
      <trkpt lat="48.64677" lon="1.85765">
        <ele>170.256</ele>
        <time>2010-09-05T06:52:33Z</time>
      </trkpt>
      <trkpt lat="48.64691" lon="1.85772">
        <ele>169.553</ele>
        <time>2010-09-05T06:52:38Z</time>
      </trkpt>
      <trkpt lat="48.64757" lon="1.8578">
        <ele>167.847</ele>
        <time>2010-09-05T06:52:56Z</time>
      </trkpt>
      <trkpt lat="48.64794" lon="1.8579">
        <ele>168.906</ele>
        <time>2010-09-05T06:53:08Z</time>
      </trkpt>
      <trkpt lat="48.64806" lon="1.85806">
        <ele>168.182</ele>
        <time>2010-09-05T06:53:12Z</time>
      </trkpt>
      <trkpt lat="48.64857" lon="1.85813">
        <ele>168.392</ele>
        <time>2010-09-05T06:53:26Z</time>
      </trkpt>
      <trkpt lat="48.649" lon="1.85821">
        <ele>168.95</ele>
        <time>2010-09-05T06:53:40Z</time>
      </trkpt>
      <trkpt lat="48.64952" lon="1.8583">
        <ele>170.034</ele>
        <time>2010-09-05T06:53:55Z</time>
      </trkpt>
      <trkpt lat="48.64987" lon="1.85831">
        <ele>171.048</ele>
        <time>2010-09-05T06:54:05Z</time>
      </trkpt>
      <trkpt lat="48.64995" lon="1.85858">
        <ele>170.808</ele>
        <time>2010-09-05T06:54:10Z</time>
      </trkpt>
      <trkpt lat="48.65008" lon="1.85889">
        <ele>170.917</ele>
        <time>2010-09-05T06:54:16Z</time>
      </trkpt>
      <trkpt lat="48.65032" lon="1.85905">
        <ele>170.871</ele>
        <time>2010-09-05T06:54:22Z</time>
      </trkpt>
      <trkpt lat="48.65119" lon="1.85896">
        <ele>171.036</ele>
        <time>2010-09-05T06:54:40Z</time>
      </trkpt>
      <trkpt lat="48.65132" lon="1.85895">
        <ele>171.296</ele>
        <time>2010-09-05T06:54:43Z</time>
      </trkpt>
      <trkpt lat="48.65169" lon="1.8588">
        <ele>171.758</ele>
        <time>2010-09-05T06:54:52Z</time>
      </trkpt>
      <trkpt lat="48.65236" lon="1.85886">
        <ele>173.72</ele>
        <time>2010-09-05T06:55:07Z</time>
      </trkpt>
      <trkpt lat="48.65271" lon="1.85911">
        <ele>174.728</ele>
        <time>2010-09-05T06:55:16Z</time>
      </trkpt>
      <trkpt lat="48.65298" lon="1.8592">
        <ele>174.914</ele>
        <time>2010-09-05T06:55:22Z</time>
      </trkpt>
      <trkpt lat="48.65326" lon="1.85918">
        <ele>176.25</ele>
        <time>2010-09-05T06:55:28Z</time>
      </trkpt>
      <trkpt lat="48.65348" lon="1.85922">
        <ele>175.786</ele>
        <time>2010-09-05T06:55:35Z</time>
      </trkpt>
      <trkpt lat="48.65413" lon="1.85922">
        <ele>175.722</ele>
        <time>2010-09-05T06:55:51Z</time>
      </trkpt>
      <trkpt lat="48.65453" lon="1.85924">
        <ele>174.985</ele>
        <time>2010-09-05T06:56:02Z</time>
      </trkpt>
      <trkpt lat="48.65468" lon="1.85942">
        <ele>174.74</ele>
        <time>2010-09-05T06:56:10Z</time>
      </trkpt>
      <trkpt lat="48.65491" lon="1.85974">
        <ele>176.412</ele>
        <time>2010-09-05T06:56:19Z</time>
      </trkpt>
      <trkpt lat="48.65498" lon="1.85986">
        <ele>174.8</ele>
        <time>2010-09-05T06:56:22Z</time>
      </trkpt>
      <trkpt lat="48.65518" lon="1.85988">
        <ele>177.669</ele>
        <time>2010-09-05T06:56:28Z</time>
      </trkpt>
      <trkpt lat="48.65517" lon="1.85968">
        <ele>178.341</ele>
        <time>2010-09-05T06:56:34Z</time>
      </trkpt>
      <trkpt lat="48.65513" lon="1.85966">
        <ele>178.744</ele>
        <time>2010-09-05T06:56:36Z</time>
      </trkpt>
      <trkpt lat="48.65505" lon="1.85935">
        <ele>178.978</ele>
        <time>2010-09-05T06:56:43Z</time>
      </trkpt>
      <trkpt lat="48.65507" lon="1.85914">
        <ele>179.211</ele>
        <time>2010-09-05T06:56:48Z</time>
      </trkpt>
      <trkpt lat="48.6552" lon="1.85902">
        <ele>178.191</ele>
        <time>2010-09-05T06:56:53Z</time>
      </trkpt>
      <trkpt lat="48.65538" lon="1.85868">
        <ele>179.087</ele>
        <time>2010-09-05T06:57:03Z</time>
      </trkpt>
      <trkpt lat="48.65541" lon="1.85858">
        <ele>178.581</ele>
        <time>2010-09-05T06:57:06Z</time>
      </trkpt>
      <trkpt lat="48.6555" lon="1.8584">
        <ele>179.113</ele>
        <time>2010-09-05T06:57:11Z</time>
      </trkpt>
      <trkpt lat="48.65564" lon="1.85831">
        <ele>180.376</ele>
        <time>2010-09-05T06:57:15Z</time>
      </trkpt>
      <trkpt lat="48.65577" lon="1.85824">
        <ele>181.051</ele>
        <time>2010-09-05T06:57:18Z</time>
      </trkpt>
      <trkpt lat="48.65598" lon="1.85822">
        <ele>178.559</ele>
        <time>2010-09-05T06:57:22Z</time>
      </trkpt>
      <trkpt lat="48.65644" lon="1.85842">
        <ele>177.873</ele>
        <time>2010-09-05T06:57:33Z</time>
      </trkpt>
      <trkpt lat="48.65671" lon="1.85828">
        <ele>177.766</ele>
        <time>2010-09-05T06:57:40Z</time>
      </trkpt>
      <trkpt lat="48.65689" lon="1.85807">
        <ele>177.671</ele>
        <time>2010-09-05T06:57:45Z</time>
      </trkpt>
      <trkpt lat="48.65707" lon="1.858">
        <ele>177.897</ele>
        <time>2010-09-05T06:57:49Z</time>
      </trkpt>
      <trkpt lat="48.65715" lon="1.85795">
        <ele>178.177</ele>
        <time>2010-09-05T06:57:51Z</time>
      </trkpt>
      <trkpt lat="48.65743" lon="1.85783">
        <ele>177.75</ele>
        <time>2010-09-05T06:57:58Z</time>
      </trkpt>
      <trkpt lat="48.65758" lon="1.85792">
        <ele>177.758</ele>
        <time>2010-09-05T06:58:02Z</time>
      </trkpt>
      <trkpt lat="48.65772" lon="1.85817">
        <ele>175.743</ele>
        <time>2010-09-05T06:58:07Z</time>
      </trkpt>
      <trkpt lat="48.6579" lon="1.85837">
        <ele>175.425</ele>
        <time>2010-09-05T06:58:12Z</time>
      </trkpt>
      <trkpt lat="48.65804" lon="1.85865">
        <ele>175.043</ele>
        <time>2010-09-05T06:58:17Z</time>
      </trkpt>
      <trkpt lat="48.65858" lon="1.8587">
        <ele>175.497</ele>
        <time>2010-09-05T06:58:29Z</time>
      </trkpt>
      <trkpt lat="48.65892" lon="1.8587">
        <ele>176.059</ele>
        <time>2010-09-05T06:58:37Z</time>
      </trkpt>
      <trkpt lat="48.65916" lon="1.85842">
        <ele>176.243</ele>
        <time>2010-09-05T06:58:47Z</time>
      </trkpt>
      <trkpt lat="48.65987" lon="1.85798">
        <ele>177.079</ele>
        <time>2010-09-05T06:59:02Z</time>
      </trkpt>
      <trkpt lat="48.66021" lon="1.85776">
        <ele>177.519</ele>
        <time>2010-09-05T06:59:09Z</time>
      </trkpt>
      <trkpt lat="48.66035" lon="1.85787">
        <ele>175.6</ele>
        <time>2010-09-05T06:59:13Z</time>
      </trkpt>
      <trkpt lat="48.6606" lon="1.85871">
        <ele>175.436</ele>
        <time>2010-09-05T06:59:25Z</time>
      </trkpt>
      <trkpt lat="48.66076" lon="1.85894">
        <ele>175.288</ele>
        <time>2010-09-05T06:59:31Z</time>
      </trkpt>
      <trkpt lat="48.66161" lon="1.85845">
        <ele>175.989</ele>
        <time>2010-09-05T06:59:49Z</time>
      </trkpt>
      <trkpt lat="48.66174" lon="1.85834">
        <ele>176.123</ele>
        <time>2010-09-05T06:59:52Z</time>
      </trkpt>
      <trkpt lat="48.66192" lon="1.85833">
        <ele>176.47</ele>
        <time>2010-09-05T06:59:57Z</time>
      </trkpt>
      <trkpt lat="48.66199" lon="1.85834">
        <ele>176.707</ele>
        <time>2010-09-05T06:59:59Z</time>
      </trkpt>
      <trkpt lat="48.66209" lon="1.8583">
        <ele>176.619</ele>
        <time>2010-09-05T07:00:03Z</time>
      </trkpt>
      <trkpt lat="48.66257" lon="1.85819">
        <ele>175.68</ele>
        <time>2010-09-05T07:00:15Z</time>
      </trkpt>
      <trkpt lat="48.66315" lon="1.85816">
        <ele>177.668</ele>
        <time>2010-09-05T07:00:27Z</time>
      </trkpt>
      <trkpt lat="48.66336" lon="1.85813">
        <ele>177.613</ele>
        <time>2010-09-05T07:00:31Z</time>
      </trkpt>
      <trkpt lat="48.66354" lon="1.85801">
        <ele>177.376</ele>
        <time>2010-09-05T07:00:35Z</time>
      </trkpt>
      <trkpt lat="48.66377" lon="1.85774">
        <ele>181.72</ele>
        <time>2010-09-05T07:00:42Z</time>
      </trkpt>
      <trkpt lat="48.66412" lon="1.8576">
        <ele>185.492</ele>
        <time>2010-09-05T07:00:52Z</time>
      </trkpt>
      <trkpt lat="48.66432" lon="1.85717">
        <ele>189.876</ele>
        <time>2010-09-05T07:01:01Z</time>
      </trkpt>
      <trkpt lat="48.66467" lon="1.85671">
        <ele>192.585</ele>
        <time>2010-09-05T07:01:11Z</time>
      </trkpt>
      <trkpt lat="48.66476" lon="1.85665">
        <ele>189.93</ele>
        <time>2010-09-05T07:01:13Z</time>
      </trkpt>
      <trkpt lat="48.66502" lon="1.85669">
        <ele>188.244</ele>
        <time>2010-09-05T07:01:18Z</time>
      </trkpt>
      <trkpt lat="48.66522" lon="1.85676">
        <ele>186.11</ele>
        <time>2010-09-05T07:01:22Z</time>
      </trkpt>
      <trkpt lat="48.66536" lon="1.85683">
        <ele>185.621</ele>
        <time>2010-09-05T07:01:25Z</time>
      </trkpt>
      <trkpt lat="48.66555" lon="1.85696">
        <ele>185</ele>
        <time>2010-09-05T07:01:29Z</time>
      </trkpt>
      <trkpt lat="48.66606" lon="1.85718">
        <ele>184.937</ele>
        <time>2010-09-05T07:01:39Z</time>
      </trkpt>
      <trkpt lat="48.66663" lon="1.85741">
        <ele>186.231</ele>
        <time>2010-09-05T07:01:50Z</time>
      </trkpt>
      <trkpt lat="48.66706" lon="1.85756">
        <ele>184.353</ele>
        <time>2010-09-05T07:01:58Z</time>
      </trkpt>
      <trkpt lat="48.66712" lon="1.85714">
        <ele>181.195</ele>
        <time>2010-09-05T07:02:07Z</time>
      </trkpt>
      <trkpt lat="48.66714" lon="1.85676">
        <ele>178.56</ele>
        <time>2010-09-05T07:02:12Z</time>
      </trkpt>
      <trkpt lat="48.66721" lon="1.85553">
        <ele>175.664</ele>
        <time>2010-09-05T07:02:25Z</time>
      </trkpt>
      <trkpt lat="48.66722" lon="1.85543">
        <ele>176.238</ele>
        <time>2010-09-05T07:02:26Z</time>
      </trkpt>
      <trkpt lat="48.66724" lon="1.85513">
        <ele>175.395</ele>
        <time>2010-09-05T07:02:29Z</time>
      </trkpt>
      <trkpt lat="48.66724" lon="1.85484">
        <ele>174.809</ele>
        <time>2010-09-05T07:02:32Z</time>
      </trkpt>
      <trkpt lat="48.66734" lon="1.85329">
        <ele>171.994</ele>
        <time>2010-09-05T07:02:47Z</time>
      </trkpt>
      <trkpt lat="48.66741" lon="1.85167">
        <ele>169.832</ele>
        <time>2010-09-05T07:03:04Z</time>
      </trkpt>
      <trkpt lat="48.66751" lon="1.84991">
        <ele>168.069</ele>
        <time>2010-09-05T07:03:22Z</time>
      </trkpt>
      <trkpt lat="48.66759" lon="1.84844">
        <ele>163.636</ele>
        <time>2010-09-05T07:03:37Z</time>
      </trkpt>
      <trkpt lat="48.66761" lon="1.84808">
        <ele>162.348</ele>
        <time>2010-09-05T07:03:40Z</time>
      </trkpt>
      <trkpt lat="48.66765" lon="1.84768">
        <ele>161.612</ele>
        <time>2010-09-05T07:03:43Z</time>
      </trkpt>
      <trkpt lat="48.66769" lon="1.84631">
        <ele>163.671</ele>
        <time>2010-09-05T07:03:55Z</time>
      </trkpt>
      <trkpt lat="48.66778" lon="1.84489">
        <ele>166.844</ele>
        <time>2010-09-05T07:04:09Z</time>
      </trkpt>
      <trkpt lat="48.66782" lon="1.84403">
        <ele>166.057</ele>
        <time>2010-09-05T07:04:18Z</time>
      </trkpt>
      <trkpt lat="48.66787" lon="1.84368">
        <ele>166.485</ele>
        <time>2010-09-05T07:04:22Z</time>
      </trkpt>
      <trkpt lat="48.66788" lon="1.84342">
        <ele>166.441</ele>
        <time>2010-09-05T07:04:25Z</time>
      </trkpt>
      <trkpt lat="48.66787" lon="1.84317">
        <ele>165.926</ele>
        <time>2010-09-05T07:04:28Z</time>
      </trkpt>
      <trkpt lat="48.66801" lon="1.84301">
        <ele>166.211</ele>
        <time>2010-09-05T07:04:33Z</time>
      </trkpt>
      <trkpt lat="48.6682" lon="1.84311">
        <ele>166.495</ele>
        <time>2010-09-05T07:04:37Z</time>
      </trkpt>
      <trkpt lat="48.66917" lon="1.84361">
        <ele>168.55</ele>
        <time>2010-09-05T07:04:53Z</time>
      </trkpt>
      <trkpt lat="48.66974" lon="1.84388">
        <ele>171.992</ele>
        <time>2010-09-05T07:05:02Z</time>
      </trkpt>
      <trkpt lat="48.67029" lon="1.84417">
        <ele>175.405</ele>
        <time>2010-09-05T07:05:11Z</time>
      </trkpt>
      <trkpt lat="48.67096" lon="1.84447">
        <ele>176.3</ele>
        <time>2010-09-05T07:05:22Z</time>
      </trkpt>
      <trkpt lat="48.67174" lon="1.84486">
        <ele>176.383</ele>
        <time>2010-09-05T07:05:34Z</time>
      </trkpt>
      <trkpt lat="48.67212" lon="1.84505">
        <ele>176.597</ele>
        <time>2010-09-05T07:05:40Z</time>
      </trkpt>
      <trkpt lat="48.67254" lon="1.84526">
        <ele>177.714</ele>
        <time>2010-09-05T07:05:47Z</time>
      </trkpt>
      <trkpt lat="48.67331" lon="1.84565">
        <ele>175.717</ele>
        <time>2010-09-05T07:05:58Z</time>
      </trkpt>
      <trkpt lat="48.67412" lon="1.84609">
        <ele>173.73</ele>
        <time>2010-09-05T07:06:11Z</time>
      </trkpt>
      <trkpt lat="48.67428" lon="1.84618">
        <ele>175.19</ele>
        <time>2010-09-05T07:06:14Z</time>
      </trkpt>
      <trkpt lat="48.67481" lon="1.84642">
        <ele>177.013</ele>
        <time>2010-09-05T07:06:24Z</time>
      </trkpt>
      <trkpt lat="48.6757" lon="1.84686">
        <ele>175.6</ele>
        <time>2010-09-05T07:06:41Z</time>
      </trkpt>
      <trkpt lat="48.67599" lon="1.847">
        <ele>176.834</ele>
        <time>2010-09-05T07:06:47Z</time>
      </trkpt>
      <trkpt lat="48.67676" lon="1.8474">
        <ele>175.778</ele>
        <time>2010-09-05T07:07:01Z</time>
      </trkpt>
      <trkpt lat="48.6776" lon="1.84781">
        <ele>175.52</ele>
        <time>2010-09-05T07:07:17Z</time>
      </trkpt>
      <trkpt lat="48.67786" lon="1.84796">
        <ele>175.443</ele>
        <time>2010-09-05T07:07:22Z</time>
      </trkpt>
      <trkpt lat="48.67839" lon="1.8482">
        <ele>177.547</ele>
        <time>2010-09-05T07:07:33Z</time>
      </trkpt>
      <trkpt lat="48.67851" lon="1.84818">
        <ele>177.567</ele>
        <time>2010-09-05T07:07:36Z</time>
      </trkpt>
      <trkpt lat="48.67872" lon="1.84791">
        <ele>176.239</ele>
        <time>2010-09-05T07:07:42Z</time>
      </trkpt>
      <trkpt lat="48.67906" lon="1.84735">
        <ele>176.113</ele>
        <time>2010-09-05T07:07:52Z</time>
      </trkpt>
      <trkpt lat="48.67912" lon="1.84725">
        <ele>176.138</ele>
        <time>2010-09-05T07:07:54Z</time>
      </trkpt>
      <trkpt lat="48.67945" lon="1.8466">
        <ele>176.075</ele>
        <time>2010-09-05T07:08:05Z</time>
      </trkpt>
      <trkpt lat="48.6798" lon="1.84604">
        <ele>175.553</ele>
        <time>2010-09-05T07:08:14Z</time>
      </trkpt>
      <trkpt lat="48.68009" lon="1.84557">
        <ele>174.35</ele>
        <time>2010-09-05T07:08:21Z</time>
      </trkpt>
      <trkpt lat="48.68047" lon="1.84496">
        <ele>173.69</ele>
        <time>2010-09-05T07:08:30Z</time>
      </trkpt>
      <trkpt lat="48.68073" lon="1.84453">
        <ele>172.985</ele>
        <time>2010-09-05T07:08:36Z</time>
      </trkpt>
      <trkpt lat="48.68089" lon="1.8442">
        <ele>172.369</ele>
        <time>2010-09-05T07:08:41Z</time>
      </trkpt>
      <trkpt lat="48.68101" lon="1.84405">
        <ele>172.243</ele>
        <time>2010-09-05T07:08:44Z</time>
      </trkpt>
      <trkpt lat="48.68113" lon="1.84389">
        <ele>171.119</ele>
        <time>2010-09-05T07:08:47Z</time>
      </trkpt>
      <trkpt lat="48.68121" lon="1.8437">
        <ele>170.059</ele>
        <time>2010-09-05T07:08:50Z</time>
      </trkpt>
      <trkpt lat="48.68136" lon="1.84348">
        <ele>170.524</ele>
        <time>2010-09-05T07:08:54Z</time>
      </trkpt>
      <trkpt lat="48.68158" lon="1.84311">
        <ele>173.933</ele>
        <time>2010-09-05T07:09:01Z</time>
      </trkpt>
      <trkpt lat="48.68187" lon="1.84255">
        <ele>172.054</ele>
        <time>2010-09-05T07:09:13Z</time>
      </trkpt>
      <trkpt lat="48.68185" lon="1.84237">
        <ele>171.76</ele>
        <time>2010-09-05T07:09:17Z</time>
      </trkpt>
      <trkpt lat="48.68175" lon="1.84229">
        <ele>171.857</ele>
        <time>2010-09-05T07:09:21Z</time>
      </trkpt>
      <trkpt lat="48.68086" lon="1.84236">
        <ele>176.21</ele>
        <time>2010-09-05T07:09:43Z</time>
      </trkpt>
      <trkpt lat="48.68074" lon="1.84235">
        <ele>176.853</ele>
        <time>2010-09-05T07:09:46Z</time>
      </trkpt>
      <trkpt lat="48.68049" lon="1.84198">
        <ele>177.626</ele>
        <time>2010-09-05T07:09:54Z</time>
      </trkpt>
      <trkpt lat="48.68043" lon="1.8416">
        <ele>178.535</ele>
        <time>2010-09-05T07:09:59Z</time>
      </trkpt>
      <trkpt lat="48.68037" lon="1.84113">
        <ele>178.162</ele>
        <time>2010-09-05T07:10:05Z</time>
      </trkpt>
      <trkpt lat="48.68032" lon="1.8408">
        <ele>177.173</ele>
        <time>2010-09-05T07:10:09Z</time>
      </trkpt>
      <trkpt lat="48.67996" lon="1.84044">
        <ele>176.968</ele>
        <time>2010-09-05T07:10:17Z</time>
      </trkpt>
      <trkpt lat="48.67976" lon="1.84049">
        <ele>175.414</ele>
        <time>2010-09-05T07:10:20Z</time>
      </trkpt>
      <trkpt lat="48.67899" lon="1.84082">
        <ele>172.545</ele>
        <time>2010-09-05T07:10:32Z</time>
      </trkpt>
      <trkpt lat="48.67886" lon="1.84085">
        <ele>171.931</ele>
        <time>2010-09-05T07:10:39Z</time>
      </trkpt>
      <trkpt lat="48.6789" lon="1.84072">
        <ele>171.626</ele>
        <time>2010-09-05T07:10:47Z</time>
      </trkpt>
      <trkpt lat="48.67891" lon="1.84067">
        <ele>171.432</ele>
        <time>2010-09-05T07:10:48Z</time>
      </trkpt>
      <trkpt lat="48.67895" lon="1.84026">
        <ele>171.801</ele>
        <time>2010-09-05T07:10:55Z</time>
      </trkpt>
      <trkpt lat="48.67897" lon="1.84007">
        <ele>171.884</ele>
        <time>2010-09-05T07:10:58Z</time>
      </trkpt>
      <trkpt lat="48.67892" lon="1.83972">
        <ele>172.223</ele>
        <time>2010-09-05T07:11:04Z</time>
      </trkpt>
      <trkpt lat="48.67864" lon="1.83933">
        <ele>173.068</ele>
        <time>2010-09-05T07:11:13Z</time>
      </trkpt>
      <trkpt lat="48.67798" lon="1.83843">
        <ele>172.275</ele>
        <time>2010-09-05T07:11:30Z</time>
      </trkpt>
      <trkpt lat="48.67789" lon="1.83813">
        <ele>170.454</ele>
        <time>2010-09-05T07:11:34Z</time>
      </trkpt>
      <trkpt lat="48.67775" lon="1.83673">
        <ele>163.145</ele>
        <time>2010-09-05T07:11:51Z</time>
      </trkpt>
      <trkpt lat="48.67771" lon="1.83638">
        <ele>162.202</ele>
        <time>2010-09-05T07:11:55Z</time>
      </trkpt>
      <trkpt lat="48.67771" lon="1.83622">
        <ele>162.32</ele>
        <time>2010-09-05T07:11:57Z</time>
      </trkpt>
      <trkpt lat="48.67768" lon="1.83574">
        <ele>161.522</ele>
        <time>2010-09-05T07:12:03Z</time>
      </trkpt>
      <trkpt lat="48.67758" lon="1.83503">
        <ele>159.665</ele>
        <time>2010-09-05T07:12:11Z</time>
      </trkpt>
      <trkpt lat="48.67755" lon="1.8345">
        <ele>158.729</ele>
        <time>2010-09-05T07:12:17Z</time>
      </trkpt>
      <trkpt lat="48.67748" lon="1.834">
        <ele>158.13</ele>
        <time>2010-09-05T07:12:22Z</time>
      </trkpt>
      <trkpt lat="48.67733" lon="1.83298">
        <ele>161.863</ele>
        <time>2010-09-05T07:12:36Z</time>
      </trkpt>
      <trkpt lat="48.6773" lon="1.83282">
        <ele>164.449</ele>
        <time>2010-09-05T07:12:47Z</time>
      </trkpt>
      <trkpt lat="48.67737" lon="1.83279">
        <ele>165.176</ele>
        <time>2010-09-05T07:12:51Z</time>
      </trkpt>
      <trkpt lat="48.67731" lon="1.83241">
        <ele>166.105</ele>
        <time>2010-09-05T07:13:01Z</time>
      </trkpt>
      <trkpt lat="48.6773" lon="1.83239">
        <ele>166.076</ele>
        <time>2010-09-05T07:13:02Z</time>
      </trkpt>
      <trkpt lat="48.67729" lon="1.83239">
        <ele>165.956</ele>
        <time>2010-09-05T07:13:06Z</time>
      </trkpt>
      <trkpt lat="48.67727" lon="1.83219">
        <ele>167.263</ele>
        <time>2010-09-05T07:13:11Z</time>
      </trkpt>
      <trkpt lat="48.67711" lon="1.83111">
        <ele>168.109</ele>
        <time>2010-09-05T07:13:26Z</time>
      </trkpt>
      <trkpt lat="48.67703" lon="1.83037">
        <ele>167.444</ele>
        <time>2010-09-05T07:13:34Z</time>
      </trkpt>
      <trkpt lat="48.67684" lon="1.82882">
        <ele>163.393</ele>
        <time>2010-09-05T07:13:50Z</time>
      </trkpt>
      <trkpt lat="48.67683" lon="1.82876">
        <ele>163.127</ele>
        <time>2010-09-05T07:13:51Z</time>
      </trkpt>
      <trkpt lat="48.67667" lon="1.82858">
        <ele>162.264</ele>
        <time>2010-09-05T07:13:57Z</time>
      </trkpt>
      <trkpt lat="48.67636" lon="1.82815">
        <ele>162.197</ele>
        <time>2010-09-05T07:14:08Z</time>
      </trkpt>
      <trkpt lat="48.67615" lon="1.82794">
        <ele>161.398</ele>
        <time>2010-09-05T07:14:12Z</time>
      </trkpt>
      <trkpt lat="48.67587" lon="1.82795">
        <ele>161.3</ele>
        <time>2010-09-05T07:14:17Z</time>
      </trkpt>
      <trkpt lat="48.67566" lon="1.82797">
        <ele>161.12</ele>
        <time>2010-09-05T07:14:20Z</time>
      </trkpt>
      <trkpt lat="48.67542" lon="1.82795">
        <ele>159.437</ele>
        <time>2010-09-05T07:14:24Z</time>
      </trkpt>
      <trkpt lat="48.6751" lon="1.82781">
        <ele>159.317</ele>
        <time>2010-09-05T07:14:31Z</time>
      </trkpt>
      <trkpt lat="48.67481" lon="1.82764">
        <ele>158.488</ele>
        <time>2010-09-05T07:14:37Z</time>
      </trkpt>
      <trkpt lat="48.6746" lon="1.82751">
        <ele>158.779</ele>
        <time>2010-09-05T07:14:42Z</time>
      </trkpt>
      <trkpt lat="48.6744" lon="1.82732">
        <ele>158.196</ele>
        <time>2010-09-05T07:14:48Z</time>
      </trkpt>
      <trkpt lat="48.67444" lon="1.82716">
        <ele>157.784</ele>
        <time>2010-09-05T07:14:53Z</time>
      </trkpt>
      <trkpt lat="48.67468" lon="1.82686">
        <ele>159.05</ele>
        <time>2010-09-05T07:15:03Z</time>
      </trkpt>
      <trkpt lat="48.67487" lon="1.82682">
        <ele>162.47</ele>
        <time>2010-09-05T07:15:14Z</time>
      </trkpt>
      <trkpt lat="48.67489" lon="1.82681">
        <ele>162.196</ele>
        <time>2010-09-05T07:15:33Z</time>
      </trkpt>
      <trkpt lat="48.67496" lon="1.82678">
        <ele>162.372</ele>
        <time>2010-09-05T07:15:44Z</time>
      </trkpt>
      <trkpt lat="48.67502" lon="1.82673">
        <ele>165.422</ele>
        <time>2010-09-05T07:15:57Z</time>
      </trkpt>
      <trkpt lat="48.67505" lon="1.82673">
        <ele>167.171</ele>
        <time>2010-09-05T07:16:00Z</time>
      </trkpt>
      <trkpt lat="48.67509" lon="1.82668">
        <ele>167.966</ele>
        <time>2010-09-05T07:16:13Z</time>
      </trkpt>
      <trkpt lat="48.67519" lon="1.8266">
        <ele>167.39</ele>
        <time>2010-09-05T07:16:20Z</time>
      </trkpt>
      <trkpt lat="48.67527" lon="1.82661">
        <ele>168.052</ele>
        <time>2010-09-05T07:16:23Z</time>
      </trkpt>
      <trkpt lat="48.67561" lon="1.8265">
        <ele>170.168</ele>
        <time>2010-09-05T07:16:36Z</time>
      </trkpt>
      <trkpt lat="48.67596" lon="1.82613">
        <ele>168.291</ele>
        <time>2010-09-05T07:16:46Z</time>
      </trkpt>
      <trkpt lat="48.67624" lon="1.82582">
        <ele>169.715</ele>
        <time>2010-09-05T07:16:54Z</time>
      </trkpt>
      <trkpt lat="48.67645" lon="1.82556">
        <ele>169.945</ele>
        <time>2010-09-05T07:17:00Z</time>
      </trkpt>
      <trkpt lat="48.67645" lon="1.82546">
        <ele>169</ele>
        <time>2010-09-05T07:17:02Z</time>
      </trkpt>
      <trkpt lat="48.67643" lon="1.82511">
        <ele>165.806</ele>
        <time>2010-09-05T07:17:07Z</time>
      </trkpt>
      <trkpt lat="48.67632" lon="1.82455">
        <ele>162.306</ele>
        <time>2010-09-05T07:17:13Z</time>
      </trkpt>
      <trkpt lat="48.67627" lon="1.82412">
        <ele>161.666</ele>
        <time>2010-09-05T07:17:17Z</time>
      </trkpt>
      <trkpt lat="48.67623" lon="1.82339">
        <ele>165.712</ele>
        <time>2010-09-05T07:17:28Z</time>
      </trkpt>
      <trkpt lat="48.67616" lon="1.82264">
        <ele>171.594</ele>
        <time>2010-09-05T07:17:42Z</time>
      </trkpt>
      <trkpt lat="48.67611" lon="1.82212">
        <ele>171.831</ele>
        <time>2010-09-05T07:17:52Z</time>
      </trkpt>
      <trkpt lat="48.67607" lon="1.82197">
        <ele>170.651</ele>
        <time>2010-09-05T07:18:03Z</time>
      </trkpt>
      <trkpt lat="48.67607" lon="1.82201">
        <ele>170.187</ele>
        <time>2010-09-05T07:18:24Z</time>
      </trkpt>
      <trkpt lat="48.67607" lon="1.82201">
        <ele>170.234</ele>
        <time>2010-09-05T07:18:59Z</time>
      </trkpt>
      <trkpt lat="48.67615" lon="1.82201">
        <ele>170.486</ele>
        <time>2010-09-05T07:19:04Z</time>
      </trkpt>
      <trkpt lat="48.67658" lon="1.82207">
        <ele>170.043</ele>
        <time>2010-09-05T07:19:15Z</time>
      </trkpt>
      <trkpt lat="48.67701" lon="1.82215">
        <ele>165.1</ele>
        <time>2010-09-05T07:19:24Z</time>
      </trkpt>
      <trkpt lat="48.67755" lon="1.82226">
        <ele>161.803</ele>
        <time>2010-09-05T07:19:33Z</time>
      </trkpt>
      <trkpt lat="48.67762" lon="1.82225">
        <ele>161.799</ele>
        <time>2010-09-05T07:19:35Z</time>
      </trkpt>
      <trkpt lat="48.67782" lon="1.82201">
        <ele>162.716</ele>
        <time>2010-09-05T07:19:42Z</time>
      </trkpt>
      <trkpt lat="48.67783" lon="1.82174">
        <ele>162.278</ele>
        <time>2010-09-05T07:19:46Z</time>
      </trkpt>
      <trkpt lat="48.6779" lon="1.82163">
        <ele>162.515</ele>
        <time>2010-09-05T07:19:50Z</time>
      </trkpt>
      <trkpt lat="48.67785" lon="1.82153">
        <ele>160.729</ele>
        <time>2010-09-05T07:19:56Z</time>
      </trkpt>
      <trkpt lat="48.67781" lon="1.82137">
        <ele>161.328</ele>
        <time>2010-09-05T07:20:01Z</time>
      </trkpt>
      <trkpt lat="48.67785" lon="1.8212">
        <ele>163.564</ele>
        <time>2010-09-05T07:20:06Z</time>
      </trkpt>
      <trkpt lat="48.67779" lon="1.82086">
        <ele>165.074</ele>
        <time>2010-09-05T07:20:14Z</time>
      </trkpt>
      <trkpt lat="48.67774" lon="1.82006">
        <ele>167.281</ele>
        <time>2010-09-05T07:20:30Z</time>
      </trkpt>
      <trkpt lat="48.67771" lon="1.81948">
        <ele>167.353</ele>
        <time>2010-09-05T07:20:41Z</time>
      </trkpt>
      <trkpt lat="48.67772" lon="1.81902">
        <ele>166.979</ele>
        <time>2010-09-05T07:20:49Z</time>
      </trkpt>
      <trkpt lat="48.67769" lon="1.81855">
        <ele>166.298</ele>
        <time>2010-09-05T07:20:55Z</time>
      </trkpt>
      <trkpt lat="48.67769" lon="1.81796">
        <ele>166.294</ele>
        <time>2010-09-05T07:21:02Z</time>
      </trkpt>
      <trkpt lat="48.67773" lon="1.81725">
        <ele>164.263</ele>
        <time>2010-09-05T07:21:11Z</time>
      </trkpt>
      <trkpt lat="48.67778" lon="1.81676">
        <ele>162.84</ele>
        <time>2010-09-05T07:21:19Z</time>
      </trkpt>
      <trkpt lat="48.67775" lon="1.81639">
        <ele>162.923</ele>
        <time>2010-09-05T07:21:25Z</time>
      </trkpt>
      <trkpt lat="48.67776" lon="1.81618">
        <ele>162.288</ele>
        <time>2010-09-05T07:21:28Z</time>
      </trkpt>
      <trkpt lat="48.67771" lon="1.81566">
        <ele>163.909</ele>
        <time>2010-09-05T07:21:37Z</time>
      </trkpt>
      <trkpt lat="48.67778" lon="1.81527">
        <ele>166.232</ele>
        <time>2010-09-05T07:21:44Z</time>
      </trkpt>
      <trkpt lat="48.67798" lon="1.81486">
        <ele>166.477</ele>
        <time>2010-09-05T07:21:52Z</time>
      </trkpt>
      <trkpt lat="48.678" lon="1.81425">
        <ele>165.474</ele>
        <time>2010-09-05T07:22:02Z</time>
      </trkpt>
      <trkpt lat="48.67797" lon="1.81416">
        <ele>166.016</ele>
        <time>2010-09-05T07:22:04Z</time>
      </trkpt>
      <trkpt lat="48.678" lon="1.81397">
        <ele>166.353</ele>
        <time>2010-09-05T07:22:08Z</time>
      </trkpt>
      <trkpt lat="48.67798" lon="1.81384">
        <ele>166.304</ele>
        <time>2010-09-05T07:22:11Z</time>
      </trkpt>
      <trkpt lat="48.67799" lon="1.81361">
        <ele>165.485</ele>
        <time>2010-09-05T07:22:18Z</time>
      </trkpt>
      <trkpt lat="48.67812" lon="1.81335">
        <ele>166.092</ele>
        <time>2010-09-05T07:22:24Z</time>
      </trkpt>
      <trkpt lat="48.6785" lon="1.81294">
        <ele>167.702</ele>
        <time>2010-09-05T07:22:35Z</time>
      </trkpt>
      <trkpt lat="48.67894" lon="1.81275">
        <ele>167.748</ele>
        <time>2010-09-05T07:22:46Z</time>
      </trkpt>
      <trkpt lat="48.67926" lon="1.81272">
        <ele>166.242</ele>
        <time>2010-09-05T07:22:52Z</time>
      </trkpt>
      <trkpt lat="48.6796" lon="1.81272">
        <ele>170.73</ele>
        <time>2010-09-05T07:22:57Z</time>
      </trkpt>
      <trkpt lat="48.68007" lon="1.81284">
        <ele>170.4</ele>
        <time>2010-09-05T07:23:07Z</time>
      </trkpt>
      <trkpt lat="48.68018" lon="1.81287">
        <ele>170.755</ele>
        <time>2010-09-05T07:23:09Z</time>
      </trkpt>
      <trkpt lat="48.68027" lon="1.81291">
        <ele>171.44</ele>
        <time>2010-09-05T07:23:11Z</time>
      </trkpt>
      <trkpt lat="48.68052" lon="1.81294">
        <ele>168.804</ele>
        <time>2010-09-05T07:23:16Z</time>
      </trkpt>
      <trkpt lat="48.68076" lon="1.81289">
        <ele>167.208</ele>
        <time>2010-09-05T07:23:22Z</time>
      </trkpt>
      <trkpt lat="48.68088" lon="1.81295">
        <ele>168.731</ele>
        <time>2010-09-05T07:23:26Z</time>
      </trkpt>
      <trkpt lat="48.68131" lon="1.81285">
        <ele>164.464</ele>
        <time>2010-09-05T07:23:36Z</time>
      </trkpt>
      <trkpt lat="48.68158" lon="1.81285">
        <ele>164.497</ele>
        <time>2010-09-05T07:23:44Z</time>
      </trkpt>
      <trkpt lat="48.68165" lon="1.81281">
        <ele>164.322</ele>
        <time>2010-09-05T07:23:47Z</time>
      </trkpt>
      <trkpt lat="48.68175" lon="1.8128">
        <ele>164.415</ele>
        <time>2010-09-05T07:23:51Z</time>
      </trkpt>
      <trkpt lat="48.68184" lon="1.81275">
        <ele>163.463</ele>
        <time>2010-09-05T07:23:54Z</time>
      </trkpt>
      <trkpt lat="48.68197" lon="1.81266">
        <ele>161.881</ele>
        <time>2010-09-05T07:23:58Z</time>
      </trkpt>
      <trkpt lat="48.68231" lon="1.81269">
        <ele>163.262</ele>
        <time>2010-09-05T07:24:07Z</time>
      </trkpt>
      <trkpt lat="48.68243" lon="1.81266">
        <ele>162.956</ele>
        <time>2010-09-05T07:24:11Z</time>
      </trkpt>
      <trkpt lat="48.68254" lon="1.8127">
        <ele>161.968</ele>
        <time>2010-09-05T07:24:14Z</time>
      </trkpt>
      <trkpt lat="48.68267" lon="1.8127">
        <ele>163.963</ele>
        <time>2010-09-05T07:24:18Z</time>
      </trkpt>
      <trkpt lat="48.68276" lon="1.81264">
        <ele>164.076</ele>
        <time>2010-09-05T07:24:22Z</time>
      </trkpt>
      <trkpt lat="48.68307" lon="1.8125">
        <ele>161.953</ele>
        <time>2010-09-05T07:24:32Z</time>
      </trkpt>
      <trkpt lat="48.68331" lon="1.81235">
        <ele>160.418</ele>
        <time>2010-09-05T07:24:40Z</time>
      </trkpt>
      <trkpt lat="48.68337" lon="1.81238">
        <ele>161.607</ele>
        <time>2010-09-05T07:24:44Z</time>
      </trkpt>
      <trkpt lat="48.68345" lon="1.81233">
        <ele>161.679</ele>
        <time>2010-09-05T07:24:48Z</time>
      </trkpt>
      <trkpt lat="48.68358" lon="1.81237">
        <ele>166.319</ele>
        <time>2010-09-05T07:24:56Z</time>
      </trkpt>
      <trkpt lat="48.68383" lon="1.81232">
        <ele>166.903</ele>
        <time>2010-09-05T07:25:02Z</time>
      </trkpt>
      <trkpt lat="48.68413" lon="1.81217">
        <ele>168.064</ele>
        <time>2010-09-05T07:25:11Z</time>
      </trkpt>
      <trkpt lat="48.6843" lon="1.81209">
        <ele>169.414</ele>
        <time>2010-09-05T07:25:16Z</time>
      </trkpt>
      <trkpt lat="48.68451" lon="1.8119">
        <ele>170.16</ele>
        <time>2010-09-05T07:25:23Z</time>
      </trkpt>
      <trkpt lat="48.68455" lon="1.81187">
        <ele>171.336</ele>
        <time>2010-09-05T07:25:25Z</time>
      </trkpt>
      <trkpt lat="48.68472" lon="1.81197">
        <ele>172.307</ele>
        <time>2010-09-05T07:25:30Z</time>
      </trkpt>
      <trkpt lat="48.68478" lon="1.81206">
        <ele>173.15</ele>
        <time>2010-09-05T07:25:33Z</time>
      </trkpt>
      <trkpt lat="48.6849" lon="1.81216">
        <ele>172.303</ele>
        <time>2010-09-05T07:25:38Z</time>
      </trkpt>
      <trkpt lat="48.68511" lon="1.81202">
        <ele>171.657</ele>
        <time>2010-09-05T07:25:46Z</time>
      </trkpt>
      <trkpt lat="48.68521" lon="1.81187">
        <ele>168.058</ele>
        <time>2010-09-05T07:25:50Z</time>
      </trkpt>
      <trkpt lat="48.6853" lon="1.81124">
        <ele>167.456</ele>
        <time>2010-09-05T07:26:01Z</time>
      </trkpt>
      <trkpt lat="48.68537" lon="1.81108">
        <ele>168.441</ele>
        <time>2010-09-05T07:26:11Z</time>
      </trkpt>
      <trkpt lat="48.68533" lon="1.81105">
        <ele>168.006</ele>
        <time>2010-09-05T07:26:41Z</time>
      </trkpt>
      <trkpt lat="48.68531" lon="1.81105">
        <ele>168.445</ele>
        <time>2010-09-05T07:26:43Z</time>
      </trkpt>
      <trkpt lat="48.68503" lon="1.81111">
        <ele>168.019</ele>
        <time>2010-09-05T07:26:53Z</time>
      </trkpt>
      <trkpt lat="48.68492" lon="1.81117">
        <ele>170.272</ele>
        <time>2010-09-05T07:26:57Z</time>
      </trkpt>
      <trkpt lat="48.68469" lon="1.81122">
        <ele>170.876</ele>
        <time>2010-09-05T07:27:02Z</time>
      </trkpt>
      <trkpt lat="48.68452" lon="1.81131">
        <ele>173.108</ele>
        <time>2010-09-05T07:27:07Z</time>
      </trkpt>
      <trkpt lat="48.68439" lon="1.81131">
        <ele>172.242</ele>
        <time>2010-09-05T07:27:10Z</time>
      </trkpt>
      <trkpt lat="48.68418" lon="1.81134">
        <ele>173.266</ele>
        <time>2010-09-05T07:27:15Z</time>
      </trkpt>
      <trkpt lat="48.68384" lon="1.8114">
        <ele>172.773</ele>
        <time>2010-09-05T07:27:23Z</time>
      </trkpt>
      <trkpt lat="48.68367" lon="1.81146">
        <ele>173.071</ele>
        <time>2010-09-05T07:27:27Z</time>
      </trkpt>
      <trkpt lat="48.6835" lon="1.81147">
        <ele>172.256</ele>
        <time>2010-09-05T07:27:30Z</time>
      </trkpt>
      <trkpt lat="48.68302" lon="1.8116">
        <ele>170.292</ele>
        <time>2010-09-05T07:27:39Z</time>
      </trkpt>
      <trkpt lat="48.68224" lon="1.81176">
        <ele>171.307</ele>
        <time>2010-09-05T07:27:55Z</time>
      </trkpt>
      <trkpt lat="48.68188" lon="1.81185">
        <ele>171.793</ele>
        <time>2010-09-05T07:28:03Z</time>
      </trkpt>
      <trkpt lat="48.68139" lon="1.81198">
        <ele>171.058</ele>
        <time>2010-09-05T07:28:13Z</time>
      </trkpt>
      <trkpt lat="48.68053" lon="1.81219">
        <ele>167.766</ele>
        <time>2010-09-05T07:28:27Z</time>
      </trkpt>
      <trkpt lat="48.68002" lon="1.81206">
        <ele>167.704</ele>
        <time>2010-09-05T07:28:38Z</time>
      </trkpt>
      <trkpt lat="48.68" lon="1.81205">
        <ele>167.134</ele>
        <time>2010-09-05T07:28:39Z</time>
      </trkpt>
      <trkpt lat="48.68002" lon="1.81191">
        <ele>167.602</ele>
        <time>2010-09-05T07:28:44Z</time>
      </trkpt>
      <trkpt lat="48.68006" lon="1.81176">
        <ele>168.471</ele>
        <time>2010-09-05T07:28:48Z</time>
      </trkpt>
      <trkpt lat="48.6802" lon="1.81119">
        <ele>170.606</ele>
        <time>2010-09-05T07:29:03Z</time>
      </trkpt>
      <trkpt lat="48.68022" lon="1.81115">
        <ele>170.616</ele>
        <time>2010-09-05T07:29:04Z</time>
      </trkpt>
      <trkpt lat="48.68033" lon="1.81084">
        <ele>170.877</ele>
        <time>2010-09-05T07:29:12Z</time>
      </trkpt>
      <trkpt lat="48.68042" lon="1.81049">
        <ele>172.077</ele>
        <time>2010-09-05T07:29:19Z</time>
      </trkpt>
      <trkpt lat="48.68047" lon="1.81007">
        <ele>172.543</ele>
        <time>2010-09-05T07:29:26Z</time>
      </trkpt>
      <trkpt lat="48.68051" lon="1.80989">
        <ele>172.436</ele>
        <time>2010-09-05T07:29:29Z</time>
      </trkpt>
      <trkpt lat="48.68058" lon="1.80966">
        <ele>171.519</ele>
        <time>2010-09-05T07:29:33Z</time>
      </trkpt>
      <trkpt lat="48.68069" lon="1.8093">
        <ele>172.085</ele>
        <time>2010-09-05T07:29:39Z</time>
      </trkpt>
      <trkpt lat="48.68072" lon="1.80917">
        <ele>172.649</ele>
        <time>2010-09-05T07:29:41Z</time>
      </trkpt>
      <trkpt lat="48.68079" lon="1.80892">
        <ele>173.198</ele>
        <time>2010-09-05T07:29:45Z</time>
      </trkpt>
      <trkpt lat="48.6809" lon="1.80857">
        <ele>171.832</ele>
        <time>2010-09-05T07:29:51Z</time>
      </trkpt>
      <trkpt lat="48.68099" lon="1.80819">
        <ele>171.543</ele>
        <time>2010-09-05T07:29:57Z</time>
      </trkpt>
      <trkpt lat="48.68118" lon="1.80764">
        <ele>171.542</ele>
        <time>2010-09-05T07:30:06Z</time>
      </trkpt>
      <trkpt lat="48.68126" lon="1.80747">
        <ele>171.858</ele>
        <time>2010-09-05T07:30:09Z</time>
      </trkpt>
      <trkpt lat="48.68137" lon="1.80701">
        <ele>170.691</ele>
        <time>2010-09-05T07:30:16Z</time>
      </trkpt>
      <trkpt lat="48.6815" lon="1.80636">
        <ele>171.398</ele>
        <time>2010-09-05T07:30:26Z</time>
      </trkpt>
      <trkpt lat="48.68128" lon="1.80624">
        <ele>171.716</ele>
        <time>2010-09-05T07:30:34Z</time>
      </trkpt>
      <trkpt lat="48.68119" lon="1.80623">
        <ele>171.439</ele>
        <time>2010-09-05T07:30:36Z</time>
      </trkpt>
      <trkpt lat="48.68109" lon="1.80619">
        <ele>171.845</ele>
        <time>2010-09-05T07:30:39Z</time>
      </trkpt>
      <trkpt lat="48.68075" lon="1.80609">
        <ele>172.355</ele>
        <time>2010-09-05T07:30:47Z</time>
      </trkpt>
      <trkpt lat="48.68067" lon="1.80572">
        <ele>173.567</ele>
        <time>2010-09-05T07:30:55Z</time>
      </trkpt>
      <trkpt lat="48.68065" lon="1.80559">
        <ele>173.736</ele>
        <time>2010-09-05T07:30:57Z</time>
      </trkpt>
      <trkpt lat="48.68073" lon="1.80529">
        <ele>173.993</ele>
        <time>2010-09-05T07:31:03Z</time>
      </trkpt>
      <trkpt lat="48.68084" lon="1.80515">
        <ele>173.52</ele>
        <time>2010-09-05T07:31:07Z</time>
      </trkpt>
      <trkpt lat="48.68077" lon="1.80503">
        <ele>171.842</ele>
        <time>2010-09-05T07:31:12Z</time>
      </trkpt>
      <trkpt lat="48.68022" lon="1.8053">
        <ele>171.598</ele>
        <time>2010-09-05T07:31:27Z</time>
      </trkpt>
      <trkpt lat="48.68019" lon="1.80532">
        <ele>171.276</ele>
        <time>2010-09-05T07:31:28Z</time>
      </trkpt>
      <trkpt lat="48.67971" lon="1.80555">
        <ele>172.985</ele>
        <time>2010-09-05T07:31:40Z</time>
      </trkpt>
      <trkpt lat="48.67942" lon="1.80561">
        <ele>173.257</ele>
        <time>2010-09-05T07:31:47Z</time>
      </trkpt>
      <trkpt lat="48.67935" lon="1.80546">
        <ele>174.398</ele>
        <time>2010-09-05T07:31:51Z</time>
      </trkpt>
      <trkpt lat="48.67926" lon="1.80527">
        <ele>175.152</ele>
        <time>2010-09-05T07:31:57Z</time>
      </trkpt>
      <trkpt lat="48.67902" lon="1.80474">
        <ele>177.15</ele>
        <time>2010-09-05T07:32:09Z</time>
      </trkpt>
      <trkpt lat="48.67888" lon="1.80453">
        <ele>179.323</ele>
        <time>2010-09-05T07:32:18Z</time>
      </trkpt>
      <trkpt lat="48.67885" lon="1.80447">
        <ele>180.195</ele>
        <time>2010-09-05T07:32:20Z</time>
      </trkpt>
      <trkpt lat="48.67877" lon="1.80422">
        <ele>182.963</ele>
        <time>2010-09-05T07:32:27Z</time>
      </trkpt>
      <trkpt lat="48.67859" lon="1.8039">
        <ele>183.756</ele>
        <time>2010-09-05T07:32:33Z</time>
      </trkpt>
      <trkpt lat="48.67821" lon="1.80327">
        <ele>183.32</ele>
        <time>2010-09-05T07:32:43Z</time>
      </trkpt>
      <trkpt lat="48.67789" lon="1.80258">
        <ele>183.29</ele>
        <time>2010-09-05T07:32:56Z</time>
      </trkpt>
      <trkpt lat="48.67764" lon="1.80203">
        <ele>180.448</ele>
        <time>2010-09-05T07:33:07Z</time>
      </trkpt>
      <trkpt lat="48.67748" lon="1.80176">
        <ele>180.157</ele>
        <time>2010-09-05T07:33:12Z</time>
      </trkpt>
      <trkpt lat="48.67728" lon="1.80155">
        <ele>179.547</ele>
        <time>2010-09-05T07:33:17Z</time>
      </trkpt>
      <trkpt lat="48.6772" lon="1.8014">
        <ele>177.622</ele>
        <time>2010-09-05T07:33:20Z</time>
      </trkpt>
      <trkpt lat="48.67714" lon="1.8012">
        <ele>177.362</ele>
        <time>2010-09-05T07:33:23Z</time>
      </trkpt>
      <trkpt lat="48.67708" lon="1.80099">
        <ele>176.565</ele>
        <time>2010-09-05T07:33:26Z</time>
      </trkpt>
      <trkpt lat="48.67693" lon="1.80066">
        <ele>177.225</ele>
        <time>2010-09-05T07:33:32Z</time>
      </trkpt>
      <trkpt lat="48.67682" lon="1.80056">
        <ele>178.226</ele>
        <time>2010-09-05T07:33:35Z</time>
      </trkpt>
      <trkpt lat="48.67659" lon="1.8002">
        <ele>177.18</ele>
        <time>2010-09-05T07:33:41Z</time>
      </trkpt>
      <trkpt lat="48.67652" lon="1.79979">
        <ele>175.561</ele>
        <time>2010-09-05T07:33:46Z</time>
      </trkpt>
      <trkpt lat="48.67658" lon="1.79853">
        <ele>166.976</ele>
        <time>2010-09-05T07:34:01Z</time>
      </trkpt>
      <trkpt lat="48.67671" lon="1.79721">
        <ele>160.809</ele>
        <time>2010-09-05T07:34:15Z</time>
      </trkpt>
      <trkpt lat="48.67679" lon="1.79635">
        <ele>155.792</ele>
        <time>2010-09-05T07:34:26Z</time>
      </trkpt>
      <trkpt lat="48.67681" lon="1.79621">
        <ele>155.785</ele>
        <time>2010-09-05T07:34:28Z</time>
      </trkpt>
      <trkpt lat="48.67684" lon="1.79583">
        <ele>154.017</ele>
        <time>2010-09-05T07:34:33Z</time>
      </trkpt>
      <trkpt lat="48.67684" lon="1.79563">
        <ele>153.418</ele>
        <time>2010-09-05T07:34:36Z</time>
      </trkpt>
      <trkpt lat="48.6769" lon="1.79505">
        <ele>151.539</ele>
        <time>2010-09-05T07:34:44Z</time>
      </trkpt>
      <trkpt lat="48.67695" lon="1.79441">
        <ele>148.696</ele>
        <time>2010-09-05T07:34:54Z</time>
      </trkpt>
      <trkpt lat="48.67699" lon="1.79419">
        <ele>148.447</ele>
        <time>2010-09-05T07:34:57Z</time>
      </trkpt>
      <trkpt lat="48.6771" lon="1.79391">
        <ele>149.018</ele>
        <time>2010-09-05T07:35:01Z</time>
      </trkpt>
      <trkpt lat="48.67725" lon="1.79352">
        <ele>148.384</ele>
        <time>2010-09-05T07:35:07Z</time>
      </trkpt>
      <trkpt lat="48.6775" lon="1.7929">
        <ele>150.785</ele>
        <time>2010-09-05T07:35:21Z</time>
      </trkpt>
      <trkpt lat="48.67757" lon="1.79282">
        <ele>151.654</ele>
        <time>2010-09-05T07:35:25Z</time>
      </trkpt>
      <trkpt lat="48.67759" lon="1.79273">
        <ele>152.301</ele>
        <time>2010-09-05T07:35:28Z</time>
      </trkpt>
      <trkpt lat="48.67774" lon="1.79231">
        <ele>151.014</ele>
        <time>2010-09-05T07:35:40Z</time>
      </trkpt>
      <trkpt lat="48.67795" lon="1.79191">
        <ele>151.977</ele>
        <time>2010-09-05T07:35:50Z</time>
      </trkpt>
      <trkpt lat="48.67811" lon="1.79147">
        <ele>151.493</ele>
        <time>2010-09-05T07:36:01Z</time>
      </trkpt>
      <trkpt lat="48.67814" lon="1.79141">
        <ele>151.396</ele>
        <time>2010-09-05T07:36:03Z</time>
      </trkpt>
      <trkpt lat="48.67821" lon="1.79123">
        <ele>151.202</ele>
        <time>2010-09-05T07:36:09Z</time>
      </trkpt>
      <trkpt lat="48.67825" lon="1.79109">
        <ele>152.53</ele>
        <time>2010-09-05T07:36:13Z</time>
      </trkpt>
      <trkpt lat="48.67827" lon="1.79051">
        <ele>151.845</ele>
        <time>2010-09-05T07:36:28Z</time>
      </trkpt>
      <trkpt lat="48.67829" lon="1.78963">
        <ele>150.104</ele>
        <time>2010-09-05T07:36:43Z</time>
      </trkpt>
      <trkpt lat="48.6783" lon="1.78958">
        <ele>150.007</ele>
        <time>2010-09-05T07:36:44Z</time>
      </trkpt>
      <trkpt lat="48.67833" lon="1.78887">
        <ele>148.972</ele>
        <time>2010-09-05T07:36:56Z</time>
      </trkpt>
      <trkpt lat="48.67833" lon="1.78872">
        <ele>148.817</ele>
        <time>2010-09-05T07:36:58Z</time>
      </trkpt>
      <trkpt lat="48.67834" lon="1.78818">
        <ele>148.833</ele>
        <time>2010-09-05T07:37:05Z</time>
      </trkpt>
      <trkpt lat="48.67834" lon="1.78785">
        <ele>148.608</ele>
        <time>2010-09-05T07:37:10Z</time>
      </trkpt>
      <trkpt lat="48.67834" lon="1.78744">
        <ele>148.53</ele>
        <time>2010-09-05T07:37:16Z</time>
      </trkpt>
      <trkpt lat="48.67835" lon="1.78645">
        <ele>149.157</ele>
        <time>2010-09-05T07:37:31Z</time>
      </trkpt>
      <trkpt lat="48.67836" lon="1.78619">
        <ele>147.027</ele>
        <time>2010-09-05T07:37:34Z</time>
      </trkpt>
      <trkpt lat="48.67835" lon="1.78587">
        <ele>145.984</ele>
        <time>2010-09-05T07:37:38Z</time>
      </trkpt>
      <trkpt lat="48.67839" lon="1.78553">
        <ele>143.824</ele>
        <time>2010-09-05T07:37:44Z</time>
      </trkpt>
      <trkpt lat="48.67844" lon="1.78551">
        <ele>144.277</ele>
        <time>2010-09-05T07:37:48Z</time>
      </trkpt>
      <trkpt lat="48.67864" lon="1.78576">
        <ele>144.633</ele>
        <time>2010-09-05T07:37:57Z</time>
      </trkpt>
      <trkpt lat="48.67881" lon="1.78594">
        <ele>143.935</ele>
        <time>2010-09-05T07:38:03Z</time>
      </trkpt>
      <trkpt lat="48.67891" lon="1.78605">
        <ele>143.24</ele>
        <time>2010-09-05T07:38:07Z</time>
      </trkpt>
      <trkpt lat="48.67901" lon="1.78621">
        <ele>146.21</ele>
        <time>2010-09-05T07:38:13Z</time>
      </trkpt>
      <trkpt lat="48.67913" lon="1.78644">
        <ele>150.351</ele>
        <time>2010-09-05T07:38:24Z</time>
      </trkpt>
      <trkpt lat="48.67929" lon="1.78657">
        <ele>152.859</ele>
        <time>2010-09-05T07:38:33Z</time>
      </trkpt>
      <trkpt lat="48.67945" lon="1.78662">
        <ele>154.299</ele>
        <time>2010-09-05T07:38:43Z</time>
      </trkpt>
      <trkpt lat="48.67954" lon="1.78668">
        <ele>156.284</ele>
        <time>2010-09-05T07:38:55Z</time>
      </trkpt>
      <trkpt lat="48.67959" lon="1.78673">
        <ele>157.76</ele>
        <time>2010-09-05T07:39:10Z</time>
      </trkpt>
      <trkpt lat="48.6797" lon="1.78684">
        <ele>162.297</ele>
        <time>2010-09-05T07:39:23Z</time>
      </trkpt>
      <trkpt lat="48.6798" lon="1.78693">
        <ele>166.742</ele>
        <time>2010-09-05T07:39:37Z</time>
      </trkpt>
      <trkpt lat="48.67993" lon="1.78705">
        <ele>170.183</ele>
        <time>2010-09-05T07:39:49Z</time>
      </trkpt>
      <trkpt lat="48.67999" lon="1.78707">
        <ele>172.546</ele>
        <time>2010-09-05T07:39:56Z</time>
      </trkpt>
      <trkpt lat="48.68001" lon="1.78709">
        <ele>174.254</ele>
        <time>2010-09-05T07:40:08Z</time>
      </trkpt>
      <trkpt lat="48.68003" lon="1.78707">
        <ele>175.105</ele>
        <time>2010-09-05T07:40:52Z</time>
      </trkpt>
      <trkpt lat="48.68025" lon="1.78682">
        <ele>177.014</ele>
        <time>2010-09-05T07:41:07Z</time>
      </trkpt>
      <trkpt lat="48.68064" lon="1.78645">
        <ele>173.053</ele>
        <time>2010-09-05T07:41:22Z</time>
      </trkpt>
      <trkpt lat="48.68074" lon="1.78634">
        <ele>169.703</ele>
        <time>2010-09-05T07:41:25Z</time>
      </trkpt>
      <trkpt lat="48.68092" lon="1.78618">
        <ele>167.662</ele>
        <time>2010-09-05T07:41:30Z</time>
      </trkpt>
      <trkpt lat="48.68112" lon="1.78599">
        <ele>166.595</ele>
        <time>2010-09-05T07:41:35Z</time>
      </trkpt>
      <trkpt lat="48.68156" lon="1.78565">
        <ele>163.135</ele>
        <time>2010-09-05T07:41:43Z</time>
      </trkpt>
      <trkpt lat="48.682" lon="1.78523">
        <ele>162.215</ele>
        <time>2010-09-05T07:41:53Z</time>
      </trkpt>
      <trkpt lat="48.68237" lon="1.78491">
        <ele>163.727</ele>
        <time>2010-09-05T07:42:06Z</time>
      </trkpt>
      <trkpt lat="48.68256" lon="1.78476">
        <ele>165.584</ele>
        <time>2010-09-05T07:42:16Z</time>
      </trkpt>
      <trkpt lat="48.6828" lon="1.78452">
        <ele>166.351</ele>
        <time>2010-09-05T07:42:30Z</time>
      </trkpt>
      <trkpt lat="48.68304" lon="1.78433">
        <ele>166.47</ele>
        <time>2010-09-05T07:42:41Z</time>
      </trkpt>
      <trkpt lat="48.68329" lon="1.78408">
        <ele>164.758</ele>
        <time>2010-09-05T07:42:51Z</time>
      </trkpt>
      <trkpt lat="48.68333" lon="1.78406">
        <ele>164.632</ele>
        <time>2010-09-05T07:42:52Z</time>
      </trkpt>
      <trkpt lat="48.68368" lon="1.78361">
        <ele>160.755</ele>
        <time>2010-09-05T07:43:04Z</time>
      </trkpt>
      <trkpt lat="48.68382" lon="1.7836">
        <ele>161.514</ele>
        <time>2010-09-05T07:43:13Z</time>
      </trkpt>
      <trkpt lat="48.68383" lon="1.78359">
        <ele>161.148</ele>
        <time>2010-09-05T07:43:41Z</time>
      </trkpt>
      <trkpt lat="48.68409" lon="1.78326">
        <ele>165.032</ele>
        <time>2010-09-05T07:43:52Z</time>
      </trkpt>
      <trkpt lat="48.68433" lon="1.78293">
        <ele>163.696</ele>
        <time>2010-09-05T07:44:00Z</time>
      </trkpt>
      <trkpt lat="48.68448" lon="1.78276">
        <ele>161.648</ele>
        <time>2010-09-05T07:44:04Z</time>
      </trkpt>
      <trkpt lat="48.68466" lon="1.78247">
        <ele>158.781</ele>
        <time>2010-09-05T07:44:08Z</time>
      </trkpt>
      <trkpt lat="48.68491" lon="1.78214">
        <ele>158</ele>
        <time>2010-09-05T07:44:12Z</time>
      </trkpt>
      <trkpt lat="48.68531" lon="1.78161">
        <ele>158.011</ele>
        <time>2010-09-05T07:44:22Z</time>
      </trkpt>
      <trkpt lat="48.6856" lon="1.78125">
        <ele>161.165</ele>
        <time>2010-09-05T07:44:32Z</time>
      </trkpt>
      <trkpt lat="48.68584" lon="1.78086">
        <ele>163.083</ele>
        <time>2010-09-05T07:44:44Z</time>
      </trkpt>
      <trkpt lat="48.68597" lon="1.78074">
        <ele>165.93</ele>
        <time>2010-09-05T07:44:50Z</time>
      </trkpt>
      <trkpt lat="48.68602" lon="1.78063">
        <ele>166.078</ele>
        <time>2010-09-05T07:44:54Z</time>
      </trkpt>
      <trkpt lat="48.6862" lon="1.78042">
        <ele>165.434</ele>
        <time>2010-09-05T07:45:03Z</time>
      </trkpt>
      <trkpt lat="48.68658" lon="1.7801">
        <ele>168.107</ele>
        <time>2010-09-05T07:45:17Z</time>
      </trkpt>
      <trkpt lat="48.68694" lon="1.78024">
        <ele>169.59</ele>
        <time>2010-09-05T07:45:29Z</time>
      </trkpt>
      <trkpt lat="48.6872" lon="1.78037">
        <ele>172.089</ele>
        <time>2010-09-05T07:45:36Z</time>
      </trkpt>
      <trkpt lat="48.68743" lon="1.78052">
        <ele>173.434</ele>
        <time>2010-09-05T07:45:43Z</time>
      </trkpt>
      <trkpt lat="48.68769" lon="1.78082">
        <ele>171.595</ele>
        <time>2010-09-05T07:45:53Z</time>
      </trkpt>
      <trkpt lat="48.68798" lon="1.78116">
        <ele>170.935</ele>
        <time>2010-09-05T07:46:02Z</time>
      </trkpt>
      <trkpt lat="48.68802" lon="1.78124">
        <ele>170.588</ele>
        <time>2010-09-05T07:46:06Z</time>
      </trkpt>
      <trkpt lat="48.68796" lon="1.78164">
        <ele>170.524</ele>
        <time>2010-09-05T07:46:15Z</time>
      </trkpt>
      <trkpt lat="48.68785" lon="1.78246">
        <ele>168.318</ele>
        <time>2010-09-05T07:46:29Z</time>
      </trkpt>
      <trkpt lat="48.68783" lon="1.78283">
        <ele>169.559</ele>
        <time>2010-09-05T07:46:34Z</time>
      </trkpt>
      <trkpt lat="48.68774" lon="1.78339">
        <ele>170.38</ele>
        <time>2010-09-05T07:46:42Z</time>
      </trkpt>
      <trkpt lat="48.68775" lon="1.78373">
        <ele>167.1</ele>
        <time>2010-09-05T07:46:45Z</time>
      </trkpt>
      <trkpt lat="48.68767" lon="1.78433">
        <ele>162.216</ele>
        <time>2010-09-05T07:46:54Z</time>
      </trkpt>
      <trkpt lat="48.6876" lon="1.78464">
        <ele>160.993</ele>
        <time>2010-09-05T07:46:57Z</time>
      </trkpt>
      <trkpt lat="48.68762" lon="1.78529">
        <ele>161.916</ele>
        <time>2010-09-05T07:47:03Z</time>
      </trkpt>
      <trkpt lat="48.6875" lon="1.78607">
        <ele>159.327</ele>
        <time>2010-09-05T07:47:14Z</time>
      </trkpt>
      <trkpt lat="48.68744" lon="1.78673">
        <ele>156.575</ele>
        <time>2010-09-05T07:47:23Z</time>
      </trkpt>
      <trkpt lat="48.68746" lon="1.78735">
        <ele>160.726</ele>
        <time>2010-09-05T07:47:32Z</time>
      </trkpt>
      <trkpt lat="48.68745" lon="1.78754">
        <ele>162.168</ele>
        <time>2010-09-05T07:47:36Z</time>
      </trkpt>
      <trkpt lat="48.6876" lon="1.78752">
        <ele>160.576</ele>
        <time>2010-09-05T07:47:41Z</time>
      </trkpt>
      <trkpt lat="48.68771" lon="1.78745">
        <ele>159.78</ele>
        <time>2010-09-05T07:47:44Z</time>
      </trkpt>
      <trkpt lat="48.68781" lon="1.78737">
        <ele>160.125</ele>
        <time>2010-09-05T07:47:47Z</time>
      </trkpt>
      <trkpt lat="48.68811" lon="1.78721">
        <ele>159.969</ele>
        <time>2010-09-05T07:47:56Z</time>
      </trkpt>
      <trkpt lat="48.68831" lon="1.78715">
        <ele>160.655</ele>
        <time>2010-09-05T07:48:02Z</time>
      </trkpt>
      <trkpt lat="48.68867" lon="1.78703">
        <ele>163.378</ele>
        <time>2010-09-05T07:48:12Z</time>
      </trkpt>
      <trkpt lat="48.68892" lon="1.78694">
        <ele>163.936</ele>
        <time>2010-09-05T07:48:19Z</time>
      </trkpt>
      <trkpt lat="48.68906" lon="1.78697">
        <ele>165.171</ele>
        <time>2010-09-05T07:48:22Z</time>
      </trkpt>
      <trkpt lat="48.68935" lon="1.7871">
        <ele>166.895</ele>
        <time>2010-09-05T07:48:29Z</time>
      </trkpt>
      <trkpt lat="48.68949" lon="1.7871">
        <ele>168.429</ele>
        <time>2010-09-05T07:48:32Z</time>
      </trkpt>
      <trkpt lat="48.68958" lon="1.78711">
        <ele>168.679</ele>
        <time>2010-09-05T07:48:34Z</time>
      </trkpt>
      <trkpt lat="48.68978" lon="1.78721">
        <ele>170.513</ele>
        <time>2010-09-05T07:48:38Z</time>
      </trkpt>
      <trkpt lat="48.68992" lon="1.7872">
        <ele>170.485</ele>
        <time>2010-09-05T07:48:42Z</time>
      </trkpt>
      <trkpt lat="48.69001" lon="1.78719">
        <ele>171.245</ele>
        <time>2010-09-05T07:48:44Z</time>
      </trkpt>
      <trkpt lat="48.69039" lon="1.78708">
        <ele>170.483</ele>
        <time>2010-09-05T07:48:53Z</time>
      </trkpt>
      <trkpt lat="48.69061" lon="1.78714">
        <ele>170.398</ele>
        <time>2010-09-05T07:48:58Z</time>
      </trkpt>
      <trkpt lat="48.69095" lon="1.78717">
        <ele>175.993</ele>
        <time>2010-09-05T07:49:09Z</time>
      </trkpt>
      <trkpt lat="48.69112" lon="1.7872">
        <ele>176.082</ele>
        <time>2010-09-05T07:49:19Z</time>
      </trkpt>
      <trkpt lat="48.69114" lon="1.78721">
        <ele>176.314</ele>
        <time>2010-09-05T07:49:20Z</time>
      </trkpt>
      <trkpt lat="48.69135" lon="1.78743">
        <ele>175.499</ele>
        <time>2010-09-05T07:49:30Z</time>
      </trkpt>
      <trkpt lat="48.69141" lon="1.78746">
        <ele>174.968</ele>
        <time>2010-09-05T07:49:32Z</time>
      </trkpt>
      <trkpt lat="48.69147" lon="1.78766">
        <ele>173.954</ele>
        <time>2010-09-05T07:49:47Z</time>
      </trkpt>
      <trkpt lat="48.69147" lon="1.78789">
        <ele>173.593</ele>
        <time>2010-09-05T07:49:53Z</time>
      </trkpt>
      <trkpt lat="48.69156" lon="1.78837">
        <ele>172.376</ele>
        <time>2010-09-05T07:50:03Z</time>
      </trkpt>
      <trkpt lat="48.69192" lon="1.78875">
        <ele>174.309</ele>
        <time>2010-09-05T07:50:12Z</time>
      </trkpt>
      <trkpt lat="48.69196" lon="1.78881">
        <ele>173.879</ele>
        <time>2010-09-05T07:50:14Z</time>
      </trkpt>
      <trkpt lat="48.69206" lon="1.78879">
        <ele>175.639</ele>
        <time>2010-09-05T07:50:19Z</time>
      </trkpt>
      <trkpt lat="48.69215" lon="1.78875">
        <ele>177.205</ele>
        <time>2010-09-05T07:50:24Z</time>
      </trkpt>
      <trkpt lat="48.69217" lon="1.7887">
        <ele>177.19</ele>
        <time>2010-09-05T07:50:26Z</time>
      </trkpt>
      <trkpt lat="48.69233" lon="1.78869">
        <ele>176.702</ele>
        <time>2010-09-05T07:50:33Z</time>
      </trkpt>
      <trkpt lat="48.69287" lon="1.78886">
        <ele>178.519</ele>
        <time>2010-09-05T07:50:53Z</time>
      </trkpt>
      <trkpt lat="48.69318" lon="1.78899">
        <ele>178.066</ele>
        <time>2010-09-05T07:51:03Z</time>
      </trkpt>
      <trkpt lat="48.69345" lon="1.78903">
        <ele>175.719</ele>
        <time>2010-09-05T07:51:10Z</time>
      </trkpt>
      <trkpt lat="48.69383" lon="1.78901">
        <ele>176.065</ele>
        <time>2010-09-05T07:51:19Z</time>
      </trkpt>
      <trkpt lat="48.69416" lon="1.78902">
        <ele>176.537</ele>
        <time>2010-09-05T07:51:27Z</time>
      </trkpt>
      <trkpt lat="48.69436" lon="1.78894">
        <ele>176.083</ele>
        <time>2010-09-05T07:51:32Z</time>
      </trkpt>
      <trkpt lat="48.69523" lon="1.78888">
        <ele>175.944</ele>
        <time>2010-09-05T07:51:50Z</time>
      </trkpt>
      <trkpt lat="48.69537" lon="1.78885">
        <ele>176.369</ele>
        <time>2010-09-05T07:51:53Z</time>
      </trkpt>
      <trkpt lat="48.69632" lon="1.78843">
        <ele>176.095</ele>
        <time>2010-09-05T07:52:12Z</time>
      </trkpt>
      <trkpt lat="48.6974" lon="1.78796">
        <ele>175.728</ele>
        <time>2010-09-05T07:52:32Z</time>
      </trkpt>
      <trkpt lat="48.69746" lon="1.78794">
        <ele>175.44</ele>
        <time>2010-09-05T07:52:33Z</time>
      </trkpt>
      <trkpt lat="48.69833" lon="1.78795">
        <ele>175.309</ele>
        <time>2010-09-05T07:52:49Z</time>
      </trkpt>
      <trkpt lat="48.69904" lon="1.788">
        <ele>175.481</ele>
        <time>2010-09-05T07:53:01Z</time>
      </trkpt>
      <trkpt lat="48.69935" lon="1.78802">
        <ele>175.353</ele>
        <time>2010-09-05T07:53:06Z</time>
      </trkpt>
      <trkpt lat="48.69956" lon="1.78801">
        <ele>175.178</ele>
        <time>2010-09-05T07:53:10Z</time>
      </trkpt>
      <trkpt lat="48.70002" lon="1.78799">
        <ele>171.232</ele>
        <time>2010-09-05T07:53:19Z</time>
      </trkpt>
      <trkpt lat="48.7004" lon="1.78804">
        <ele>170.316</ele>
        <time>2010-09-05T07:53:26Z</time>
      </trkpt>
      <trkpt lat="48.70091" lon="1.78806">
        <ele>168.408</ele>
        <time>2010-09-05T07:53:36Z</time>
      </trkpt>
      <trkpt lat="48.70096" lon="1.78806">
        <ele>168.376</ele>
        <time>2010-09-05T07:53:37Z</time>
      </trkpt>
      <trkpt lat="48.70116" lon="1.7881">
        <ele>168.957</ele>
        <time>2010-09-05T07:53:41Z</time>
      </trkpt>
      <trkpt lat="48.70128" lon="1.7881">
        <ele>168.187</ele>
        <time>2010-09-05T07:53:44Z</time>
      </trkpt>
      <trkpt lat="48.70167" lon="1.78815">
        <ele>170.779</ele>
        <time>2010-09-05T07:53:55Z</time>
      </trkpt>
      <trkpt lat="48.70189" lon="1.78811">
        <ele>173.347</ele>
        <time>2010-09-05T07:54:02Z</time>
      </trkpt>
      <trkpt lat="48.70208" lon="1.7881">
        <ele>170.738</ele>
        <time>2010-09-05T07:54:08Z</time>
      </trkpt>
      <trkpt lat="48.70226" lon="1.78813">
        <ele>172.226</ele>
        <time>2010-09-05T07:54:12Z</time>
      </trkpt>
      <trkpt lat="48.7024" lon="1.78802">
        <ele>173.166</ele>
        <time>2010-09-05T07:54:16Z</time>
      </trkpt>
      <trkpt lat="48.70243" lon="1.78784">
        <ele>174.265</ele>
        <time>2010-09-05T07:54:20Z</time>
      </trkpt>
      <trkpt lat="48.70247" lon="1.78739">
        <ele>178.612</ele>
        <time>2010-09-05T07:54:31Z</time>
      </trkpt>
      <trkpt lat="48.70244" lon="1.78694">
        <ele>180.21</ele>
        <time>2010-09-05T07:54:43Z</time>
      </trkpt>
      <trkpt lat="48.70243" lon="1.78689">
        <ele>179.989</ele>
        <time>2010-09-05T07:54:44Z</time>
      </trkpt>
      <trkpt lat="48.70247" lon="1.78631">
        <ele>179.316</ele>
        <time>2010-09-05T07:54:54Z</time>
      </trkpt>
      <trkpt lat="48.70243" lon="1.78587">
        <ele>179.278</ele>
        <time>2010-09-05T07:55:04Z</time>
      </trkpt>
      <trkpt lat="48.70247" lon="1.78565">
        <ele>181.801</ele>
        <time>2010-09-05T07:55:09Z</time>
      </trkpt>
      <trkpt lat="48.70263" lon="1.78555">
        <ele>180.92</ele>
        <time>2010-09-05T07:55:13Z</time>
      </trkpt>
      <trkpt lat="48.703" lon="1.78555">
        <ele>180.181</ele>
        <time>2010-09-05T07:55:22Z</time>
      </trkpt>
      <trkpt lat="48.70314" lon="1.78555">
        <ele>178.918</ele>
        <time>2010-09-05T07:55:25Z</time>
      </trkpt>
      <trkpt lat="48.70343" lon="1.78561">
        <ele>180.266</ele>
        <time>2010-09-05T07:55:30Z</time>
      </trkpt>
      <trkpt lat="48.70365" lon="1.78564">
        <ele>180.287</ele>
        <time>2010-09-05T07:55:34Z</time>
      </trkpt>
      <trkpt lat="48.70413" lon="1.78563">
        <ele>177.276</ele>
        <time>2010-09-05T07:55:44Z</time>
      </trkpt>
      <trkpt lat="48.70446" lon="1.78571">
        <ele>174.773</ele>
        <time>2010-09-05T07:55:49Z</time>
      </trkpt>
      <trkpt lat="48.70469" lon="1.78576">
        <ele>174.043</ele>
        <time>2010-09-05T07:55:53Z</time>
      </trkpt>
      <trkpt lat="48.70502" lon="1.78582">
        <ele>173.476</ele>
        <time>2010-09-05T07:55:59Z</time>
      </trkpt>
      <trkpt lat="48.70522" lon="1.78584">
        <ele>174.283</ele>
        <time>2010-09-05T07:56:04Z</time>
      </trkpt>
      <trkpt lat="48.70579" lon="1.78582">
        <ele>172.045</ele>
        <time>2010-09-05T07:56:15Z</time>
      </trkpt>
      <trkpt lat="48.70594" lon="1.78581">
        <ele>170.618</ele>
        <time>2010-09-05T07:56:18Z</time>
      </trkpt>
      <trkpt lat="48.70626" lon="1.78585">
        <ele>167.862</ele>
        <time>2010-09-05T07:56:25Z</time>
      </trkpt>
      <trkpt lat="48.70655" lon="1.7859">
        <ele>170.666</ele>
        <time>2010-09-05T07:56:29Z</time>
      </trkpt>
      <trkpt lat="48.70694" lon="1.7859">
        <ele>168.908</ele>
        <time>2010-09-05T07:56:36Z</time>
      </trkpt>
      <trkpt lat="48.70749" lon="1.78599">
        <ele>167.473</ele>
        <time>2010-09-05T07:56:46Z</time>
      </trkpt>
      <trkpt lat="48.70772" lon="1.78607">
        <ele>167.881</ele>
        <time>2010-09-05T07:56:50Z</time>
      </trkpt>
      <trkpt lat="48.70783" lon="1.78607">
        <ele>168.23</ele>
        <time>2010-09-05T07:56:52Z</time>
      </trkpt>
      <trkpt lat="48.70805" lon="1.78593">
        <ele>168.333</ele>
        <time>2010-09-05T07:56:57Z</time>
      </trkpt>
      <trkpt lat="48.70822" lon="1.78575">
        <ele>168.204</ele>
        <time>2010-09-05T07:57:01Z</time>
      </trkpt>
      <trkpt lat="48.70844" lon="1.78537">
        <ele>167.2</ele>
        <time>2010-09-05T07:57:12Z</time>
      </trkpt>
      <trkpt lat="48.70844" lon="1.78537">
        <ele>167.29</ele>
        <time>2010-09-05T07:57:36Z</time>
      </trkpt>
      <trkpt lat="48.70859" lon="1.78512">
        <ele>165.723</ele>
        <time>2010-09-05T07:59:51Z</time>
      </trkpt>
      <trkpt lat="48.70868" lon="1.78493">
        <ele>164.612</ele>
        <time>2010-09-05T07:59:54Z</time>
      </trkpt>
      <trkpt lat="48.70907" lon="1.78417">
        <ele>160.733</ele>
        <time>2010-09-05T08:00:04Z</time>
      </trkpt>
      <trkpt lat="48.70911" lon="1.78408">
        <ele>160.529</ele>
        <time>2010-09-05T08:00:05Z</time>
      </trkpt>
      <trkpt lat="48.70924" lon="1.78386">
        <ele>159.79</ele>
        <time>2010-09-05T08:00:08Z</time>
      </trkpt>
      <trkpt lat="48.70971" lon="1.783">
        <ele>155.688</ele>
        <time>2010-09-05T08:00:19Z</time>
      </trkpt>
      <trkpt lat="48.70983" lon="1.78277">
        <ele>154.749</ele>
        <time>2010-09-05T08:00:22Z</time>
      </trkpt>
      <trkpt lat="48.70996" lon="1.78253">
        <ele>153.954</ele>
        <time>2010-09-05T08:00:25Z</time>
      </trkpt>
      <trkpt lat="48.71016" lon="1.78241">
        <ele>153.878</ele>
        <time>2010-09-05T08:00:30Z</time>
      </trkpt>
      <trkpt lat="48.71026" lon="1.78241">
        <ele>154.359</ele>
        <time>2010-09-05T08:00:32Z</time>
      </trkpt>
      <trkpt lat="48.71049" lon="1.7823">
        <ele>157.394</ele>
        <time>2010-09-05T08:00:37Z</time>
      </trkpt>
      <trkpt lat="48.71061" lon="1.78222">
        <ele>157.5</ele>
        <time>2010-09-05T08:00:40Z</time>
      </trkpt>
      <trkpt lat="48.71078" lon="1.78203">
        <ele>158.179</ele>
        <time>2010-09-05T08:00:44Z</time>
      </trkpt>
      <trkpt lat="48.71105" lon="1.78133">
        <ele>161.152</ele>
        <time>2010-09-05T08:00:56Z</time>
      </trkpt>
      <trkpt lat="48.71111" lon="1.78108">
        <ele>161.479</ele>
        <time>2010-09-05T08:00:59Z</time>
      </trkpt>
      <trkpt lat="48.71119" lon="1.78057">
        <ele>162.095</ele>
        <time>2010-09-05T08:01:05Z</time>
      </trkpt>
      <trkpt lat="48.71124" lon="1.78013">
        <ele>162.38</ele>
        <time>2010-09-05T08:01:10Z</time>
      </trkpt>
      <trkpt lat="48.71133" lon="1.77974">
        <ele>162.425</ele>
        <time>2010-09-05T08:01:15Z</time>
      </trkpt>
      <trkpt lat="48.71136" lon="1.77951">
        <ele>162.78</ele>
        <time>2010-09-05T08:01:19Z</time>
      </trkpt>
      <trkpt lat="48.71132" lon="1.7794">
        <ele>163.372</ele>
        <time>2010-09-05T08:01:23Z</time>
      </trkpt>
      <trkpt lat="48.71123" lon="1.77902">
        <ele>165.672</ele>
        <time>2010-09-05T08:01:33Z</time>
      </trkpt>
      <trkpt lat="48.71126" lon="1.77895">
        <ele>167.426</ele>
        <time>2010-09-05T08:01:37Z</time>
      </trkpt>
      <trkpt lat="48.71129" lon="1.77896">
        <ele>166.882</ele>
        <time>2010-09-05T08:01:40Z</time>
      </trkpt>
      <trkpt lat="48.71127" lon="1.77908">
        <ele>167.308</ele>
        <time>2010-09-05T08:01:45Z</time>
      </trkpt>
      <trkpt lat="48.71136" lon="1.7794">
        <ele>166.11</ele>
        <time>2010-09-05T08:01:55Z</time>
      </trkpt>
      <trkpt lat="48.71167" lon="1.77928">
        <ele>166.119</ele>
        <time>2010-09-05T08:02:05Z</time>
      </trkpt>
      <trkpt lat="48.7119" lon="1.77903">
        <ele>167.056</ele>
        <time>2010-09-05T08:02:12Z</time>
      </trkpt>
      <trkpt lat="48.71201" lon="1.77887">
        <ele>167.293</ele>
        <time>2010-09-05T08:02:15Z</time>
      </trkpt>
      <trkpt lat="48.71212" lon="1.77873">
        <ele>168.047</ele>
        <time>2010-09-05T08:02:18Z</time>
      </trkpt>
      <trkpt lat="48.71241" lon="1.77833">
        <ele>166.692</ele>
        <time>2010-09-05T08:02:25Z</time>
      </trkpt>
      <trkpt lat="48.7126" lon="1.77758">
        <ele>167.188</ele>
        <time>2010-09-05T08:02:33Z</time>
      </trkpt>
      <trkpt lat="48.71289" lon="1.77718">
        <ele>165.364</ele>
        <time>2010-09-05T08:02:38Z</time>
      </trkpt>
      <trkpt lat="48.71335" lon="1.77643">
        <ele>166.415</ele>
        <time>2010-09-05T08:02:48Z</time>
      </trkpt>
      <trkpt lat="48.71349" lon="1.77624">
        <ele>166.116</ele>
        <time>2010-09-05T08:02:51Z</time>
      </trkpt>
      <trkpt lat="48.71394" lon="1.77576">
        <ele>162.518</ele>
        <time>2010-09-05T08:02:59Z</time>
      </trkpt>
      <trkpt lat="48.71405" lon="1.77559">
        <ele>161.908</ele>
        <time>2010-09-05T08:03:02Z</time>
      </trkpt>
      <trkpt lat="48.71444" lon="1.77502">
        <ele>160.301</ele>
        <time>2010-09-05T08:03:13Z</time>
      </trkpt>
      <trkpt lat="48.71445" lon="1.77496">
        <ele>160.084</ele>
        <time>2010-09-05T08:03:14Z</time>
      </trkpt>
      <trkpt lat="48.71444" lon="1.77488">
        <ele>158.98</ele>
        <time>2010-09-05T08:03:25Z</time>
      </trkpt>
      <trkpt lat="48.71445" lon="1.77488">
        <ele>158.844</ele>
        <time>2010-09-05T08:03:30Z</time>
      </trkpt>
      <trkpt lat="48.7145" lon="1.77484">
        <ele>158.993</ele>
        <time>2010-09-05T08:03:34Z</time>
      </trkpt>
      <trkpt lat="48.71452" lon="1.77486">
        <ele>162.198</ele>
        <time>2010-09-05T08:03:47Z</time>
      </trkpt>
      <trkpt lat="48.71456" lon="1.77487">
        <ele>165.215</ele>
        <time>2010-09-05T08:03:58Z</time>
      </trkpt>
      <trkpt lat="48.71463" lon="1.77489">
        <ele>167.193</ele>
        <time>2010-09-05T08:04:13Z</time>
      </trkpt>
      <trkpt lat="48.71464" lon="1.77489">
        <ele>167.301</ele>
        <time>2010-09-05T08:04:35Z</time>
      </trkpt>
      <trkpt lat="48.7146" lon="1.77485">
        <ele>166.779</ele>
        <time>2010-09-05T08:04:50Z</time>
      </trkpt>
      <trkpt lat="48.71456" lon="1.77483">
        <ele>165.363</ele>
        <time>2010-09-05T08:05:01Z</time>
      </trkpt>
      <trkpt lat="48.71454" lon="1.77483">
        <ele>164.16</ele>
        <time>2010-09-05T08:05:25Z</time>
      </trkpt>
      <trkpt lat="48.71452" lon="1.77479">
        <ele>163.417</ele>
        <time>2010-09-05T08:05:38Z</time>
      </trkpt>
      <trkpt lat="48.71449" lon="1.7748">
        <ele>161.184</ele>
        <time>2010-09-05T08:05:59Z</time>
      </trkpt>
      <trkpt lat="48.71448" lon="1.77489">
        <ele>160.007</ele>
        <time>2010-09-05T08:06:27Z</time>
      </trkpt>
      <trkpt lat="48.71445" lon="1.77488">
        <ele>158.272</ele>
        <time>2010-09-05T08:06:40Z</time>
      </trkpt>
      <trkpt lat="48.71447" lon="1.77491">
        <ele>155.275</ele>
        <time>2010-09-05T08:08:16Z</time>
      </trkpt>
      <trkpt lat="48.7145" lon="1.77489">
        <ele>155.066</ele>
        <time>2010-09-05T08:08:20Z</time>
      </trkpt>
      <trkpt lat="48.71453" lon="1.7748">
        <ele>152.863</ele>
        <time>2010-09-05T08:08:42Z</time>
      </trkpt>
      <trkpt lat="48.71453" lon="1.7748">
        <ele>152.834</ele>
        <time>2010-09-05T08:09:50Z</time>
      </trkpt>
      <trkpt lat="48.71471" lon="1.77484">
        <ele>150.298</ele>
        <time>2010-09-05T08:10:01Z</time>
      </trkpt>
      <trkpt lat="48.71489" lon="1.77495">
        <ele>150.721</ele>
        <time>2010-09-05T08:10:12Z</time>
      </trkpt>
      <trkpt lat="48.71504" lon="1.77526">
        <ele>155.144</ele>
        <time>2010-09-05T08:10:25Z</time>
      </trkpt>
      <trkpt lat="48.71512" lon="1.77561">
        <ele>156.856</ele>
        <time>2010-09-05T08:10:35Z</time>
      </trkpt>
      <trkpt lat="48.71527" lon="1.77579">
        <ele>157.522</ele>
        <time>2010-09-05T08:10:44Z</time>
      </trkpt>
      <trkpt lat="48.7156" lon="1.77602">
        <ele>159.5</ele>
        <time>2010-09-05T08:10:57Z</time>
      </trkpt>
      <trkpt lat="48.7157" lon="1.77612">
        <ele>158.44</ele>
        <time>2010-09-05T08:11:00Z</time>
      </trkpt>
      <trkpt lat="48.71575" lon="1.77618">
        <ele>158.013</ele>
        <time>2010-09-05T08:11:02Z</time>
      </trkpt>
      <trkpt lat="48.71611" lon="1.7764">
        <ele>158.354</ele>
        <time>2010-09-05T08:11:14Z</time>
      </trkpt>
      <trkpt lat="48.7164" lon="1.77657">
        <ele>160.053</ele>
        <time>2010-09-05T08:11:24Z</time>
      </trkpt>
      <trkpt lat="48.71669" lon="1.77676">
        <ele>160.424</ele>
        <time>2010-09-05T08:11:33Z</time>
      </trkpt>
      <trkpt lat="48.71683" lon="1.77682">
        <ele>163.66</ele>
        <time>2010-09-05T08:11:39Z</time>
      </trkpt>
      <trkpt lat="48.71686" lon="1.77683">
        <ele>163.135</ele>
        <time>2010-09-05T08:11:41Z</time>
      </trkpt>
      <trkpt lat="48.71709" lon="1.77698">
        <ele>165.736</ele>
        <time>2010-09-05T08:11:50Z</time>
      </trkpt>
      <trkpt lat="48.71722" lon="1.77709">
        <ele>164.221</ele>
        <time>2010-09-05T08:11:57Z</time>
      </trkpt>
      <trkpt lat="48.71734" lon="1.77717">
        <ele>166.195</ele>
        <time>2010-09-05T08:12:04Z</time>
      </trkpt>
      <trkpt lat="48.71753" lon="1.7773">
        <ele>169.185</ele>
        <time>2010-09-05T08:12:12Z</time>
      </trkpt>
      <trkpt lat="48.71793" lon="1.77756">
        <ele>170.496</ele>
        <time>2010-09-05T08:12:26Z</time>
      </trkpt>
      <trkpt lat="48.71811" lon="1.77772">
        <ele>170.907</ele>
        <time>2010-09-05T08:12:32Z</time>
      </trkpt>
      <trkpt lat="48.71843" lon="1.77785">
        <ele>168.507</ele>
        <time>2010-09-05T08:12:41Z</time>
      </trkpt>
      <trkpt lat="48.71881" lon="1.77812">
        <ele>164.919</ele>
        <time>2010-09-05T08:12:52Z</time>
      </trkpt>
      <trkpt lat="48.71912" lon="1.77835">
        <ele>164.777</ele>
        <time>2010-09-05T08:13:00Z</time>
      </trkpt>
      <trkpt lat="48.71948" lon="1.77854">
        <ele>166.412</ele>
        <time>2010-09-05T08:13:11Z</time>
      </trkpt>
      <trkpt lat="48.71952" lon="1.77855">
        <ele>166.59</ele>
        <time>2010-09-05T08:13:12Z</time>
      </trkpt>
      <trkpt lat="48.71979" lon="1.77879">
        <ele>169.644</ele>
        <time>2010-09-05T08:13:20Z</time>
      </trkpt>
      <trkpt lat="48.72016" lon="1.77901">
        <ele>170.063</ele>
        <time>2010-09-05T08:13:29Z</time>
      </trkpt>
      <trkpt lat="48.72021" lon="1.77905">
        <ele>169.521</ele>
        <time>2010-09-05T08:13:30Z</time>
      </trkpt>
      <trkpt lat="48.72055" lon="1.77926">
        <ele>167.727</ele>
        <time>2010-09-05T08:13:37Z</time>
      </trkpt>
      <trkpt lat="48.72095" lon="1.77954">
        <ele>166.805</ele>
        <time>2010-09-05T08:13:46Z</time>
      </trkpt>
      <trkpt lat="48.72107" lon="1.77958">
        <ele>167.997</ele>
        <time>2010-09-05T08:13:50Z</time>
      </trkpt>
      <trkpt lat="48.72141" lon="1.77983">
        <ele>167.765</ele>
        <time>2010-09-05T08:13:59Z</time>
      </trkpt>
      <trkpt lat="48.72163" lon="1.77997">
        <ele>166.668</ele>
        <time>2010-09-05T08:14:03Z</time>
      </trkpt>
      <trkpt lat="48.72183" lon="1.78011">
        <ele>166.187</ele>
        <time>2010-09-05T08:14:07Z</time>
      </trkpt>
      <trkpt lat="48.72211" lon="1.7803">
        <ele>163.984</ele>
        <time>2010-09-05T08:14:14Z</time>
      </trkpt>
      <trkpt lat="48.7222" lon="1.7804">
        <ele>163.894</ele>
        <time>2010-09-05T08:14:17Z</time>
      </trkpt>
      <trkpt lat="48.72227" lon="1.78047">
        <ele>160.324</ele>
        <time>2010-09-05T08:14:19Z</time>
      </trkpt>
      <trkpt lat="48.72266" lon="1.78064">
        <ele>153.926</ele>
        <time>2010-09-05T08:14:28Z</time>
      </trkpt>
      <trkpt lat="48.72289" lon="1.78084">
        <ele>152.495</ele>
        <time>2010-09-05T08:14:33Z</time>
      </trkpt>
      <trkpt lat="48.72299" lon="1.78078">
        <ele>153.683</ele>
        <time>2010-09-05T08:14:37Z</time>
      </trkpt>
      <trkpt lat="48.72309" lon="1.78074">
        <ele>155.183</ele>
        <time>2010-09-05T08:14:42Z</time>
      </trkpt>
      <trkpt lat="48.72315" lon="1.78085">
        <ele>155.215</ele>
        <time>2010-09-05T08:14:46Z</time>
      </trkpt>
      <trkpt lat="48.72322" lon="1.78135">
        <ele>150.055</ele>
        <time>2010-09-05T08:14:56Z</time>
      </trkpt>
      <trkpt lat="48.72342" lon="1.78185">
        <ele>149.934</ele>
        <time>2010-09-05T08:15:09Z</time>
      </trkpt>
      <trkpt lat="48.72354" lon="1.78235">
        <ele>154.572</ele>
        <time>2010-09-05T08:15:19Z</time>
      </trkpt>
      <trkpt lat="48.72359" lon="1.78249">
        <ele>156.744</ele>
        <time>2010-09-05T08:15:22Z</time>
      </trkpt>
      <trkpt lat="48.72373" lon="1.78274">
        <ele>160.135</ele>
        <time>2010-09-05T08:15:28Z</time>
      </trkpt>
      <trkpt lat="48.72386" lon="1.78323">
        <ele>163.827</ele>
        <time>2010-09-05T08:15:37Z</time>
      </trkpt>
      <trkpt lat="48.72383" lon="1.78369">
        <ele>168.899</ele>
        <time>2010-09-05T08:15:47Z</time>
      </trkpt>
      <trkpt lat="48.72381" lon="1.78424">
        <ele>172.42</ele>
        <time>2010-09-05T08:15:58Z</time>
      </trkpt>
      <trkpt lat="48.72391" lon="1.78452">
        <ele>166.073</ele>
        <time>2010-09-05T08:16:08Z</time>
      </trkpt>
      <trkpt lat="48.72397" lon="1.78468">
        <ele>166.59</ele>
        <time>2010-09-05T08:16:17Z</time>
      </trkpt>
      <trkpt lat="48.72408" lon="1.78485">
        <ele>167.556</ele>
        <time>2010-09-05T08:16:29Z</time>
      </trkpt>
      <trkpt lat="48.72408" lon="1.78488">
        <ele>168.107</ele>
        <time>2010-09-05T08:16:31Z</time>
      </trkpt>
      <trkpt lat="48.7241" lon="1.78494">
        <ele>168.466</ele>
        <time>2010-09-05T08:16:35Z</time>
      </trkpt>
      <trkpt lat="48.72419" lon="1.78502">
        <ele>169.157</ele>
        <time>2010-09-05T08:16:43Z</time>
      </trkpt>
      <trkpt lat="48.7242" lon="1.78512">
        <ele>170.446</ele>
        <time>2010-09-05T08:16:47Z</time>
      </trkpt>
      <trkpt lat="48.72412" lon="1.78511">
        <ele>170.886</ele>
        <time>2010-09-05T08:16:51Z</time>
      </trkpt>
      <trkpt lat="48.72389" lon="1.78495">
        <ele>170.89</ele>
        <time>2010-09-05T08:17:02Z</time>
      </trkpt>
      <trkpt lat="48.72376" lon="1.78488">
        <ele>169.366</ele>
        <time>2010-09-05T08:17:17Z</time>
      </trkpt>
      <trkpt lat="48.72364" lon="1.78481">
        <ele>167.141</ele>
        <time>2010-09-05T08:17:29Z</time>
      </trkpt>
      <trkpt lat="48.72349" lon="1.78472">
        <ele>165.011</ele>
        <time>2010-09-05T08:17:36Z</time>
      </trkpt>
      <trkpt lat="48.72335" lon="1.78448">
        <ele>166.434</ele>
        <time>2010-09-05T08:17:49Z</time>
      </trkpt>
      <trkpt lat="48.72322" lon="1.78438">
        <ele>168.236</ele>
        <time>2010-09-05T08:17:56Z</time>
      </trkpt>
      <trkpt lat="48.72302" lon="1.7843">
        <ele>170.947</ele>
        <time>2010-09-05T08:18:07Z</time>
      </trkpt>
      <trkpt lat="48.72298" lon="1.78429">
        <ele>171.775</ele>
        <time>2010-09-05T08:18:09Z</time>
      </trkpt>
      <trkpt lat="48.72288" lon="1.7843">
        <ele>172.057</ele>
        <time>2010-09-05T08:18:14Z</time>
      </trkpt>
      <trkpt lat="48.7228" lon="1.78428">
        <ele>171.161</ele>
        <time>2010-09-05T08:18:18Z</time>
      </trkpt>
      <trkpt lat="48.72256" lon="1.78413">
        <ele>172.853</ele>
        <time>2010-09-05T08:18:31Z</time>
      </trkpt>
      <trkpt lat="48.72252" lon="1.78411">
        <ele>173.783</ele>
        <time>2010-09-05T08:18:33Z</time>
      </trkpt>
      <trkpt lat="48.72235" lon="1.78403">
        <ele>176.57</ele>
        <time>2010-09-05T08:18:43Z</time>
      </trkpt>
      <trkpt lat="48.72229" lon="1.78401">
        <ele>177.598</ele>
        <time>2010-09-05T08:18:46Z</time>
      </trkpt>
      <trkpt lat="48.72217" lon="1.78394">
        <ele>178.112</ele>
        <time>2010-09-05T08:18:51Z</time>
      </trkpt>
      <trkpt lat="48.7218" lon="1.78366">
        <ele>177.923</ele>
        <time>2010-09-05T08:19:03Z</time>
      </trkpt>
      <trkpt lat="48.72158" lon="1.7835">
        <ele>177.136</ele>
        <time>2010-09-05T08:19:15Z</time>
      </trkpt>
      <trkpt lat="48.72153" lon="1.78345">
        <ele>176.728</ele>
        <time>2010-09-05T08:19:19Z</time>
      </trkpt>
      <trkpt lat="48.72143" lon="1.78348">
        <ele>175.337</ele>
        <time>2010-09-05T08:19:24Z</time>
      </trkpt>
      <trkpt lat="48.72138" lon="1.78349">
        <ele>174.858</ele>
        <time>2010-09-05T08:19:42Z</time>
      </trkpt>
      <trkpt lat="48.72137" lon="1.78351">
        <ele>174.837</ele>
        <time>2010-09-05T08:20:52Z</time>
      </trkpt>
      <trkpt lat="48.72132" lon="1.78374">
        <ele>174.75</ele>
        <time>2010-09-05T08:20:59Z</time>
      </trkpt>
      <trkpt lat="48.72134" lon="1.78395">
        <ele>172.948</ele>
        <time>2010-09-05T08:21:03Z</time>
      </trkpt>
      <trkpt lat="48.7215" lon="1.78433">
        <ele>170.822</ele>
        <time>2010-09-05T08:21:09Z</time>
      </trkpt>
      <trkpt lat="48.72189" lon="1.78465">
        <ele>169.567</ele>
        <time>2010-09-05T08:21:16Z</time>
      </trkpt>
      <trkpt lat="48.72243" lon="1.78477">
        <ele>174.552</ele>
        <time>2010-09-05T08:21:25Z</time>
      </trkpt>
      <trkpt lat="48.72258" lon="1.7848">
        <ele>172.421</ele>
        <time>2010-09-05T08:21:30Z</time>
      </trkpt>
      <trkpt lat="48.72281" lon="1.78505">
        <ele>167.744</ele>
        <time>2010-09-05T08:21:36Z</time>
      </trkpt>
      <trkpt lat="48.72321" lon="1.7858">
        <ele>168.29</ele>
        <time>2010-09-05T08:21:54Z</time>
      </trkpt>
      <trkpt lat="48.72353" lon="1.78619">
        <ele>174.585</ele>
        <time>2010-09-05T08:22:09Z</time>
      </trkpt>
      <trkpt lat="48.72386" lon="1.78655">
        <ele>168.75</ele>
        <time>2010-09-05T08:22:24Z</time>
      </trkpt>
      <trkpt lat="48.72421" lon="1.78681">
        <ele>168.626</ele>
        <time>2010-09-05T08:22:40Z</time>
      </trkpt>
      <trkpt lat="48.72434" lon="1.78682">
        <ele>170.311</ele>
        <time>2010-09-05T08:22:45Z</time>
      </trkpt>
      <trkpt lat="48.72458" lon="1.78618">
        <ele>168.93</ele>
        <time>2010-09-05T08:22:59Z</time>
      </trkpt>
      <trkpt lat="48.72491" lon="1.78525">
        <ele>169.38</ele>
        <time>2010-09-05T08:23:17Z</time>
      </trkpt>
      <trkpt lat="48.7251" lon="1.78464">
        <ele>166.462</ele>
        <time>2010-09-05T08:23:26Z</time>
      </trkpt>
      <trkpt lat="48.72524" lon="1.78414">
        <ele>170.201</ele>
        <time>2010-09-05T08:23:35Z</time>
      </trkpt>
      <trkpt lat="48.72549" lon="1.78355">
        <ele>171.308</ele>
        <time>2010-09-05T08:23:48Z</time>
      </trkpt>
      <trkpt lat="48.72552" lon="1.78336">
        <ele>171.317</ele>
        <time>2010-09-05T08:23:52Z</time>
      </trkpt>
      <trkpt lat="48.7256" lon="1.78301">
        <ele>169.1</ele>
        <time>2010-09-05T08:23:58Z</time>
      </trkpt>
      <trkpt lat="48.72556" lon="1.78283">
        <ele>167.967</ele>
        <time>2010-09-05T08:24:02Z</time>
      </trkpt>
      <trkpt lat="48.72545" lon="1.78253">
        <ele>166.535</ele>
        <time>2010-09-05T08:24:13Z</time>
      </trkpt>
      <trkpt lat="48.72537" lon="1.78223">
        <ele>164.471</ele>
        <time>2010-09-05T08:24:20Z</time>
      </trkpt>
      <trkpt lat="48.72535" lon="1.78193">
        <ele>162.043</ele>
        <time>2010-09-05T08:24:27Z</time>
      </trkpt>
      <trkpt lat="48.72531" lon="1.78176">
        <ele>160.799</ele>
        <time>2010-09-05T08:24:36Z</time>
      </trkpt>
      <trkpt lat="48.72525" lon="1.78142">
        <ele>162.567</ele>
        <time>2010-09-05T08:24:51Z</time>
      </trkpt>
      <trkpt lat="48.72525" lon="1.78139">
        <ele>162.555</ele>
        <time>2010-09-05T08:24:52Z</time>
      </trkpt>
      <trkpt lat="48.72523" lon="1.78108">
        <ele>161.392</ele>
        <time>2010-09-05T08:25:00Z</time>
      </trkpt>
      <trkpt lat="48.72522" lon="1.78068">
        <ele>160.229</ele>
        <time>2010-09-05T08:25:06Z</time>
      </trkpt>
      <trkpt lat="48.72517" lon="1.78016">
        <ele>159.054</ele>
        <time>2010-09-05T08:25:14Z</time>
      </trkpt>
      <trkpt lat="48.72506" lon="1.77967">
        <ele>156.288</ele>
        <time>2010-09-05T08:25:23Z</time>
      </trkpt>
      <trkpt lat="48.72501" lon="1.77952">
        <ele>156.869</ele>
        <time>2010-09-05T08:25:28Z</time>
      </trkpt>
      <trkpt lat="48.72497" lon="1.77948">
        <ele>159.117</ele>
        <time>2010-09-05T08:25:31Z</time>
      </trkpt>
      <trkpt lat="48.72497" lon="1.77951">
        <ele>160.916</ele>
        <time>2010-09-05T08:25:40Z</time>
      </trkpt>
      <trkpt lat="48.72499" lon="1.77951">
        <ele>161.198</ele>
        <time>2010-09-05T08:25:45Z</time>
      </trkpt>
      <trkpt lat="48.72523" lon="1.77967">
        <ele>162.908</ele>
        <time>2010-09-05T08:25:56Z</time>
      </trkpt>
      <trkpt lat="48.72535" lon="1.77974">
        <ele>164.071</ele>
        <time>2010-09-05T08:26:02Z</time>
      </trkpt>
      <trkpt lat="48.72543" lon="1.7798">
        <ele>166.133</ele>
        <time>2010-09-05T08:26:06Z</time>
      </trkpt>
      <trkpt lat="48.72558" lon="1.77982">
        <ele>166.724</ele>
        <time>2010-09-05T08:26:16Z</time>
      </trkpt>
      <trkpt lat="48.72571" lon="1.7798">
        <ele>166.585</ele>
        <time>2010-09-05T08:26:23Z</time>
      </trkpt>
      <trkpt lat="48.7258" lon="1.77978">
        <ele>168.943</ele>
        <time>2010-09-05T08:26:29Z</time>
      </trkpt>
      <trkpt lat="48.72609" lon="1.77969">
        <ele>165.678</ele>
        <time>2010-09-05T08:26:44Z</time>
      </trkpt>
      <trkpt lat="48.72618" lon="1.77964">
        <ele>166.778</ele>
        <time>2010-09-05T08:26:51Z</time>
      </trkpt>
      <trkpt lat="48.72638" lon="1.77956">
        <ele>168.865</ele>
        <time>2010-09-05T08:27:06Z</time>
      </trkpt>
      <trkpt lat="48.7265" lon="1.77953">
        <ele>170.602</ele>
        <time>2010-09-05T08:27:14Z</time>
      </trkpt>
      <trkpt lat="48.72668" lon="1.77942">
        <ele>172.707</ele>
        <time>2010-09-05T08:27:26Z</time>
      </trkpt>
      <trkpt lat="48.72682" lon="1.77898">
        <ele>173.69</ele>
        <time>2010-09-05T08:27:39Z</time>
      </trkpt>
      <trkpt lat="48.72698" lon="1.77846">
        <ele>175.683</ele>
        <time>2010-09-05T08:27:50Z</time>
      </trkpt>
      <trkpt lat="48.72717" lon="1.77783">
        <ele>177.145</ele>
        <time>2010-09-05T08:28:01Z</time>
      </trkpt>
      <trkpt lat="48.72721" lon="1.77768">
        <ele>177.173</ele>
        <time>2010-09-05T08:28:04Z</time>
      </trkpt>
      <trkpt lat="48.72751" lon="1.77668">
        <ele>175.562</ele>
        <time>2010-09-05T08:28:21Z</time>
      </trkpt>
      <trkpt lat="48.72775" lon="1.77601">
        <ele>175.215</ele>
        <time>2010-09-05T08:28:34Z</time>
      </trkpt>
      <trkpt lat="48.72794" lon="1.77531">
        <ele>174.471</ele>
        <time>2010-09-05T08:28:47Z</time>
      </trkpt>
      <trkpt lat="48.72816" lon="1.77469">
        <ele>171.59</ele>
        <time>2010-09-05T08:28:59Z</time>
      </trkpt>
      <trkpt lat="48.72848" lon="1.77365">
        <ele>173.62</ele>
        <time>2010-09-05T08:29:18Z</time>
      </trkpt>
      <trkpt lat="48.72861" lon="1.77316">
        <ele>173.992</ele>
        <time>2010-09-05T08:29:26Z</time>
      </trkpt>
      <trkpt lat="48.72878" lon="1.77263">
        <ele>175.915</ele>
        <time>2010-09-05T08:29:35Z</time>
      </trkpt>
      <trkpt lat="48.72878" lon="1.7725">
        <ele>175.438</ele>
        <time>2010-09-05T08:29:37Z</time>
      </trkpt>
      <trkpt lat="48.72869" lon="1.77207">
        <ele>174.565</ele>
        <time>2010-09-05T08:29:45Z</time>
      </trkpt>
      <trkpt lat="48.72857" lon="1.77176">
        <ele>172.625</ele>
        <time>2010-09-05T08:29:52Z</time>
      </trkpt>
      <trkpt lat="48.72854" lon="1.77151">
        <ele>171.107</ele>
        <time>2010-09-05T08:29:56Z</time>
      </trkpt>
      <trkpt lat="48.72837" lon="1.77082">
        <ele>169.409</ele>
        <time>2010-09-05T08:30:06Z</time>
      </trkpt>
      <trkpt lat="48.72839" lon="1.7706">
        <ele>170.515</ele>
        <time>2010-09-05T08:30:10Z</time>
      </trkpt>
      <trkpt lat="48.72828" lon="1.76998">
        <ele>168.162</ele>
        <time>2010-09-05T08:30:19Z</time>
      </trkpt>
      <trkpt lat="48.72816" lon="1.7691">
        <ele>166.694</ele>
        <time>2010-09-05T08:30:29Z</time>
      </trkpt>
      <trkpt lat="48.72792" lon="1.76831">
        <ele>166.586</ele>
        <time>2010-09-05T08:30:39Z</time>
      </trkpt>
      <trkpt lat="48.72786" lon="1.76746">
        <ele>166.919</ele>
        <time>2010-09-05T08:30:50Z</time>
      </trkpt>
      <trkpt lat="48.72787" lon="1.76733">
        <ele>166.539</ele>
        <time>2010-09-05T08:30:52Z</time>
      </trkpt>
      <trkpt lat="48.72793" lon="1.76712">
        <ele>166.183</ele>
        <time>2010-09-05T08:30:56Z</time>
      </trkpt>
      <trkpt lat="48.72809" lon="1.7669">
        <ele>167.58</ele>
        <time>2010-09-05T08:31:07Z</time>
      </trkpt>
      <trkpt lat="48.72832" lon="1.76653">
        <ele>168.439</ele>
        <time>2010-09-05T08:31:17Z</time>
      </trkpt>
      <trkpt lat="48.72901" lon="1.76568">
        <ele>169.027</ele>
        <time>2010-09-05T08:31:40Z</time>
      </trkpt>
      <trkpt lat="48.72956" lon="1.76491">
        <ele>172.791</ele>
        <time>2010-09-05T08:31:58Z</time>
      </trkpt>
      <trkpt lat="48.72975" lon="1.76428">
        <ele>172.174</ele>
        <time>2010-09-05T08:32:10Z</time>
      </trkpt>
      <trkpt lat="48.72985" lon="1.76358">
        <ele>170.807</ele>
        <time>2010-09-05T08:32:20Z</time>
      </trkpt>
      <trkpt lat="48.72991" lon="1.76299">
        <ele>169.414</ele>
        <time>2010-09-05T08:32:31Z</time>
      </trkpt>
      <trkpt lat="48.72984" lon="1.7629">
        <ele>170.058</ele>
        <time>2010-09-05T08:32:41Z</time>
      </trkpt>
      <trkpt lat="48.72976" lon="1.76281">
        <ele>167.637</ele>
        <time>2010-09-05T08:32:50Z</time>
      </trkpt>
      <trkpt lat="48.72959" lon="1.76263">
        <ele>166.153</ele>
        <time>2010-09-05T08:32:57Z</time>
      </trkpt>
      <trkpt lat="48.72951" lon="1.76221">
        <ele>161.421</ele>
        <time>2010-09-05T08:33:06Z</time>
      </trkpt>
      <trkpt lat="48.72939" lon="1.76184">
        <ele>159.092</ele>
        <time>2010-09-05T08:33:10Z</time>
      </trkpt>
      <trkpt lat="48.7291" lon="1.76137">
        <ele>156.172</ele>
        <time>2010-09-05T08:33:16Z</time>
      </trkpt>
      <trkpt lat="48.72865" lon="1.76119">
        <ele>152.395</ele>
        <time>2010-09-05T08:33:24Z</time>
      </trkpt>
      <trkpt lat="48.72848" lon="1.76124">
        <ele>150.64</ele>
        <time>2010-09-05T08:33:28Z</time>
      </trkpt>
      <trkpt lat="48.72831" lon="1.7614">
        <ele>149.389</ele>
        <time>2010-09-05T08:33:32Z</time>
      </trkpt>
      <trkpt lat="48.72816" lon="1.76155">
        <ele>148.808</ele>
        <time>2010-09-05T08:33:35Z</time>
      </trkpt>
      <trkpt lat="48.72797" lon="1.7618">
        <ele>146.99</ele>
        <time>2010-09-05T08:33:39Z</time>
      </trkpt>
      <trkpt lat="48.72766" lon="1.76245">
        <ele>144.101</ele>
        <time>2010-09-05T08:33:47Z</time>
      </trkpt>
      <trkpt lat="48.72741" lon="1.76271">
        <ele>141.516</ele>
        <time>2010-09-05T08:33:52Z</time>
      </trkpt>
      <trkpt lat="48.72716" lon="1.76277">
        <ele>140.967</ele>
        <time>2010-09-05T08:33:56Z</time>
      </trkpt>
      <trkpt lat="48.72695" lon="1.76285">
        <ele>139.016</ele>
        <time>2010-09-05T08:33:59Z</time>
      </trkpt>
      <trkpt lat="48.72647" lon="1.76289">
        <ele>134.779</ele>
        <time>2010-09-05T08:34:06Z</time>
      </trkpt>
      <trkpt lat="48.72628" lon="1.76293">
        <ele>133.796</ele>
        <time>2010-09-05T08:34:09Z</time>
      </trkpt>
      <trkpt lat="48.72604" lon="1.7629">
        <ele>132.915</ele>
        <time>2010-09-05T08:34:13Z</time>
      </trkpt>
      <trkpt lat="48.72538" lon="1.76263">
        <ele>128.189</ele>
        <time>2010-09-05T08:34:25Z</time>
      </trkpt>
      <trkpt lat="48.72532" lon="1.76262">
        <ele>128.11</ele>
        <time>2010-09-05T08:34:26Z</time>
      </trkpt>
      <trkpt lat="48.72502" lon="1.76251">
        <ele>126.777</ele>
        <time>2010-09-05T08:34:33Z</time>
      </trkpt>
      <trkpt lat="48.72497" lon="1.76221">
        <ele>127.489</ele>
        <time>2010-09-05T08:34:44Z</time>
      </trkpt>
      <trkpt lat="48.72484" lon="1.76192">
        <ele>128.477</ele>
        <time>2010-09-05T08:34:51Z</time>
      </trkpt>
      <trkpt lat="48.72447" lon="1.76132">
        <ele>127.689</ele>
        <time>2010-09-05T08:35:02Z</time>
      </trkpt>
      <trkpt lat="48.72408" lon="1.76077">
        <ele>127.223</ele>
        <time>2010-09-05T08:35:11Z</time>
      </trkpt>
      <trkpt lat="48.72385" lon="1.76022">
        <ele>125.948</ele>
        <time>2010-09-05T08:35:21Z</time>
      </trkpt>
      <trkpt lat="48.72363" lon="1.76027">
        <ele>123.492</ele>
        <time>2010-09-05T08:35:27Z</time>
      </trkpt>
      <trkpt lat="48.72319" lon="1.76041">
        <ele>119.191</ele>
        <time>2010-09-05T08:35:36Z</time>
      </trkpt>
      <trkpt lat="48.72245" lon="1.76062">
        <ele>125.949</ele>
        <time>2010-09-05T08:35:52Z</time>
      </trkpt>
      <trkpt lat="48.72232" lon="1.76065">
        <ele>126.709</ele>
        <time>2010-09-05T08:35:55Z</time>
      </trkpt>
      <trkpt lat="48.72203" lon="1.7606">
        <ele>126.407</ele>
        <time>2010-09-05T08:36:05Z</time>
      </trkpt>
      <trkpt lat="48.722" lon="1.7604">
        <ele>127.296</ele>
        <time>2010-09-05T08:36:13Z</time>
      </trkpt>
      <trkpt lat="48.72198" lon="1.76028">
        <ele>129.817</ele>
        <time>2010-09-05T08:36:24Z</time>
      </trkpt>
      <trkpt lat="48.72197" lon="1.76027">
        <ele>129.697</ele>
        <time>2010-09-05T08:37:07Z</time>
      </trkpt>
      <trkpt lat="48.72185" lon="1.75981">
        <ele>129.053</ele>
        <time>2010-09-05T08:37:20Z</time>
      </trkpt>
      <trkpt lat="48.72181" lon="1.75959">
        <ele>128.901</ele>
        <time>2010-09-05T08:37:25Z</time>
      </trkpt>
      <trkpt lat="48.72169" lon="1.7595">
        <ele>129.517</ele>
        <time>2010-09-05T08:37:31Z</time>
      </trkpt>
      <trkpt lat="48.7216" lon="1.75903">
        <ele>128.605</ele>
        <time>2010-09-05T08:37:44Z</time>
      </trkpt>
      <trkpt lat="48.72153" lon="1.75901">
        <ele>128.762</ele>
        <time>2010-09-05T08:37:48Z</time>
      </trkpt>
      <trkpt lat="48.72113" lon="1.7592">
        <ele>133.602</ele>
        <time>2010-09-05T08:38:09Z</time>
      </trkpt>
      <trkpt lat="48.72106" lon="1.75925">
        <ele>134.103</ele>
        <time>2010-09-05T08:38:12Z</time>
      </trkpt>
      <trkpt lat="48.72085" lon="1.75889">
        <ele>134.862</ele>
        <time>2010-09-05T08:38:24Z</time>
      </trkpt>
      <trkpt lat="48.72053" lon="1.75825">
        <ele>135.12</ele>
        <time>2010-09-05T08:38:38Z</time>
      </trkpt>
      <trkpt lat="48.7202" lon="1.75749">
        <ele>135.338</ele>
        <time>2010-09-05T08:38:52Z</time>
      </trkpt>
      <trkpt lat="48.72016" lon="1.75738">
        <ele>134.888</ele>
        <time>2010-09-05T08:38:54Z</time>
      </trkpt>
      <trkpt lat="48.71975" lon="1.75655">
        <ele>136.279</ele>
        <time>2010-09-05T08:39:06Z</time>
      </trkpt>
      <trkpt lat="48.71959" lon="1.75615">
        <ele>136.188</ele>
        <time>2010-09-05T08:39:11Z</time>
      </trkpt>
      <trkpt lat="48.71916" lon="1.75539">
        <ele>140.677</ele>
        <time>2010-09-05T08:39:22Z</time>
      </trkpt>
      <trkpt lat="48.71888" lon="1.75481">
        <ele>142.461</ele>
        <time>2010-09-05T08:39:33Z</time>
      </trkpt>
      <trkpt lat="48.71882" lon="1.75471">
        <ele>143.096</ele>
        <time>2010-09-05T08:39:35Z</time>
      </trkpt>
      <trkpt lat="48.71855" lon="1.75377">
        <ele>137.159</ele>
        <time>2010-09-05T08:39:48Z</time>
      </trkpt>
      <trkpt lat="48.71851" lon="1.7536">
        <ele>136.896</ele>
        <time>2010-09-05T08:39:50Z</time>
      </trkpt>
      <trkpt lat="48.71843" lon="1.75338">
        <ele>137.312</ele>
        <time>2010-09-05T08:39:53Z</time>
      </trkpt>
      <trkpt lat="48.7183" lon="1.75313">
        <ele>137.631</ele>
        <time>2010-09-05T08:39:57Z</time>
      </trkpt>
      <trkpt lat="48.71807" lon="1.7527">
        <ele>138.641</ele>
        <time>2010-09-05T08:40:08Z</time>
      </trkpt>
      <trkpt lat="48.71762" lon="1.75186">
        <ele>137.072</ele>
        <time>2010-09-05T08:40:24Z</time>
      </trkpt>
      <trkpt lat="48.7175" lon="1.7516">
        <ele>136.392</ele>
        <time>2010-09-05T08:40:28Z</time>
      </trkpt>
      <trkpt lat="48.71737" lon="1.75115">
        <ele>136.463</ele>
        <time>2010-09-05T08:40:35Z</time>
      </trkpt>
      <trkpt lat="48.71713" lon="1.75051">
        <ele>138.875</ele>
        <time>2010-09-05T08:40:46Z</time>
      </trkpt>
      <trkpt lat="48.7171" lon="1.75045">
        <ele>138.631</ele>
        <time>2010-09-05T08:40:47Z</time>
      </trkpt>
      <trkpt lat="48.71679" lon="1.74958">
        <ele>138.033</ele>
        <time>2010-09-05T08:41:00Z</time>
      </trkpt>
      <trkpt lat="48.7167" lon="1.74932">
        <ele>137.243</ele>
        <time>2010-09-05T08:41:04Z</time>
      </trkpt>
      <trkpt lat="48.71652" lon="1.74889">
        <ele>136.798</ele>
        <time>2010-09-05T08:41:11Z</time>
      </trkpt>
      <trkpt lat="48.71625" lon="1.7482">
        <ele>136.048</ele>
        <time>2010-09-05T08:41:23Z</time>
      </trkpt>
      <trkpt lat="48.71606" lon="1.74765">
        <ele>136.045</ele>
        <time>2010-09-05T08:41:35Z</time>
      </trkpt>
      <trkpt lat="48.7158" lon="1.74704">
        <ele>139.151</ele>
        <time>2010-09-05T08:41:49Z</time>
      </trkpt>
      <trkpt lat="48.71561" lon="1.74627">
        <ele>144.17</ele>
        <time>2010-09-05T08:42:05Z</time>
      </trkpt>
      <trkpt lat="48.71543" lon="1.74599">
        <ele>143.486</ele>
        <time>2010-09-05T08:42:14Z</time>
      </trkpt>
      <trkpt lat="48.71538" lon="1.74595">
        <ele>143.855</ele>
        <time>2010-09-05T08:42:16Z</time>
      </trkpt>
      <trkpt lat="48.7152" lon="1.74553">
        <ele>145.202</ele>
        <time>2010-09-05T08:42:29Z</time>
      </trkpt>
      <trkpt lat="48.71501" lon="1.74524">
        <ele>145.434</ele>
        <time>2010-09-05T08:42:41Z</time>
      </trkpt>
      <trkpt lat="48.71484" lon="1.74489">
        <ele>147.718</ele>
        <time>2010-09-05T08:42:53Z</time>
      </trkpt>
      <trkpt lat="48.7147" lon="1.74459">
        <ele>150.571</ele>
        <time>2010-09-05T08:43:05Z</time>
      </trkpt>
      <trkpt lat="48.71465" lon="1.74453">
        <ele>151.74</ele>
        <time>2010-09-05T08:43:09Z</time>
      </trkpt>
      <trkpt lat="48.71451" lon="1.74425">
        <ele>150.649</ele>
        <time>2010-09-05T08:43:23Z</time>
      </trkpt>
      <trkpt lat="48.7144" lon="1.74406">
        <ele>158.635</ele>
        <time>2010-09-05T08:43:37Z</time>
      </trkpt>
      <trkpt lat="48.71439" lon="1.74401">
        <ele>160.608</ele>
        <time>2010-09-05T08:43:49Z</time>
      </trkpt>
      <trkpt lat="48.71426" lon="1.7436">
        <ele>160.787</ele>
        <time>2010-09-05T08:44:09Z</time>
      </trkpt>
      <trkpt lat="48.71419" lon="1.74339">
        <ele>161.306</ele>
        <time>2010-09-05T08:44:18Z</time>
      </trkpt>
      <trkpt lat="48.71416" lon="1.74322">
        <ele>163.674</ele>
        <time>2010-09-05T08:44:25Z</time>
      </trkpt>
      <trkpt lat="48.71411" lon="1.74299">
        <ele>164.483</ele>
        <time>2010-09-05T08:44:36Z</time>
      </trkpt>
      <trkpt lat="48.71404" lon="1.74283">
        <ele>165.257</ele>
        <time>2010-09-05T08:44:44Z</time>
      </trkpt>
      <trkpt lat="48.71395" lon="1.74242">
        <ele>164.368</ele>
        <time>2010-09-05T08:45:01Z</time>
      </trkpt>
      <trkpt lat="48.71384" lon="1.74195">
        <ele>167.678</ele>
        <time>2010-09-05T08:45:15Z</time>
      </trkpt>
      <trkpt lat="48.7137" lon="1.74129">
        <ele>173.924</ele>
        <time>2010-09-05T08:45:31Z</time>
      </trkpt>
      <trkpt lat="48.71365" lon="1.74091">
        <ele>175.877</ele>
        <time>2010-09-05T08:45:42Z</time>
      </trkpt>
      <trkpt lat="48.71356" lon="1.74059">
        <ele>177.797</ele>
        <time>2010-09-05T08:45:53Z</time>
      </trkpt>
      <trkpt lat="48.71349" lon="1.74045">
        <ele>178.045</ele>
        <time>2010-09-05T08:45:56Z</time>
      </trkpt>
      <trkpt lat="48.71336" lon="1.74004">
        <ele>178.082</ele>
        <time>2010-09-05T08:46:03Z</time>
      </trkpt>
      <trkpt lat="48.71324" lon="1.73962">
        <ele>178.617</ele>
        <time>2010-09-05T08:46:09Z</time>
      </trkpt>
      <trkpt lat="48.71318" lon="1.73933">
        <ele>178.255</ele>
        <time>2010-09-05T08:46:13Z</time>
      </trkpt>
      <trkpt lat="48.71298" lon="1.73871">
        <ele>179.084</ele>
        <time>2010-09-05T08:46:22Z</time>
      </trkpt>
      <trkpt lat="48.71264" lon="1.7377">
        <ele>176.559</ele>
        <time>2010-09-05T08:46:37Z</time>
      </trkpt>
      <trkpt lat="48.71255" lon="1.73743">
        <ele>177.626</ele>
        <time>2010-09-05T08:46:41Z</time>
      </trkpt>
      <trkpt lat="48.71236" lon="1.73675">
        <ele>179.497</ele>
        <time>2010-09-05T08:46:50Z</time>
      </trkpt>
      <trkpt lat="48.71219" lon="1.73632">
        <ele>180.919</ele>
        <time>2010-09-05T08:46:56Z</time>
      </trkpt>
      <trkpt lat="48.71207" lon="1.73605">
        <ele>180.144</ele>
        <time>2010-09-05T08:47:00Z</time>
      </trkpt>
      <trkpt lat="48.71195" lon="1.73612">
        <ele>178.693</ele>
        <time>2010-09-05T08:47:04Z</time>
      </trkpt>
      <trkpt lat="48.71179" lon="1.73632">
        <ele>176.752</ele>
        <time>2010-09-05T08:47:12Z</time>
      </trkpt>
      <trkpt lat="48.71175" lon="1.73635">
        <ele>175.826</ele>
        <time>2010-09-05T08:47:33Z</time>
      </trkpt>
      <trkpt lat="48.71177" lon="1.73634">
        <ele>174.967</ele>
        <time>2010-09-05T08:48:47Z</time>
      </trkpt>
      <trkpt lat="48.71177" lon="1.73635">
        <ele>174.831</ele>
        <time>2010-09-05T08:49:38Z</time>
      </trkpt>
      <trkpt lat="48.71177" lon="1.73635">
        <ele>174.912</ele>
        <time>2010-09-05T08:50:57Z</time>
      </trkpt>
      <trkpt lat="48.71176" lon="1.73635">
        <ele>175.211</ele>
        <time>2010-09-05T08:52:27Z</time>
      </trkpt>
      <trkpt lat="48.71143" lon="1.73668">
        <ele>175.512</ele>
        <time>2010-09-05T08:52:44Z</time>
      </trkpt>
      <trkpt lat="48.71091" lon="1.73724">
        <ele>175.101</ele>
        <time>2010-09-05T08:53:00Z</time>
      </trkpt>
      <trkpt lat="48.71084" lon="1.73732">
        <ele>174.801</ele>
        <time>2010-09-05T08:53:02Z</time>
      </trkpt>
      <trkpt lat="48.71075" lon="1.73739">
        <ele>174.951</ele>
        <time>2010-09-05T08:53:04Z</time>
      </trkpt>
      <trkpt lat="48.71048" lon="1.73764">
        <ele>175.072</ele>
        <time>2010-09-05T08:53:11Z</time>
      </trkpt>
      <trkpt lat="48.71008" lon="1.73807">
        <ele>175.856</ele>
        <time>2010-09-05T08:53:22Z</time>
      </trkpt>
      <trkpt lat="48.71005" lon="1.7381">
        <ele>175.538</ele>
        <time>2010-09-05T08:53:23Z</time>
      </trkpt>
      <trkpt lat="48.70984" lon="1.73881">
        <ele>180.43</ele>
        <time>2010-09-05T08:53:35Z</time>
      </trkpt>
      <trkpt lat="48.70978" lon="1.73905">
        <ele>181.947</ele>
        <time>2010-09-05T08:53:39Z</time>
      </trkpt>
      <trkpt lat="48.70965" lon="1.73978">
        <ele>182.234</ele>
        <time>2010-09-05T08:53:49Z</time>
      </trkpt>
      <trkpt lat="48.70952" lon="1.74041">
        <ele>181.704</ele>
        <time>2010-09-05T08:53:59Z</time>
      </trkpt>
      <trkpt lat="48.70949" lon="1.74055">
        <ele>180.669</ele>
        <time>2010-09-05T08:54:01Z</time>
      </trkpt>
      <trkpt lat="48.70932" lon="1.74118">
        <ele>181.966</ele>
        <time>2010-09-05T08:54:10Z</time>
      </trkpt>
      <trkpt lat="48.70929" lon="1.74153">
        <ele>178.712</ele>
        <time>2010-09-05T08:54:15Z</time>
      </trkpt>
      <trkpt lat="48.70911" lon="1.74236">
        <ele>175.267</ele>
        <time>2010-09-05T08:54:27Z</time>
      </trkpt>
      <trkpt lat="48.70907" lon="1.7425">
        <ele>174.571</ele>
        <time>2010-09-05T08:54:29Z</time>
      </trkpt>
      <trkpt lat="48.70899" lon="1.74267">
        <ele>172.209</ele>
        <time>2010-09-05T08:54:32Z</time>
      </trkpt>
      <trkpt lat="48.70889" lon="1.74286">
        <ele>170.527</ele>
        <time>2010-09-05T08:54:35Z</time>
      </trkpt>
      <trkpt lat="48.70879" lon="1.74306">
        <ele>170.948</ele>
        <time>2010-09-05T08:54:38Z</time>
      </trkpt>
      <trkpt lat="48.70846" lon="1.74367">
        <ele>173.964</ele>
        <time>2010-09-05T08:54:47Z</time>
      </trkpt>
      <trkpt lat="48.70774" lon="1.74428">
        <ele>171.167</ele>
        <time>2010-09-05T08:55:02Z</time>
      </trkpt>
      <trkpt lat="48.7072" lon="1.74461">
        <ele>171.887</ele>
        <time>2010-09-05T08:55:13Z</time>
      </trkpt>
      <trkpt lat="48.70655" lon="1.74489">
        <ele>171.95</ele>
        <time>2010-09-05T08:55:26Z</time>
      </trkpt>
      <trkpt lat="48.70612" lon="1.7451">
        <ele>171.023</ele>
        <time>2010-09-05T08:55:34Z</time>
      </trkpt>
      <trkpt lat="48.70595" lon="1.74519">
        <ele>172.175</ele>
        <time>2010-09-05T08:55:37Z</time>
      </trkpt>
      <trkpt lat="48.70552" lon="1.74539">
        <ele>171.95</ele>
        <time>2010-09-05T08:55:45Z</time>
      </trkpt>
      <trkpt lat="48.70516" lon="1.74554">
        <ele>172.075</ele>
        <time>2010-09-05T08:55:50Z</time>
      </trkpt>
      <trkpt lat="48.70501" lon="1.74555">
        <ele>171.391</ele>
        <time>2010-09-05T08:55:52Z</time>
      </trkpt>
      <trkpt lat="48.70448" lon="1.74591">
        <ele>167.418</ele>
        <time>2010-09-05T08:56:02Z</time>
      </trkpt>
      <trkpt lat="48.70429" lon="1.746">
        <ele>166.705</ele>
        <time>2010-09-05T08:56:05Z</time>
      </trkpt>
      <trkpt lat="48.70395" lon="1.74612">
        <ele>164.852</ele>
        <time>2010-09-05T08:56:10Z</time>
      </trkpt>
      <trkpt lat="48.70305" lon="1.74653">
        <ele>160.034</ele>
        <time>2010-09-05T08:56:21Z</time>
      </trkpt>
      <trkpt lat="48.70216" lon="1.74694">
        <ele>159.311</ele>
        <time>2010-09-05T08:56:33Z</time>
      </trkpt>
      <trkpt lat="48.7021" lon="1.74697">
        <ele>159.336</ele>
        <time>2010-09-05T08:56:34Z</time>
      </trkpt>
      <trkpt lat="48.70194" lon="1.74707">
        <ele>160.202</ele>
        <time>2010-09-05T08:56:37Z</time>
      </trkpt>
      <trkpt lat="48.7015" lon="1.74727">
        <ele>164.062</ele>
        <time>2010-09-05T08:56:47Z</time>
      </trkpt>
      <trkpt lat="48.7012" lon="1.7474">
        <ele>165.18</ele>
        <time>2010-09-05T08:56:56Z</time>
      </trkpt>
      <trkpt lat="48.70096" lon="1.74752">
        <ele>164.281</ele>
        <time>2010-09-05T08:57:03Z</time>
      </trkpt>
      <trkpt lat="48.70056" lon="1.7477">
        <ele>165.781</ele>
        <time>2010-09-05T08:57:15Z</time>
      </trkpt>
      <trkpt lat="48.70037" lon="1.74779">
        <ele>164.387</ele>
        <time>2010-09-05T08:57:20Z</time>
      </trkpt>
      <trkpt lat="48.69969" lon="1.7481">
        <ele>165.232</ele>
        <time>2010-09-05T08:57:38Z</time>
      </trkpt>
      <trkpt lat="48.69953" lon="1.74816">
        <ele>166.004</ele>
        <time>2010-09-05T08:57:42Z</time>
      </trkpt>
      <trkpt lat="48.69891" lon="1.74845">
        <ele>166.792</ele>
        <time>2010-09-05T08:58:01Z</time>
      </trkpt>
      <trkpt lat="48.69839" lon="1.74872">
        <ele>162.817</ele>
        <time>2010-09-05T08:58:16Z</time>
      </trkpt>
      <trkpt lat="48.6981" lon="1.74898">
        <ele>159.941</ele>
        <time>2010-09-05T08:58:27Z</time>
      </trkpt>
      <trkpt lat="48.69815" lon="1.74922">
        <ele>157.898</ele>
        <time>2010-09-05T08:58:34Z</time>
      </trkpt>
      <trkpt lat="48.69827" lon="1.74987">
        <ele>152.596</ele>
        <time>2010-09-05T08:58:48Z</time>
      </trkpt>
      <trkpt lat="48.69836" lon="1.75049">
        <ele>160.166</ele>
        <time>2010-09-05T08:59:03Z</time>
      </trkpt>
      <trkpt lat="48.69838" lon="1.75062">
        <ele>157.905</ele>
        <time>2010-09-05T08:59:06Z</time>
      </trkpt>
      <trkpt lat="48.69825" lon="1.7507">
        <ele>158.888</ele>
        <time>2010-09-05T08:59:11Z</time>
      </trkpt>
      <trkpt lat="48.69813" lon="1.75069">
        <ele>157.797</ele>
        <time>2010-09-05T08:59:14Z</time>
      </trkpt>
      <trkpt lat="48.69804" lon="1.75086">
        <ele>156.162</ele>
        <time>2010-09-05T08:59:18Z</time>
      </trkpt>
      <trkpt lat="48.69786" lon="1.75138">
        <ele>159.39</ele>
        <time>2010-09-05T08:59:29Z</time>
      </trkpt>
      <trkpt lat="48.69782" lon="1.75154">
        <ele>158.418</ele>
        <time>2010-09-05T08:59:32Z</time>
      </trkpt>
      <trkpt lat="48.69782" lon="1.75198">
        <ele>156.193</ele>
        <time>2010-09-05T08:59:40Z</time>
      </trkpt>
      <trkpt lat="48.69765" lon="1.75242">
        <ele>157.359</ele>
        <time>2010-09-05T08:59:50Z</time>
      </trkpt>
      <trkpt lat="48.69761" lon="1.75273">
        <ele>153.984</ele>
        <time>2010-09-05T08:59:55Z</time>
      </trkpt>
      <trkpt lat="48.69763" lon="1.753">
        <ele>152.008</ele>
        <time>2010-09-05T08:59:59Z</time>
      </trkpt>
      <trkpt lat="48.69757" lon="1.75321">
        <ele>151.544</ele>
        <time>2010-09-05T09:00:03Z</time>
      </trkpt>
      <trkpt lat="48.6975" lon="1.7533">
        <ele>151.687</ele>
        <time>2010-09-05T09:00:05Z</time>
      </trkpt>
      <trkpt lat="48.69748" lon="1.75362">
        <ele>153.561</ele>
        <time>2010-09-05T09:00:10Z</time>
      </trkpt>
      <trkpt lat="48.6976" lon="1.75395">
        <ele>153.701</ele>
        <time>2010-09-05T09:00:16Z</time>
      </trkpt>
      <trkpt lat="48.69786" lon="1.75425">
        <ele>154.063</ele>
        <time>2010-09-05T09:00:24Z</time>
      </trkpt>
      <trkpt lat="48.6978" lon="1.75449">
        <ele>154.567</ele>
        <time>2010-09-05T09:00:30Z</time>
      </trkpt>
      <trkpt lat="48.697" lon="1.75484">
        <ele>154.397</ele>
        <time>2010-09-05T09:00:47Z</time>
      </trkpt>
      <trkpt lat="48.69695" lon="1.75485">
        <ele>154.159</ele>
        <time>2010-09-05T09:00:48Z</time>
      </trkpt>
      <trkpt lat="48.69622" lon="1.75521">
        <ele>151.292</ele>
        <time>2010-09-05T09:01:05Z</time>
      </trkpt>
      <trkpt lat="48.6959" lon="1.75537">
        <ele>149.131</ele>
        <time>2010-09-05T09:01:18Z</time>
      </trkpt>
      <trkpt lat="48.69574" lon="1.75543">
        <ele>149.057</ele>
        <time>2010-09-05T09:01:30Z</time>
      </trkpt>
      <trkpt lat="48.69561" lon="1.75547">
        <ele>149</ele>
        <time>2010-09-05T09:01:42Z</time>
      </trkpt>
      <trkpt lat="48.69523" lon="1.75567">
        <ele>147.996</ele>
        <time>2010-09-05T09:02:00Z</time>
      </trkpt>
      <trkpt lat="48.69503" lon="1.75574">
        <ele>147.857</ele>
        <time>2010-09-05T09:02:11Z</time>
      </trkpt>
      <trkpt lat="48.69453" lon="1.75595">
        <ele>147.601</ele>
        <time>2010-09-05T09:02:27Z</time>
      </trkpt>
      <trkpt lat="48.69416" lon="1.75601">
        <ele>148.018</ele>
        <time>2010-09-05T09:02:38Z</time>
      </trkpt>
      <trkpt lat="48.69377" lon="1.75594">
        <ele>144.731</ele>
        <time>2010-09-05T09:02:51Z</time>
      </trkpt>
      <trkpt lat="48.69348" lon="1.75589">
        <ele>143.486</ele>
        <time>2010-09-05T09:03:00Z</time>
      </trkpt>
      <trkpt lat="48.69324" lon="1.75572">
        <ele>145.152</ele>
        <time>2010-09-05T09:03:07Z</time>
      </trkpt>
      <trkpt lat="48.69303" lon="1.7554">
        <ele>145.946</ele>
        <time>2010-09-05T09:03:18Z</time>
      </trkpt>
      <trkpt lat="48.69266" lon="1.75512">
        <ele>148.565</ele>
        <time>2010-09-05T09:03:26Z</time>
      </trkpt>
      <trkpt lat="48.69262" lon="1.75509">
        <ele>148.87</ele>
        <time>2010-09-05T09:03:27Z</time>
      </trkpt>
      <trkpt lat="48.6923" lon="1.75472">
        <ele>148.408</ele>
        <time>2010-09-05T09:03:37Z</time>
      </trkpt>
      <trkpt lat="48.69199" lon="1.75442">
        <ele>150.752</ele>
        <time>2010-09-05T09:03:46Z</time>
      </trkpt>
      <trkpt lat="48.69178" lon="1.75418">
        <ele>152.87</ele>
        <time>2010-09-05T09:03:55Z</time>
      </trkpt>
      <trkpt lat="48.69147" lon="1.75392">
        <ele>154.982</ele>
        <time>2010-09-05T09:04:04Z</time>
      </trkpt>
      <trkpt lat="48.69112" lon="1.75361">
        <ele>156.912</ele>
        <time>2010-09-05T09:04:15Z</time>
      </trkpt>
      <trkpt lat="48.6908" lon="1.75325">
        <ele>156.159</ele>
        <time>2010-09-05T09:04:25Z</time>
      </trkpt>
      <trkpt lat="48.69049" lon="1.75293">
        <ele>153.424</ele>
        <time>2010-09-05T09:04:36Z</time>
      </trkpt>
      <trkpt lat="48.69015" lon="1.75259">
        <ele>153.896</ele>
        <time>2010-09-05T09:04:48Z</time>
      </trkpt>
      <trkpt lat="48.69" lon="1.75266">
        <ele>151.069</ele>
        <time>2010-09-05T09:04:56Z</time>
      </trkpt>
      <trkpt lat="48.68964" lon="1.75269">
        <ele>147.964</ele>
        <time>2010-09-05T09:05:08Z</time>
      </trkpt>
      <trkpt lat="48.68963" lon="1.75269">
        <ele>147.407</ele>
        <time>2010-09-05T09:06:43Z</time>
      </trkpt>
      <trkpt lat="48.68959" lon="1.75266">
        <ele>147.214</ele>
        <time>2010-09-05T09:06:47Z</time>
      </trkpt>
      <trkpt lat="48.68947" lon="1.75247">
        <ele>148.538</ele>
        <time>2010-09-05T09:06:53Z</time>
      </trkpt>
      <trkpt lat="48.68914" lon="1.75191">
        <ele>154.167</ele>
        <time>2010-09-05T09:07:05Z</time>
      </trkpt>
      <trkpt lat="48.68903" lon="1.75171">
        <ele>153.042</ele>
        <time>2010-09-05T09:07:10Z</time>
      </trkpt>
      <trkpt lat="48.68899" lon="1.7515">
        <ele>153.222</ele>
        <time>2010-09-05T09:07:15Z</time>
      </trkpt>
      <trkpt lat="48.68866" lon="1.75091">
        <ele>155.798</ele>
        <time>2010-09-05T09:07:26Z</time>
      </trkpt>
      <trkpt lat="48.68845" lon="1.75054">
        <ele>159.45</ele>
        <time>2010-09-05T09:07:37Z</time>
      </trkpt>
      <trkpt lat="48.68822" lon="1.75008">
        <ele>165.411</ele>
        <time>2010-09-05T09:07:46Z</time>
      </trkpt>
      <trkpt lat="48.68791" lon="1.74945">
        <ele>164.514</ele>
        <time>2010-09-05T09:07:56Z</time>
      </trkpt>
      <trkpt lat="48.68784" lon="1.74939">
        <ele>162.874</ele>
        <time>2010-09-05T09:07:58Z</time>
      </trkpt>
      <trkpt lat="48.68769" lon="1.74968">
        <ele>156.818</ele>
        <time>2010-09-05T09:08:07Z</time>
      </trkpt>
      <trkpt lat="48.68767" lon="1.7497">
        <ele>156.577</ele>
        <time>2010-09-05T09:08:08Z</time>
      </trkpt>
      <trkpt lat="48.68752" lon="1.74967">
        <ele>156.62</ele>
        <time>2010-09-05T09:08:16Z</time>
      </trkpt>
      <trkpt lat="48.68732" lon="1.74964">
        <ele>159.101</ele>
        <time>2010-09-05T09:08:28Z</time>
      </trkpt>
      <trkpt lat="48.68721" lon="1.74977">
        <ele>157.59</ele>
        <time>2010-09-05T09:08:32Z</time>
      </trkpt>
      <trkpt lat="48.68718" lon="1.7499">
        <ele>156.683</ele>
        <time>2010-09-05T09:08:36Z</time>
      </trkpt>
      <trkpt lat="48.68697" lon="1.74996">
        <ele>156.942</ele>
        <time>2010-09-05T09:08:45Z</time>
      </trkpt>
      <trkpt lat="48.68695" lon="1.74997">
        <ele>156.33</ele>
        <time>2010-09-05T09:08:46Z</time>
      </trkpt>
      <trkpt lat="48.68686" lon="1.7501">
        <ele>155.255</ele>
        <time>2010-09-05T09:08:51Z</time>
      </trkpt>
      <trkpt lat="48.68676" lon="1.74997">
        <ele>155.474</ele>
        <time>2010-09-05T09:08:59Z</time>
      </trkpt>
      <trkpt lat="48.68672" lon="1.74989">
        <ele>154.699</ele>
        <time>2010-09-05T09:09:02Z</time>
      </trkpt>
      <trkpt lat="48.68668" lon="1.74986">
        <ele>155.005</ele>
        <time>2010-09-05T09:09:04Z</time>
      </trkpt>
      <trkpt lat="48.6866" lon="1.74978">
        <ele>156.436</ele>
        <time>2010-09-05T09:09:09Z</time>
      </trkpt>
      <trkpt lat="48.68655" lon="1.74975">
        <ele>157.096</ele>
        <time>2010-09-05T09:09:12Z</time>
      </trkpt>
      <trkpt lat="48.68631" lon="1.74951">
        <ele>159.918</ele>
        <time>2010-09-05T09:09:23Z</time>
      </trkpt>
      <trkpt lat="48.68624" lon="1.74944">
        <ele>160.722</ele>
        <time>2010-09-05T09:09:28Z</time>
      </trkpt>
      <trkpt lat="48.68629" lon="1.74929">
        <ele>162.568</ele>
        <time>2010-09-05T09:09:32Z</time>
      </trkpt>
      <trkpt lat="48.68617" lon="1.74891">
        <ele>167.279</ele>
        <time>2010-09-05T09:09:44Z</time>
      </trkpt>
      <trkpt lat="48.6861" lon="1.74876">
        <ele>169.289</ele>
        <time>2010-09-05T09:09:50Z</time>
      </trkpt>
      <trkpt lat="48.6859" lon="1.74812">
        <ele>174.144</ele>
        <time>2010-09-05T09:10:05Z</time>
      </trkpt>
      <trkpt lat="48.68588" lon="1.74804">
        <ele>174.805</ele>
        <time>2010-09-05T09:10:07Z</time>
      </trkpt>
      <trkpt lat="48.68576" lon="1.74788">
        <ele>176.768</ele>
        <time>2010-09-05T09:10:11Z</time>
      </trkpt>
      <trkpt lat="48.68567" lon="1.7477">
        <ele>177.878</ele>
        <time>2010-09-05T09:10:16Z</time>
      </trkpt>
      <trkpt lat="48.68553" lon="1.74745">
        <ele>179.079</ele>
        <time>2010-09-05T09:10:21Z</time>
      </trkpt>
      <trkpt lat="48.6852" lon="1.74675">
        <ele>181.531</ele>
        <time>2010-09-05T09:10:33Z</time>
      </trkpt>
      <trkpt lat="48.68493" lon="1.74658">
        <ele>178.078</ele>
        <time>2010-09-05T09:10:38Z</time>
      </trkpt>
      <trkpt lat="48.68458" lon="1.74624">
        <ele>172.244</ele>
        <time>2010-09-05T09:10:46Z</time>
      </trkpt>
      <trkpt lat="48.68423" lon="1.74601">
        <ele>164.477</ele>
        <time>2010-09-05T09:10:54Z</time>
      </trkpt>
      <trkpt lat="48.68397" lon="1.74594">
        <ele>154.129</ele>
        <time>2010-09-05T09:11:01Z</time>
      </trkpt>
      <trkpt lat="48.68385" lon="1.74578">
        <ele>150.7</ele>
        <time>2010-09-05T09:11:06Z</time>
      </trkpt>
      <trkpt lat="48.68365" lon="1.74566">
        <ele>150.407</ele>
        <time>2010-09-05T09:11:14Z</time>
      </trkpt>
      <trkpt lat="48.68358" lon="1.74554">
        <ele>148.489</ele>
        <time>2010-09-05T09:11:19Z</time>
      </trkpt>
      <trkpt lat="48.68342" lon="1.74542">
        <ele>146.749</ele>
        <time>2010-09-05T09:11:27Z</time>
      </trkpt>
      <trkpt lat="48.68336" lon="1.74534">
        <ele>146.293</ele>
        <time>2010-09-05T09:11:31Z</time>
      </trkpt>
      <trkpt lat="48.6833" lon="1.74526">
        <ele>146.763</ele>
        <time>2010-09-05T09:11:35Z</time>
      </trkpt>
      <trkpt lat="48.68307" lon="1.74487">
        <ele>149.264</ele>
        <time>2010-09-05T09:11:48Z</time>
      </trkpt>
      <trkpt lat="48.68305" lon="1.7447">
        <ele>151.136</ele>
        <time>2010-09-05T09:11:53Z</time>
      </trkpt>
      <trkpt lat="48.68305" lon="1.74464">
        <ele>152.417</ele>
        <time>2010-09-05T09:11:55Z</time>
      </trkpt>
      <trkpt lat="48.683" lon="1.74434">
        <ele>156.951</ele>
        <time>2010-09-05T09:12:06Z</time>
      </trkpt>
      <trkpt lat="48.68301" lon="1.74428">
        <ele>157.484</ele>
        <time>2010-09-05T09:12:08Z</time>
      </trkpt>
      <trkpt lat="48.68298" lon="1.74416">
        <ele>158.502</ele>
        <time>2010-09-05T09:12:12Z</time>
      </trkpt>
      <trkpt lat="48.68297" lon="1.74405">
        <ele>158.518</ele>
        <time>2010-09-05T09:12:15Z</time>
      </trkpt>
      <trkpt lat="48.68289" lon="1.74378">
        <ele>160.326</ele>
        <time>2010-09-05T09:12:23Z</time>
      </trkpt>
      <trkpt lat="48.68286" lon="1.74356">
        <ele>159.739</ele>
        <time>2010-09-05T09:12:28Z</time>
      </trkpt>
      <trkpt lat="48.68272" lon="1.74317">
        <ele>164.939</ele>
        <time>2010-09-05T09:12:37Z</time>
      </trkpt>
      <trkpt lat="48.68261" lon="1.74272">
        <ele>176.247</ele>
        <time>2010-09-05T09:12:45Z</time>
      </trkpt>
      <trkpt lat="48.68252" lon="1.74222">
        <ele>177.602</ele>
        <time>2010-09-05T09:12:51Z</time>
      </trkpt>
      <trkpt lat="48.68237" lon="1.74164">
        <ele>181.202</ele>
        <time>2010-09-05T09:13:00Z</time>
      </trkpt>
      <trkpt lat="48.68229" lon="1.74109">
        <ele>185.185</ele>
        <time>2010-09-05T09:13:09Z</time>
      </trkpt>
      <trkpt lat="48.68218" lon="1.7405">
        <ele>189.234</ele>
        <time>2010-09-05T09:13:20Z</time>
      </trkpt>
      <trkpt lat="48.68207" lon="1.7399">
        <ele>189.751</ele>
        <time>2010-09-05T09:13:32Z</time>
      </trkpt>
      <trkpt lat="48.68196" lon="1.73942">
        <ele>186.111</ele>
        <time>2010-09-05T09:13:43Z</time>
      </trkpt>
      <trkpt lat="48.68183" lon="1.73919">
        <ele>182.674</ele>
        <time>2010-09-05T09:13:50Z</time>
      </trkpt>
      <trkpt lat="48.68158" lon="1.73879">
        <ele>175.436</ele>
        <time>2010-09-05T09:14:02Z</time>
      </trkpt>
      <trkpt lat="48.68128" lon="1.73834">
        <ele>175.935</ele>
        <time>2010-09-05T09:14:15Z</time>
      </trkpt>
      <trkpt lat="48.681" lon="1.73793">
        <ele>177.485</ele>
        <time>2010-09-05T09:14:27Z</time>
      </trkpt>
      <trkpt lat="48.68078" lon="1.73756">
        <ele>169.729</ele>
        <time>2010-09-05T09:14:38Z</time>
      </trkpt>
      <trkpt lat="48.6805" lon="1.73719">
        <ele>175.189</ele>
        <time>2010-09-05T09:14:49Z</time>
      </trkpt>
      <trkpt lat="48.68029" lon="1.7369">
        <ele>173.268</ele>
        <time>2010-09-05T09:14:57Z</time>
      </trkpt>
      <trkpt lat="48.67995" lon="1.73638">
        <ele>174.531</ele>
        <time>2010-09-05T09:15:11Z</time>
      </trkpt>
      <trkpt lat="48.67992" lon="1.73629">
        <ele>171.848</ele>
        <time>2010-09-05T09:15:14Z</time>
      </trkpt>
      <trkpt lat="48.67983" lon="1.73616">
        <ele>170.729</ele>
        <time>2010-09-05T09:15:18Z</time>
      </trkpt>
      <trkpt lat="48.67957" lon="1.73573">
        <ele>171.012</ele>
        <time>2010-09-05T09:15:30Z</time>
      </trkpt>
      <trkpt lat="48.67952" lon="1.73561">
        <ele>169.822</ele>
        <time>2010-09-05T09:15:33Z</time>
      </trkpt>
      <trkpt lat="48.67936" lon="1.73544">
        <ele>172.558</ele>
        <time>2010-09-05T09:15:37Z</time>
      </trkpt>
      <trkpt lat="48.67906" lon="1.73498">
        <ele>172.475</ele>
        <time>2010-09-05T09:15:48Z</time>
      </trkpt>
      <trkpt lat="48.6789" lon="1.7348">
        <ele>174.141</ele>
        <time>2010-09-05T09:15:52Z</time>
      </trkpt>
      <trkpt lat="48.67853" lon="1.73438">
        <ele>173.779</ele>
        <time>2010-09-05T09:16:04Z</time>
      </trkpt>
      <trkpt lat="48.67808" lon="1.73397">
        <ele>175.289</ele>
        <time>2010-09-05T09:16:15Z</time>
      </trkpt>
      <trkpt lat="48.6775" lon="1.73349">
        <ele>178.663</ele>
        <time>2010-09-05T09:16:29Z</time>
      </trkpt>
      <trkpt lat="48.67739" lon="1.73339">
        <ele>178.711</ele>
        <time>2010-09-05T09:16:32Z</time>
      </trkpt>
      <trkpt lat="48.67724" lon="1.73331">
        <ele>178.37</ele>
        <time>2010-09-05T09:16:36Z</time>
      </trkpt>
      <trkpt lat="48.67708" lon="1.73326">
        <ele>177.04</ele>
        <time>2010-09-05T09:16:40Z</time>
      </trkpt>
      <trkpt lat="48.67695" lon="1.73325">
        <ele>174.679</ele>
        <time>2010-09-05T09:16:43Z</time>
      </trkpt>
      <trkpt lat="48.67628" lon="1.73313">
        <ele>174.663</ele>
        <time>2010-09-05T09:16:57Z</time>
      </trkpt>
      <trkpt lat="48.67579" lon="1.73311">
        <ele>170.967</ele>
        <time>2010-09-05T09:17:06Z</time>
      </trkpt>
      <trkpt lat="48.6756" lon="1.73297">
        <ele>170.077</ele>
        <time>2010-09-05T09:17:10Z</time>
      </trkpt>
      <trkpt lat="48.67523" lon="1.7325">
        <ele>169.735</ele>
        <time>2010-09-05T09:17:19Z</time>
      </trkpt>
      <trkpt lat="48.67508" lon="1.73232">
        <ele>169.919</ele>
        <time>2010-09-05T09:17:23Z</time>
      </trkpt>
      <trkpt lat="48.67475" lon="1.73211">
        <ele>171.058</ele>
        <time>2010-09-05T09:17:31Z</time>
      </trkpt>
      <trkpt lat="48.67451" lon="1.73194">
        <ele>171.891</ele>
        <time>2010-09-05T09:17:38Z</time>
      </trkpt>
      <trkpt lat="48.67427" lon="1.73164">
        <ele>166.058</ele>
        <time>2010-09-05T09:17:46Z</time>
      </trkpt>
      <trkpt lat="48.67412" lon="1.73151">
        <ele>166.076</ele>
        <time>2010-09-05T09:17:49Z</time>
      </trkpt>
      <trkpt lat="48.67384" lon="1.73132">
        <ele>163.755</ele>
        <time>2010-09-05T09:17:54Z</time>
      </trkpt>
      <trkpt lat="48.67369" lon="1.73128">
        <ele>163.869</ele>
        <time>2010-09-05T09:17:57Z</time>
      </trkpt>
      <trkpt lat="48.67339" lon="1.73121">
        <ele>164.023</ele>
        <time>2010-09-05T09:18:03Z</time>
      </trkpt>
      <trkpt lat="48.67309" lon="1.73132">
        <ele>163.946</ele>
        <time>2010-09-05T09:18:10Z</time>
      </trkpt>
      <trkpt lat="48.67301" lon="1.73137">
        <ele>163.145</ele>
        <time>2010-09-05T09:18:12Z</time>
      </trkpt>
      <trkpt lat="48.67292" lon="1.73146">
        <ele>162.299</ele>
        <time>2010-09-05T09:18:14Z</time>
      </trkpt>
      <trkpt lat="48.67273" lon="1.73149">
        <ele>159.377</ele>
        <time>2010-09-05T09:18:19Z</time>
      </trkpt>
      <trkpt lat="48.67231" lon="1.73107">
        <ele>157.813</ele>
        <time>2010-09-05T09:18:29Z</time>
      </trkpt>
      <trkpt lat="48.67227" lon="1.73102">
        <ele>157.793</ele>
        <time>2010-09-05T09:18:30Z</time>
      </trkpt>
      <trkpt lat="48.67215" lon="1.7309">
        <ele>158.036</ele>
        <time>2010-09-05T09:18:33Z</time>
      </trkpt>
      <trkpt lat="48.67185" lon="1.73033">
        <ele>155.608</ele>
        <time>2010-09-05T09:18:45Z</time>
      </trkpt>
      <trkpt lat="48.67177" lon="1.73008">
        <ele>158.82</ele>
        <time>2010-09-05T09:18:50Z</time>
      </trkpt>
      <trkpt lat="48.67167" lon="1.72968">
        <ele>167.275</ele>
        <time>2010-09-05T09:18:57Z</time>
      </trkpt>
      <trkpt lat="48.67156" lon="1.72952">
        <ele>170.773</ele>
        <time>2010-09-05T09:19:00Z</time>
      </trkpt>
      <trkpt lat="48.67132" lon="1.7291">
        <ele>162.589</ele>
        <time>2010-09-05T09:19:10Z</time>
      </trkpt>
      <trkpt lat="48.67126" lon="1.72905">
        <ele>161.237</ele>
        <time>2010-09-05T09:19:12Z</time>
      </trkpt>
      <trkpt lat="48.671" lon="1.72933">
        <ele>153.62</ele>
        <time>2010-09-05T09:19:23Z</time>
      </trkpt>
      <trkpt lat="48.67094" lon="1.72948">
        <ele>152.595</ele>
        <time>2010-09-05T09:19:26Z</time>
      </trkpt>
      <trkpt lat="48.67088" lon="1.72962">
        <ele>150.076</ele>
        <time>2010-09-05T09:19:28Z</time>
      </trkpt>
      <trkpt lat="48.67077" lon="1.73022">
        <ele>144.721</ele>
        <time>2010-09-05T09:19:35Z</time>
      </trkpt>
      <trkpt lat="48.67072" lon="1.73077">
        <ele>140.596</ele>
        <time>2010-09-05T09:19:42Z</time>
      </trkpt>
      <trkpt lat="48.67081" lon="1.73097">
        <ele>141.015</ele>
        <time>2010-09-05T09:19:46Z</time>
      </trkpt>
      <trkpt lat="48.67089" lon="1.73106">
        <ele>140.468</ele>
        <time>2010-09-05T09:19:48Z</time>
      </trkpt>
      <trkpt lat="48.67161" lon="1.73179">
        <ele>137.637</ele>
        <time>2010-09-05T09:20:04Z</time>
      </trkpt>
      <trkpt lat="48.67186" lon="1.73207">
        <ele>137.026</ele>
        <time>2010-09-05T09:20:10Z</time>
      </trkpt>
      <trkpt lat="48.67218" lon="1.73242">
        <ele>133.102</ele>
        <time>2010-09-05T09:20:19Z</time>
      </trkpt>
      <trkpt lat="48.67242" lon="1.73288">
        <ele>132.324</ele>
        <time>2010-09-05T09:20:26Z</time>
      </trkpt>
      <trkpt lat="48.67263" lon="1.73357">
        <ele>128.994</ele>
        <time>2010-09-05T09:20:36Z</time>
      </trkpt>
      <trkpt lat="48.6728" lon="1.73414">
        <ele>127.81</ele>
        <time>2010-09-05T09:20:44Z</time>
      </trkpt>
      <trkpt lat="48.67302" lon="1.73495">
        <ele>134.818</ele>
        <time>2010-09-05T09:20:57Z</time>
      </trkpt>
      <trkpt lat="48.67314" lon="1.73526">
        <ele>133.682</ele>
        <time>2010-09-05T09:21:02Z</time>
      </trkpt>
      <trkpt lat="48.67326" lon="1.7356">
        <ele>136.194</ele>
        <time>2010-09-05T09:21:07Z</time>
      </trkpt>
      <trkpt lat="48.67328" lon="1.73593">
        <ele>137.078</ele>
        <time>2010-09-05T09:21:11Z</time>
      </trkpt>
      <trkpt lat="48.67307" lon="1.73703">
        <ele>136.159</ele>
        <time>2010-09-05T09:21:24Z</time>
      </trkpt>
      <trkpt lat="48.67276" lon="1.73811">
        <ele>136.117</ele>
        <time>2010-09-05T09:21:39Z</time>
      </trkpt>
      <trkpt lat="48.67268" lon="1.73809">
        <ele>136.651</ele>
        <time>2010-09-05T09:21:43Z</time>
      </trkpt>
      <trkpt lat="48.67269" lon="1.73803">
        <ele>136.845</ele>
        <time>2010-09-05T09:22:00Z</time>
      </trkpt>
      <trkpt lat="48.6727" lon="1.738">
        <ele>136.619</ele>
        <time>2010-09-05T09:22:05Z</time>
      </trkpt>
      <trkpt lat="48.67255" lon="1.73801">
        <ele>136.203</ele>
        <time>2010-09-05T09:22:19Z</time>
      </trkpt>
      <trkpt lat="48.67255" lon="1.738">
        <ele>136.11</ele>
        <time>2010-09-05T09:22:23Z</time>
      </trkpt>
      <trkpt lat="48.67249" lon="1.73804">
        <ele>135.959</ele>
        <time>2010-09-05T09:22:36Z</time>
      </trkpt>
      <trkpt lat="48.67253" lon="1.73798">
        <ele>135.853</ele>
        <time>2010-09-05T09:22:50Z</time>
      </trkpt>
      <trkpt lat="48.6726" lon="1.73793">
        <ele>135.857</ele>
        <time>2010-09-05T09:23:07Z</time>
      </trkpt>
      <trkpt lat="48.67265" lon="1.73794">
        <ele>135.859</ele>
        <time>2010-09-05T09:23:22Z</time>
      </trkpt>
      <trkpt lat="48.67263" lon="1.73793">
        <ele>135.964</ele>
        <time>2010-09-05T09:23:35Z</time>
      </trkpt>
      <trkpt lat="48.67263" lon="1.73786">
        <ele>136.013</ele>
        <time>2010-09-05T09:23:48Z</time>
      </trkpt>
      <trkpt lat="48.67266" lon="1.73788">
        <ele>136.097</ele>
        <time>2010-09-05T09:24:04Z</time>
      </trkpt>
      <trkpt lat="48.67265" lon="1.73788">
        <ele>136.151</ele>
        <time>2010-09-05T09:24:13Z</time>
      </trkpt>
      <trkpt lat="48.67274" lon="1.73782">
        <ele>136.391</ele>
        <time>2010-09-05T09:24:24Z</time>
      </trkpt>
      <trkpt lat="48.67292" lon="1.73772">
        <ele>136.921</ele>
        <time>2010-09-05T09:24:36Z</time>
      </trkpt>
      <trkpt lat="48.67283" lon="1.7378">
        <ele>137.376</ele>
        <time>2010-09-05T09:24:46Z</time>
      </trkpt>
      <trkpt lat="48.6727" lon="1.73792">
        <ele>137.503</ele>
        <time>2010-09-05T09:24:52Z</time>
      </trkpt>
      <trkpt lat="48.67262" lon="1.73798">
        <ele>137.585</ele>
        <time>2010-09-05T09:25:06Z</time>
      </trkpt>
      <trkpt lat="48.67258" lon="1.73799">
        <ele>137.55</ele>
        <time>2010-09-05T09:25:11Z</time>
      </trkpt>
      <trkpt lat="48.6726" lon="1.73796">
        <ele>137.546</ele>
        <time>2010-09-05T09:25:14Z</time>
      </trkpt>
      <trkpt lat="48.67254" lon="1.73796">
        <ele>137.532</ele>
        <time>2010-09-05T09:25:22Z</time>
      </trkpt>
      <trkpt lat="48.67258" lon="1.73803">
        <ele>137.448</ele>
        <time>2010-09-05T09:25:36Z</time>
      </trkpt>
      <trkpt lat="48.67262" lon="1.73804">
        <ele>137.481</ele>
        <time>2010-09-05T09:25:39Z</time>
      </trkpt>
      <trkpt lat="48.67256" lon="1.73808">
        <ele>137.498</ele>
        <time>2010-09-05T09:25:46Z</time>
      </trkpt>
      <trkpt lat="48.6725" lon="1.73798">
        <ele>137.547</ele>
        <time>2010-09-05T09:25:59Z</time>
      </trkpt>
      <trkpt lat="48.67249" lon="1.73798">
        <ele>137.549</ele>
        <time>2010-09-05T09:26:00Z</time>
      </trkpt>
      <trkpt lat="48.67252" lon="1.73798">
        <ele>137.436</ele>
        <time>2010-09-05T09:26:12Z</time>
      </trkpt>
      <trkpt lat="48.67267" lon="1.73795">
        <ele>137.805</ele>
        <time>2010-09-05T09:26:22Z</time>
      </trkpt>
      <trkpt lat="48.67269" lon="1.73801">
        <ele>138.874</ele>
        <time>2010-09-05T09:26:29Z</time>
      </trkpt>
      <trkpt lat="48.67269" lon="1.73806">
        <ele>139.112</ele>
        <time>2010-09-05T09:26:44Z</time>
      </trkpt>
      <trkpt lat="48.67267" lon="1.73799">
        <ele>141.865</ele>
        <time>2010-09-05T09:27:12Z</time>
      </trkpt>
      <trkpt lat="48.67263" lon="1.7378">
        <ele>143.529</ele>
        <time>2010-09-05T09:27:28Z</time>
      </trkpt>
      <trkpt lat="48.67263" lon="1.73779">
        <ele>143.644</ele>
        <time>2010-09-05T09:27:29Z</time>
      </trkpt>
      <trkpt lat="48.67256" lon="1.73772">
        <ele>143.644</ele>
        <time>2010-09-05T09:27:37Z</time>
      </trkpt>
      <trkpt lat="48.67242" lon="1.73784">
        <ele>144.53</ele>
        <time>2010-09-05T09:27:50Z</time>
      </trkpt>
      <trkpt lat="48.67236" lon="1.73786">
        <ele>143.496</ele>
        <time>2010-09-05T09:27:56Z</time>
      </trkpt>
      <trkpt lat="48.67221" lon="1.73793">
        <ele>146.311</ele>
        <time>2010-09-05T09:28:11Z</time>
      </trkpt>
      <trkpt lat="48.67213" lon="1.73793">
        <ele>150.702</ele>
        <time>2010-09-05T09:28:21Z</time>
      </trkpt>
      <trkpt lat="48.67207" lon="1.738">
        <ele>151.401</ele>
        <time>2010-09-05T09:28:27Z</time>
      </trkpt>
      <trkpt lat="48.67204" lon="1.73801">
        <ele>151.619</ele>
        <time>2010-09-05T09:28:30Z</time>
      </trkpt>
      <trkpt lat="48.67197" lon="1.73807">
        <ele>154.165</ele>
        <time>2010-09-05T09:28:41Z</time>
      </trkpt>
      <trkpt lat="48.67185" lon="1.73815">
        <ele>154.308</ele>
        <time>2010-09-05T09:28:56Z</time>
      </trkpt>
      <trkpt lat="48.67176" lon="1.7382">
        <ele>157.382</ele>
        <time>2010-09-05T09:29:13Z</time>
      </trkpt>
      <trkpt lat="48.67163" lon="1.73815">
        <ele>159.708</ele>
        <time>2010-09-05T09:29:28Z</time>
      </trkpt>
      <trkpt lat="48.67159" lon="1.73813">
        <ele>160.372</ele>
        <time>2010-09-05T09:29:34Z</time>
      </trkpt>
      <trkpt lat="48.67145" lon="1.7381">
        <ele>166.877</ele>
        <time>2010-09-05T09:29:52Z</time>
      </trkpt>
      <trkpt lat="48.67132" lon="1.73803">
        <ele>168.737</ele>
        <time>2010-09-05T09:30:07Z</time>
      </trkpt>
      <trkpt lat="48.67128" lon="1.73798">
        <ele>167.901</ele>
        <time>2010-09-05T09:30:12Z</time>
      </trkpt>
      <trkpt lat="48.67127" lon="1.73793">
        <ele>168.517</ele>
        <time>2010-09-05T09:30:21Z</time>
      </trkpt>
      <trkpt lat="48.6713" lon="1.73789">
        <ele>169.228</ele>
        <time>2010-09-05T09:30:25Z</time>
      </trkpt>
      <trkpt lat="48.67132" lon="1.73782">
        <ele>169.859</ele>
        <time>2010-09-05T09:30:30Z</time>
      </trkpt>
      <trkpt lat="48.67153" lon="1.73748">
        <ele>167.951</ele>
        <time>2010-09-05T09:30:42Z</time>
      </trkpt>
      <trkpt lat="48.67166" lon="1.7373">
        <ele>168.421</ele>
        <time>2010-09-05T09:30:49Z</time>
      </trkpt>
      <trkpt lat="48.6718" lon="1.73685">
        <ele>169.433</ele>
        <time>2010-09-05T09:31:00Z</time>
      </trkpt>
      <trkpt lat="48.6718" lon="1.7368">
        <ele>169.518</ele>
        <time>2010-09-05T09:31:01Z</time>
      </trkpt>
      <trkpt lat="48.67181" lon="1.73619">
        <ele>168.339</ele>
        <time>2010-09-05T09:31:12Z</time>
      </trkpt>
      <trkpt lat="48.67181" lon="1.73614">
        <ele>168.208</ele>
        <time>2010-09-05T09:31:13Z</time>
      </trkpt>
      <trkpt lat="48.67174" lon="1.73553">
        <ele>168.982</ele>
        <time>2010-09-05T09:31:25Z</time>
      </trkpt>
      <trkpt lat="48.67159" lon="1.73521">
        <ele>171.817</ele>
        <time>2010-09-05T09:31:35Z</time>
      </trkpt>
      <trkpt lat="48.67139" lon="1.73486">
        <ele>170.73</ele>
        <time>2010-09-05T09:31:46Z</time>
      </trkpt>
      <trkpt lat="48.67135" lon="1.73458">
        <ele>170.213</ele>
        <time>2010-09-05T09:31:54Z</time>
      </trkpt>
      <trkpt lat="48.6712" lon="1.73435">
        <ele>167.722</ele>
        <time>2010-09-05T09:32:01Z</time>
      </trkpt>
      <trkpt lat="48.67092" lon="1.73422">
        <ele>165.787</ele>
        <time>2010-09-05T09:32:11Z</time>
      </trkpt>
      <trkpt lat="48.67071" lon="1.73415">
        <ele>165.496</ele>
        <time>2010-09-05T09:32:17Z</time>
      </trkpt>
      <trkpt lat="48.67065" lon="1.73422">
        <ele>165.518</ele>
        <time>2010-09-05T09:32:21Z</time>
      </trkpt>
      <trkpt lat="48.67059" lon="1.73431">
        <ele>166.315</ele>
        <time>2010-09-05T09:32:27Z</time>
      </trkpt>
      <trkpt lat="48.67049" lon="1.73484">
        <ele>164.771</ele>
        <time>2010-09-05T09:32:38Z</time>
      </trkpt>
      <trkpt lat="48.67043" lon="1.73507">
        <ele>164.926</ele>
        <time>2010-09-05T09:32:45Z</time>
      </trkpt>
      <trkpt lat="48.67036" lon="1.73509">
        <ele>163.923</ele>
        <time>2010-09-05T09:32:49Z</time>
      </trkpt>
      <trkpt lat="48.67035" lon="1.73506">
        <ele>163.439</ele>
        <time>2010-09-05T09:32:51Z</time>
      </trkpt>
      <trkpt lat="48.67027" lon="1.73498">
        <ele>163.739</ele>
        <time>2010-09-05T09:32:55Z</time>
      </trkpt>
      <trkpt lat="48.67018" lon="1.73501">
        <ele>163.266</ele>
        <time>2010-09-05T09:32:59Z</time>
      </trkpt>
      <trkpt lat="48.67013" lon="1.73511">
        <ele>164.752</ele>
        <time>2010-09-05T09:33:04Z</time>
      </trkpt>
      <trkpt lat="48.67007" lon="1.73517">
        <ele>166.085</ele>
        <time>2010-09-05T09:33:08Z</time>
      </trkpt>
      <trkpt lat="48.66994" lon="1.73538">
        <ele>167.652</ele>
        <time>2010-09-05T09:33:16Z</time>
      </trkpt>
      <trkpt lat="48.66974" lon="1.73557">
        <ele>165.89</ele>
        <time>2010-09-05T09:33:25Z</time>
      </trkpt>
      <trkpt lat="48.66947" lon="1.73588">
        <ele>167.263</ele>
        <time>2010-09-05T09:33:36Z</time>
      </trkpt>
      <trkpt lat="48.66941" lon="1.73595">
        <ele>167.582</ele>
        <time>2010-09-05T09:33:38Z</time>
      </trkpt>
      <trkpt lat="48.66923" lon="1.73623">
        <ele>166.199</ele>
        <time>2010-09-05T09:33:47Z</time>
      </trkpt>
      <trkpt lat="48.66886" lon="1.73669">
        <ele>161.562</ele>
        <time>2010-09-05T09:33:57Z</time>
      </trkpt>
      <trkpt lat="48.66861" lon="1.73701">
        <ele>161.095</ele>
        <time>2010-09-05T09:34:04Z</time>
      </trkpt>
      <trkpt lat="48.66846" lon="1.73714">
        <ele>162.235</ele>
        <time>2010-09-05T09:34:07Z</time>
      </trkpt>
      <trkpt lat="48.66815" lon="1.73752">
        <ele>163.798</ele>
        <time>2010-09-05T09:34:17Z</time>
      </trkpt>
      <trkpt lat="48.66813" lon="1.73755">
        <ele>163.252</ele>
        <time>2010-09-05T09:34:19Z</time>
      </trkpt>
      <trkpt lat="48.66809" lon="1.73764">
        <ele>164.921</ele>
        <time>2010-09-05T09:34:27Z</time>
      </trkpt>
      <trkpt lat="48.66796" lon="1.73767">
        <ele>171.431</ele>
        <time>2010-09-05T09:34:44Z</time>
      </trkpt>
      <trkpt lat="48.66794" lon="1.73765">
        <ele>171.834</ele>
        <time>2010-09-05T09:34:49Z</time>
      </trkpt>
      <trkpt lat="48.66785" lon="1.73761">
        <ele>172.736</ele>
        <time>2010-09-05T09:35:02Z</time>
      </trkpt>
      <trkpt lat="48.66781" lon="1.73759">
        <ele>172.371</ele>
        <time>2010-09-05T09:35:05Z</time>
      </trkpt>
      <trkpt lat="48.66748" lon="1.73737">
        <ele>174.597</ele>
        <time>2010-09-05T09:35:17Z</time>
      </trkpt>
      <trkpt lat="48.66718" lon="1.73722">
        <ele>174.088</ele>
        <time>2010-09-05T09:35:26Z</time>
      </trkpt>
      <trkpt lat="48.66693" lon="1.73703">
        <ele>171.752</ele>
        <time>2010-09-05T09:35:33Z</time>
      </trkpt>
      <trkpt lat="48.66686" lon="1.73686">
        <ele>172.639</ele>
        <time>2010-09-05T09:35:37Z</time>
      </trkpt>
      <trkpt lat="48.66675" lon="1.7366">
        <ele>175.013</ele>
        <time>2010-09-05T09:35:42Z</time>
      </trkpt>
      <trkpt lat="48.66667" lon="1.73641">
        <ele>175.21</ele>
        <time>2010-09-05T09:35:46Z</time>
      </trkpt>
      <trkpt lat="48.66663" lon="1.73628">
        <ele>170.627</ele>
        <time>2010-09-05T09:35:50Z</time>
      </trkpt>
      <trkpt lat="48.66659" lon="1.73617">
        <ele>169.809</ele>
        <time>2010-09-05T09:35:54Z</time>
      </trkpt>
      <trkpt lat="48.66655" lon="1.73603">
        <ele>170.381</ele>
        <time>2010-09-05T09:35:59Z</time>
      </trkpt>
      <trkpt lat="48.66636" lon="1.73585">
        <ele>171.075</ele>
        <time>2010-09-05T09:36:11Z</time>
      </trkpt>
      <trkpt lat="48.66617" lon="1.73593">
        <ele>159.783</ele>
        <time>2010-09-05T09:36:20Z</time>
      </trkpt>
      <trkpt lat="48.66611" lon="1.73594">
        <ele>156.125</ele>
        <time>2010-09-05T09:36:25Z</time>
      </trkpt>
      <trkpt lat="48.66598" lon="1.73575">
        <ele>153.018</ele>
        <time>2010-09-05T09:36:39Z</time>
      </trkpt>
      <trkpt lat="48.66594" lon="1.73561">
        <ele>151.385</ele>
        <time>2010-09-05T09:36:49Z</time>
      </trkpt>
      <trkpt lat="48.6658" lon="1.73525">
        <ele>148.179</ele>
        <time>2010-09-05T09:37:04Z</time>
      </trkpt>
      <trkpt lat="48.66576" lon="1.73518">
        <ele>148.763</ele>
        <time>2010-09-05T09:37:07Z</time>
      </trkpt>
      <trkpt lat="48.66565" lon="1.73466">
        <ele>145.423</ele>
        <time>2010-09-05T09:37:23Z</time>
      </trkpt>
      <trkpt lat="48.66547" lon="1.73416">
        <ele>147.536</ele>
        <time>2010-09-05T09:37:41Z</time>
      </trkpt>
      <trkpt lat="48.66528" lon="1.73358">
        <ele>151.414</ele>
        <time>2010-09-05T09:38:02Z</time>
      </trkpt>
      <trkpt lat="48.66512" lon="1.73305">
        <ele>148.829</ele>
        <time>2010-09-05T09:38:17Z</time>
      </trkpt>
      <trkpt lat="48.66492" lon="1.73246">
        <ele>144.924</ele>
        <time>2010-09-05T09:38:30Z</time>
      </trkpt>
      <trkpt lat="48.66487" lon="1.73226">
        <ele>144.394</ele>
        <time>2010-09-05T09:38:35Z</time>
      </trkpt>
      <trkpt lat="48.66479" lon="1.73217">
        <ele>143.873</ele>
        <time>2010-09-05T09:38:38Z</time>
      </trkpt>
      <trkpt lat="48.66462" lon="1.73164">
        <ele>153.845</ele>
        <time>2010-09-05T09:38:57Z</time>
      </trkpt>
      <trkpt lat="48.66448" lon="1.73118">
        <ele>155.947</ele>
        <time>2010-09-05T09:39:17Z</time>
      </trkpt>
      <trkpt lat="48.66441" lon="1.73097">
        <ele>156.76</ele>
        <time>2010-09-05T09:39:26Z</time>
      </trkpt>
      <trkpt lat="48.66424" lon="1.73049">
        <ele>153.311</ele>
        <time>2010-09-05T09:39:38Z</time>
      </trkpt>
      <trkpt lat="48.66395" lon="1.72973">
        <ele>147.364</ele>
        <time>2010-09-05T09:39:52Z</time>
      </trkpt>
      <trkpt lat="48.66379" lon="1.7293">
        <ele>147.396</ele>
        <time>2010-09-05T09:40:06Z</time>
      </trkpt>
      <trkpt lat="48.66372" lon="1.72907">
        <ele>147.059</ele>
        <time>2010-09-05T09:40:13Z</time>
      </trkpt>
      <trkpt lat="48.66357" lon="1.72871">
        <ele>151.2</ele>
        <time>2010-09-05T09:40:26Z</time>
      </trkpt>
      <trkpt lat="48.66351" lon="1.72854">
        <ele>150.945</ele>
        <time>2010-09-05T09:40:33Z</time>
      </trkpt>
      <trkpt lat="48.66348" lon="1.72851">
        <ele>150.027</ele>
        <time>2010-09-05T09:40:36Z</time>
      </trkpt>
      <trkpt lat="48.66327" lon="1.7286">
        <ele>150.46</ele>
        <time>2010-09-05T09:40:49Z</time>
      </trkpt>
      <trkpt lat="48.66317" lon="1.72868">
        <ele>149.942</ele>
        <time>2010-09-05T09:40:53Z</time>
      </trkpt>
      <trkpt lat="48.66311" lon="1.72875">
        <ele>150.371</ele>
        <time>2010-09-05T09:40:57Z</time>
      </trkpt>
      <trkpt lat="48.66289" lon="1.72901">
        <ele>151.468</ele>
        <time>2010-09-05T09:41:09Z</time>
      </trkpt>
      <trkpt lat="48.66263" lon="1.72938">
        <ele>152.296</ele>
        <time>2010-09-05T09:41:21Z</time>
      </trkpt>
      <trkpt lat="48.6624" lon="1.72967">
        <ele>153.527</ele>
        <time>2010-09-05T09:41:32Z</time>
      </trkpt>
      <trkpt lat="48.6622" lon="1.72989">
        <ele>156.599</ele>
        <time>2010-09-05T09:41:42Z</time>
      </trkpt>
      <trkpt lat="48.66196" lon="1.73016">
        <ele>156.8</ele>
        <time>2010-09-05T09:41:58Z</time>
      </trkpt>
      <trkpt lat="48.66181" lon="1.73033">
        <ele>156.595</ele>
        <time>2010-09-05T09:42:08Z</time>
      </trkpt>
      <trkpt lat="48.66166" lon="1.7305">
        <ele>158.216</ele>
        <time>2010-09-05T09:42:19Z</time>
      </trkpt>
      <trkpt lat="48.66155" lon="1.73065">
        <ele>158.813</ele>
        <time>2010-09-05T09:42:28Z</time>
      </trkpt>
      <trkpt lat="48.66138" lon="1.73089">
        <ele>158.351</ele>
        <time>2010-09-05T09:42:40Z</time>
      </trkpt>
      <trkpt lat="48.66119" lon="1.73116">
        <ele>161.064</ele>
        <time>2010-09-05T09:42:51Z</time>
      </trkpt>
      <trkpt lat="48.661" lon="1.73144">
        <ele>162.184</ele>
        <time>2010-09-05T09:43:01Z</time>
      </trkpt>
      <trkpt lat="48.66072" lon="1.73178">
        <ele>158.405</ele>
        <time>2010-09-05T09:43:10Z</time>
      </trkpt>
      <trkpt lat="48.66071" lon="1.7322">
        <ele>156.495</ele>
        <time>2010-09-05T09:43:19Z</time>
      </trkpt>
      <trkpt lat="48.66076" lon="1.73231">
        <ele>154.773</ele>
        <time>2010-09-05T09:43:24Z</time>
      </trkpt>
      <trkpt lat="48.66083" lon="1.73248">
        <ele>158.047</ele>
        <time>2010-09-05T09:43:32Z</time>
      </trkpt>
      <trkpt lat="48.66088" lon="1.73259">
        <ele>158.463</ele>
        <time>2010-09-05T09:43:36Z</time>
      </trkpt>
      <trkpt lat="48.66117" lon="1.73308">
        <ele>160.801</ele>
        <time>2010-09-05T09:43:51Z</time>
      </trkpt>
      <trkpt lat="48.66139" lon="1.73345">
        <ele>167.754</ele>
        <time>2010-09-05T09:44:02Z</time>
      </trkpt>
      <trkpt lat="48.66156" lon="1.73373">
        <ele>170.287</ele>
        <time>2010-09-05T09:44:11Z</time>
      </trkpt>
      <trkpt lat="48.6616" lon="1.73394">
        <ele>169.696</ele>
        <time>2010-09-05T09:44:18Z</time>
      </trkpt>
      <trkpt lat="48.66168" lon="1.734">
        <ele>169.83</ele>
        <time>2010-09-05T09:44:22Z</time>
      </trkpt>
      <trkpt lat="48.66193" lon="1.73448">
        <ele>168.662</ele>
        <time>2010-09-05T09:44:35Z</time>
      </trkpt>
      <trkpt lat="48.66199" lon="1.73463">
        <ele>168.167</ele>
        <time>2010-09-05T09:44:38Z</time>
      </trkpt>
      <trkpt lat="48.66222" lon="1.73501">
        <ele>172.162</ele>
        <time>2010-09-05T09:44:47Z</time>
      </trkpt>
      <trkpt lat="48.66231" lon="1.73511">
        <ele>172.602</ele>
        <time>2010-09-05T09:44:50Z</time>
      </trkpt>
      <trkpt lat="48.6625" lon="1.73551">
        <ele>166.41</ele>
        <time>2010-09-05T09:44:59Z</time>
      </trkpt>
      <trkpt lat="48.66276" lon="1.7361">
        <ele>154.781</ele>
        <time>2010-09-05T09:45:10Z</time>
      </trkpt>
      <trkpt lat="48.6627" lon="1.73631">
        <ele>158.275</ele>
        <time>2010-09-05T09:45:15Z</time>
      </trkpt>
      <trkpt lat="48.66232" lon="1.73683">
        <ele>162.924</ele>
        <time>2010-09-05T09:45:28Z</time>
      </trkpt>
      <trkpt lat="48.66203" lon="1.73714">
        <ele>162.142</ele>
        <time>2010-09-05T09:45:35Z</time>
      </trkpt>
      <trkpt lat="48.66189" lon="1.73738">
        <ele>161.414</ele>
        <time>2010-09-05T09:45:41Z</time>
      </trkpt>
      <trkpt lat="48.66156" lon="1.73789">
        <ele>161.048</ele>
        <time>2010-09-05T09:45:52Z</time>
      </trkpt>
      <trkpt lat="48.66116" lon="1.73839">
        <ele>160.945</ele>
        <time>2010-09-05T09:46:02Z</time>
      </trkpt>
      <trkpt lat="48.66086" lon="1.73878">
        <ele>162.357</ele>
        <time>2010-09-05T09:46:10Z</time>
      </trkpt>
      <trkpt lat="48.66058" lon="1.7391">
        <ele>159.79</ele>
        <time>2010-09-05T09:46:18Z</time>
      </trkpt>
      <trkpt lat="48.6604" lon="1.73935">
        <ele>161.035</ele>
        <time>2010-09-05T09:46:24Z</time>
      </trkpt>
      <trkpt lat="48.66005" lon="1.73977">
        <ele>157.076</ele>
        <time>2010-09-05T09:46:33Z</time>
      </trkpt>
      <trkpt lat="48.65999" lon="1.73987">
        <ele>156.741</ele>
        <time>2010-09-05T09:46:35Z</time>
      </trkpt>
      <trkpt lat="48.66001" lon="1.74009">
        <ele>157.517</ele>
        <time>2010-09-05T09:46:39Z</time>
      </trkpt>
      <trkpt lat="48.66008" lon="1.74027">
        <ele>157.364</ele>
        <time>2010-09-05T09:46:42Z</time>
      </trkpt>
      <trkpt lat="48.66021" lon="1.74063">
        <ele>158.042</ele>
        <time>2010-09-05T09:46:48Z</time>
      </trkpt>
      <trkpt lat="48.66028" lon="1.74087">
        <ele>158.774</ele>
        <time>2010-09-05T09:46:52Z</time>
      </trkpt>
      <trkpt lat="48.66051" lon="1.74134">
        <ele>159.045</ele>
        <time>2010-09-05T09:46:59Z</time>
      </trkpt>
      <trkpt lat="48.66061" lon="1.74156">
        <ele>158.163</ele>
        <time>2010-09-05T09:47:02Z</time>
      </trkpt>
      <trkpt lat="48.6608" lon="1.74187">
        <ele>158.354</ele>
        <time>2010-09-05T09:47:07Z</time>
      </trkpt>
      <trkpt lat="48.66078" lon="1.74233">
        <ele>157.701</ele>
        <time>2010-09-05T09:47:17Z</time>
      </trkpt>
      <trkpt lat="48.6606" lon="1.74278">
        <ele>158.631</ele>
        <time>2010-09-05T09:47:26Z</time>
      </trkpt>
      <trkpt lat="48.66036" lon="1.7432">
        <ele>163.105</ele>
        <time>2010-09-05T09:47:33Z</time>
      </trkpt>
      <trkpt lat="48.66032" lon="1.74333">
        <ele>163.574</ele>
        <time>2010-09-05T09:47:35Z</time>
      </trkpt>
      <trkpt lat="48.66006" lon="1.74377">
        <ele>164.714</ele>
        <time>2010-09-05T09:47:45Z</time>
      </trkpt>
      <trkpt lat="48.65971" lon="1.74397">
        <ele>161.627</ele>
        <time>2010-09-05T09:47:53Z</time>
      </trkpt>
      <trkpt lat="48.65921" lon="1.74416">
        <ele>160.583</ele>
        <time>2010-09-05T09:48:05Z</time>
      </trkpt>
      <trkpt lat="48.65888" lon="1.74427">
        <ele>160.619</ele>
        <time>2010-09-05T09:48:13Z</time>
      </trkpt>
      <trkpt lat="48.65837" lon="1.74453">
        <ele>158.604</ele>
        <time>2010-09-05T09:48:27Z</time>
      </trkpt>
      <trkpt lat="48.65825" lon="1.74482">
        <ele>155.972</ele>
        <time>2010-09-05T09:48:35Z</time>
      </trkpt>
      <trkpt lat="48.65823" lon="1.74483">
        <ele>155.657</ele>
        <time>2010-09-05T09:48:36Z</time>
      </trkpt>
      <trkpt lat="48.65791" lon="1.74491">
        <ele>154.226</ele>
        <time>2010-09-05T09:48:45Z</time>
      </trkpt>
      <trkpt lat="48.65789" lon="1.74492">
        <ele>154.198</ele>
        <time>2010-09-05T09:48:46Z</time>
      </trkpt>
      <trkpt lat="48.6577" lon="1.74536">
        <ele>155.64</ele>
        <time>2010-09-05T09:48:56Z</time>
      </trkpt>
      <trkpt lat="48.65764" lon="1.7455">
        <ele>156.28</ele>
        <time>2010-09-05T09:48:59Z</time>
      </trkpt>
      <trkpt lat="48.65741" lon="1.74609">
        <ele>158.354</ele>
        <time>2010-09-05T09:49:10Z</time>
      </trkpt>
      <trkpt lat="48.65739" lon="1.74615">
        <ele>158.456</ele>
        <time>2010-09-05T09:49:11Z</time>
      </trkpt>
      <trkpt lat="48.65725" lon="1.74648">
        <ele>161.021</ele>
        <time>2010-09-05T09:49:17Z</time>
      </trkpt>
      <trkpt lat="48.65711" lon="1.74691">
        <ele>162.182</ele>
        <time>2010-09-05T09:49:24Z</time>
      </trkpt>
      <trkpt lat="48.65704" lon="1.74703">
        <ele>162.508</ele>
        <time>2010-09-05T09:49:26Z</time>
      </trkpt>
      <trkpt lat="48.65679" lon="1.74745">
        <ele>163.717</ele>
        <time>2010-09-05T09:49:35Z</time>
      </trkpt>
      <trkpt lat="48.6566" lon="1.74773">
        <ele>164.002</ele>
        <time>2010-09-05T09:49:40Z</time>
      </trkpt>
      <trkpt lat="48.6563" lon="1.74752">
        <ele>165.045</ele>
        <time>2010-09-05T09:49:51Z</time>
      </trkpt>
      <trkpt lat="48.65615" lon="1.74724">
        <ele>165.821</ele>
        <time>2010-09-05T09:49:55Z</time>
      </trkpt>
      <trkpt lat="48.65608" lon="1.74715">
        <ele>166.184</ele>
        <time>2010-09-05T09:49:58Z</time>
      </trkpt>
      <trkpt lat="48.65595" lon="1.74701">
        <ele>166.715</ele>
        <time>2010-09-05T09:50:01Z</time>
      </trkpt>
      <trkpt lat="48.65587" lon="1.74676">
        <ele>170.372</ele>
        <time>2010-09-05T09:50:05Z</time>
      </trkpt>
      <trkpt lat="48.65569" lon="1.74626">
        <ele>169.802</ele>
        <time>2010-09-05T09:50:14Z</time>
      </trkpt>
      <trkpt lat="48.65542" lon="1.74602">
        <ele>165.583</ele>
        <time>2010-09-05T09:50:23Z</time>
      </trkpt>
      <trkpt lat="48.65522" lon="1.74599">
        <ele>168.177</ele>
        <time>2010-09-05T09:50:27Z</time>
      </trkpt>
      <trkpt lat="48.65504" lon="1.74588">
        <ele>167.178</ele>
        <time>2010-09-05T09:50:34Z</time>
      </trkpt>
      <trkpt lat="48.65503" lon="1.74589">
        <ele>167.813</ele>
        <time>2010-09-05T09:52:12Z</time>
      </trkpt>
      <trkpt lat="48.65501" lon="1.74592">
        <ele>167.848</ele>
        <time>2010-09-05T09:52:14Z</time>
      </trkpt>
      <trkpt lat="48.655" lon="1.74602">
        <ele>169.432</ele>
        <time>2010-09-05T09:52:18Z</time>
      </trkpt>
      <trkpt lat="48.65488" lon="1.74625">
        <ele>171.883</ele>
        <time>2010-09-05T09:52:25Z</time>
      </trkpt>
      <trkpt lat="48.65482" lon="1.74638">
        <ele>172.309</ele>
        <time>2010-09-05T09:52:28Z</time>
      </trkpt>
      <trkpt lat="48.65429" lon="1.74729">
        <ele>170.91</ele>
        <time>2010-09-05T09:52:43Z</time>
      </trkpt>
      <trkpt lat="48.65402" lon="1.74784">
        <ele>167.349</ele>
        <time>2010-09-05T09:52:52Z</time>
      </trkpt>
      <trkpt lat="48.65359" lon="1.74861">
        <ele>171.326</ele>
        <time>2010-09-05T09:53:03Z</time>
      </trkpt>
      <trkpt lat="48.65354" lon="1.74872">
        <ele>172.215</ele>
        <time>2010-09-05T09:53:05Z</time>
      </trkpt>
      <trkpt lat="48.65329" lon="1.74917">
        <ele>172.894</ele>
        <time>2010-09-05T09:53:13Z</time>
      </trkpt>
      <trkpt lat="48.65294" lon="1.74977">
        <ele>170.322</ele>
        <time>2010-09-05T09:53:22Z</time>
      </trkpt>
      <trkpt lat="48.65255" lon="1.75046">
        <ele>170.453</ele>
        <time>2010-09-05T09:53:33Z</time>
      </trkpt>
      <trkpt lat="48.65245" lon="1.75064">
        <ele>170.122</ele>
        <time>2010-09-05T09:53:36Z</time>
      </trkpt>
      <trkpt lat="48.65233" lon="1.75089">
        <ele>171.007</ele>
        <time>2010-09-05T09:53:40Z</time>
      </trkpt>
      <trkpt lat="48.65208" lon="1.75149">
        <ele>171.327</ele>
        <time>2010-09-05T09:53:50Z</time>
      </trkpt>
      <trkpt lat="48.65173" lon="1.75207">
        <ele>167.558</ele>
        <time>2010-09-05T09:53:59Z</time>
      </trkpt>
      <trkpt lat="48.65168" lon="1.75218">
        <ele>166.865</ele>
        <time>2010-09-05T09:54:01Z</time>
      </trkpt>
      <trkpt lat="48.65152" lon="1.75243">
        <ele>167.784</ele>
        <time>2010-09-05T09:54:06Z</time>
      </trkpt>
      <trkpt lat="48.65116" lon="1.75316">
        <ele>168.931</ele>
        <time>2010-09-05T09:54:20Z</time>
      </trkpt>
      <trkpt lat="48.65091" lon="1.75362">
        <ele>169.219</ele>
        <time>2010-09-05T09:54:29Z</time>
      </trkpt>
      <trkpt lat="48.65076" lon="1.7539">
        <ele>169.591</ele>
        <time>2010-09-05T09:54:35Z</time>
      </trkpt>
      <trkpt lat="48.65051" lon="1.75436">
        <ele>166.314</ele>
        <time>2010-09-05T09:54:44Z</time>
      </trkpt>
      <trkpt lat="48.65035" lon="1.75473">
        <ele>167.302</ele>
        <time>2010-09-05T09:54:52Z</time>
      </trkpt>
      <trkpt lat="48.65005" lon="1.75532">
        <ele>171.6</ele>
        <time>2010-09-05T09:55:05Z</time>
      </trkpt>
      <trkpt lat="48.65002" lon="1.75536">
        <ele>171.397</ele>
        <time>2010-09-05T09:55:06Z</time>
      </trkpt>
      <trkpt lat="48.64975" lon="1.75585">
        <ele>169.655</ele>
        <time>2010-09-05T09:55:15Z</time>
      </trkpt>
      <trkpt lat="48.64962" lon="1.75613">
        <ele>166.469</ele>
        <time>2010-09-05T09:55:20Z</time>
      </trkpt>
      <trkpt lat="48.64951" lon="1.75624">
        <ele>164.479</ele>
        <time>2010-09-05T09:55:24Z</time>
      </trkpt>
      <trkpt lat="48.64936" lon="1.75594">
        <ele>165.431</ele>
        <time>2010-09-05T09:55:33Z</time>
      </trkpt>
      <trkpt lat="48.64924" lon="1.75551">
        <ele>170.282</ele>
        <time>2010-09-05T09:55:42Z</time>
      </trkpt>
      <trkpt lat="48.64906" lon="1.75548">
        <ele>171.041</ele>
        <time>2010-09-05T09:55:46Z</time>
      </trkpt>
      <trkpt lat="48.64874" lon="1.75529">
        <ele>171.594</ele>
        <time>2010-09-05T09:55:54Z</time>
      </trkpt>
      <trkpt lat="48.64871" lon="1.75528">
        <ele>172.354</ele>
        <time>2010-09-05T09:55:55Z</time>
      </trkpt>
      <trkpt lat="48.64849" lon="1.75537">
        <ele>170.727</ele>
        <time>2010-09-05T09:56:01Z</time>
      </trkpt>
      <trkpt lat="48.64812" lon="1.75543">
        <ele>180.295</ele>
        <time>2010-09-05T09:56:12Z</time>
      </trkpt>
      <trkpt lat="48.648" lon="1.75547">
        <ele>182.459</ele>
        <time>2010-09-05T09:56:16Z</time>
      </trkpt>
      <trkpt lat="48.64776" lon="1.75575">
        <ele>182.035</ele>
        <time>2010-09-05T09:56:25Z</time>
      </trkpt>
      <trkpt lat="48.64747" lon="1.75622">
        <ele>177.85</ele>
        <time>2010-09-05T09:56:36Z</time>
      </trkpt>
      <trkpt lat="48.64719" lon="1.75671">
        <ele>175.565</ele>
        <time>2010-09-05T09:56:45Z</time>
      </trkpt>
      <trkpt lat="48.64653" lon="1.7576">
        <ele>167.828</ele>
        <time>2010-09-05T09:56:58Z</time>
      </trkpt>
      <trkpt lat="48.64642" lon="1.75775">
        <ele>165.959</ele>
        <time>2010-09-05T09:57:00Z</time>
      </trkpt>
      <trkpt lat="48.64604" lon="1.75842">
        <ele>156.689</ele>
        <time>2010-09-05T09:57:08Z</time>
      </trkpt>
      <trkpt lat="48.64584" lon="1.75889">
        <ele>147.892</ele>
        <time>2010-09-05T09:57:14Z</time>
      </trkpt>
      <trkpt lat="48.64544" lon="1.75975">
        <ele>143.44</ele>
        <time>2010-09-05T09:57:24Z</time>
      </trkpt>
      <trkpt lat="48.6452" lon="1.76033">
        <ele>141.441</ele>
        <time>2010-09-05T09:57:30Z</time>
      </trkpt>
      <trkpt lat="48.64485" lon="1.7613">
        <ele>139.296</ele>
        <time>2010-09-05T09:57:40Z</time>
      </trkpt>
      <trkpt lat="48.64473" lon="1.76159">
        <ele>140.275</ele>
        <time>2010-09-05T09:57:43Z</time>
      </trkpt>
      <trkpt lat="48.64445" lon="1.76229">
        <ele>144.49</ele>
        <time>2010-09-05T09:57:51Z</time>
      </trkpt>
      <trkpt lat="48.64437" lon="1.76245">
        <ele>146.422</ele>
        <time>2010-09-05T09:57:53Z</time>
      </trkpt>
      <trkpt lat="48.64423" lon="1.7626">
        <ele>147.633</ele>
        <time>2010-09-05T09:57:56Z</time>
      </trkpt>
      <trkpt lat="48.64383" lon="1.76314">
        <ele>141.306</ele>
        <time>2010-09-05T09:58:06Z</time>
      </trkpt>
      <trkpt lat="48.64367" lon="1.76416">
        <ele>137.52</ele>
        <time>2010-09-05T09:58:17Z</time>
      </trkpt>
      <trkpt lat="48.64367" lon="1.76589">
        <ele>138.314</ele>
        <time>2010-09-05T09:58:35Z</time>
      </trkpt>
      <trkpt lat="48.64355" lon="1.76662">
        <ele>140.309</ele>
        <time>2010-09-05T09:58:46Z</time>
      </trkpt>
      <trkpt lat="48.64312" lon="1.7672">
        <ele>141.191</ele>
        <time>2010-09-05T09:59:00Z</time>
      </trkpt>
      <trkpt lat="48.64273" lon="1.7679">
        <ele>141.015</ele>
        <time>2010-09-05T09:59:13Z</time>
      </trkpt>
      <trkpt lat="48.64264" lon="1.76803">
        <ele>141.466</ele>
        <time>2010-09-05T09:59:16Z</time>
      </trkpt>
      <trkpt lat="48.64246" lon="1.76838">
        <ele>141.258</ele>
        <time>2010-09-05T09:59:22Z</time>
      </trkpt>
      <trkpt lat="48.64193" lon="1.76915">
        <ele>141.282</ele>
        <time>2010-09-05T09:59:36Z</time>
      </trkpt>
      <trkpt lat="48.6414" lon="1.76987">
        <ele>138.964</ele>
        <time>2010-09-05T09:59:49Z</time>
      </trkpt>
      <trkpt lat="48.64074" lon="1.77066">
        <ele>138.021</ele>
        <time>2010-09-05T10:00:02Z</time>
      </trkpt>
      <trkpt lat="48.64066" lon="1.77076">
        <ele>137.694</ele>
        <time>2010-09-05T10:00:04Z</time>
      </trkpt>
      <trkpt lat="48.64033" lon="1.77072">
        <ele>135.72</ele>
        <time>2010-09-05T10:00:11Z</time>
      </trkpt>
      <trkpt lat="48.63983" lon="1.77066">
        <ele>137.513</ele>
        <time>2010-09-05T10:00:22Z</time>
      </trkpt>
      <trkpt lat="48.63919" lon="1.7707">
        <ele>139.407</ele>
        <time>2010-09-05T10:00:39Z</time>
      </trkpt>
      <trkpt lat="48.63885" lon="1.77098">
        <ele>138.513</ele>
        <time>2010-09-05T10:00:52Z</time>
      </trkpt>
      <trkpt lat="48.63881" lon="1.77101">
        <ele>138.004</ele>
        <time>2010-09-05T10:00:54Z</time>
      </trkpt>
      <trkpt lat="48.63879" lon="1.77108">
        <ele>136.744</ele>
        <time>2010-09-05T10:00:56Z</time>
      </trkpt>
      <trkpt lat="48.63868" lon="1.77114">
        <ele>137.654</ele>
        <time>2010-09-05T10:01:00Z</time>
      </trkpt>
      <trkpt lat="48.63811" lon="1.77126">
        <ele>134.455</ele>
        <time>2010-09-05T10:01:12Z</time>
      </trkpt>
      <trkpt lat="48.6377" lon="1.77137">
        <ele>132.209</ele>
        <time>2010-09-05T10:01:19Z</time>
      </trkpt>
      <trkpt lat="48.63745" lon="1.77111">
        <ele>132.775</ele>
        <time>2010-09-05T10:01:26Z</time>
      </trkpt>
      <trkpt lat="48.63736" lon="1.771">
        <ele>132.563</ele>
        <time>2010-09-05T10:01:28Z</time>
      </trkpt>
      <trkpt lat="48.63717" lon="1.77077">
        <ele>133.495</ele>
        <time>2010-09-05T10:01:33Z</time>
      </trkpt>
      <trkpt lat="48.6371" lon="1.77064">
        <ele>133.228</ele>
        <time>2010-09-05T10:01:35Z</time>
      </trkpt>
      <trkpt lat="48.63703" lon="1.77062">
        <ele>133.628</ele>
        <time>2010-09-05T10:01:38Z</time>
      </trkpt>
      <trkpt lat="48.63647" lon="1.77071">
        <ele>135.714</ele>
        <time>2010-09-05T10:01:48Z</time>
      </trkpt>
      <trkpt lat="48.63619" lon="1.77082">
        <ele>139.99</ele>
        <time>2010-09-05T10:01:56Z</time>
      </trkpt>
      <trkpt lat="48.63592" lon="1.7709">
        <ele>140.338</ele>
        <time>2010-09-05T10:02:02Z</time>
      </trkpt>
      <trkpt lat="48.63578" lon="1.77092">
        <ele>138.19</ele>
        <time>2010-09-05T10:02:05Z</time>
      </trkpt>
      <trkpt lat="48.63569" lon="1.77125">
        <ele>139.1</ele>
        <time>2010-09-05T10:02:12Z</time>
      </trkpt>
      <trkpt lat="48.63569" lon="1.77139">
        <ele>138.399</ele>
        <time>2010-09-05T10:02:14Z</time>
      </trkpt>
      <trkpt lat="48.63564" lon="1.77167">
        <ele>138.43</ele>
        <time>2010-09-05T10:02:17Z</time>
      </trkpt>
      <trkpt lat="48.63542" lon="1.77297">
        <ele>137.769</ele>
        <time>2010-09-05T10:02:34Z</time>
      </trkpt>
      <trkpt lat="48.63536" lon="1.77332">
        <ele>138.999</ele>
        <time>2010-09-05T10:02:39Z</time>
      </trkpt>
      <trkpt lat="48.63529" lon="1.77361">
        <ele>138.404</ele>
        <time>2010-09-05T10:02:45Z</time>
      </trkpt>
      <trkpt lat="48.63538" lon="1.77376">
        <ele>136.141</ele>
        <time>2010-09-05T10:02:51Z</time>
      </trkpt>
      <trkpt lat="48.63565" lon="1.77387">
        <ele>134.441</ele>
        <time>2010-09-05T10:02:57Z</time>
      </trkpt>
      <trkpt lat="48.63584" lon="1.77401">
        <ele>133.07</ele>
        <time>2010-09-05T10:03:02Z</time>
      </trkpt>
      <trkpt lat="48.63604" lon="1.77426">
        <ele>132.484</ele>
        <time>2010-09-05T10:03:09Z</time>
      </trkpt>
      <trkpt lat="48.63624" lon="1.77462">
        <ele>132.802</ele>
        <time>2010-09-05T10:03:19Z</time>
      </trkpt>
      <trkpt lat="48.63626" lon="1.77467">
        <ele>132.616</ele>
        <time>2010-09-05T10:03:21Z</time>
      </trkpt>
      <trkpt lat="48.63606" lon="1.77499">
        <ele>132.02</ele>
        <time>2010-09-05T10:03:29Z</time>
      </trkpt>
      <trkpt lat="48.63589" lon="1.7752">
        <ele>130.998</ele>
        <time>2010-09-05T10:03:34Z</time>
      </trkpt>
      <trkpt lat="48.63524" lon="1.77531">
        <ele>131.579</ele>
        <time>2010-09-05T10:03:48Z</time>
      </trkpt>
      <trkpt lat="48.63514" lon="1.7753">
        <ele>132.148</ele>
        <time>2010-09-05T10:03:51Z</time>
      </trkpt>
      <trkpt lat="48.63514" lon="1.77555">
        <ele>131.089</ele>
        <time>2010-09-05T10:03:57Z</time>
      </trkpt>
      <trkpt lat="48.6353" lon="1.77589">
        <ele>132.467</ele>
        <time>2010-09-05T10:04:11Z</time>
      </trkpt>
      <trkpt lat="48.63542" lon="1.77613">
        <ele>134.211</ele>
        <time>2010-09-05T10:04:23Z</time>
      </trkpt>
      <trkpt lat="48.63545" lon="1.77622">
        <ele>135.398</ele>
        <time>2010-09-05T10:04:28Z</time>
      </trkpt>
      <trkpt lat="48.63548" lon="1.77645">
        <ele>135.064</ele>
        <time>2010-09-05T10:04:42Z</time>
      </trkpt>
      <trkpt lat="48.63548" lon="1.77649">
        <ele>135.007</ele>
        <time>2010-09-05T10:04:44Z</time>
      </trkpt>
      <trkpt lat="48.63552" lon="1.77658">
        <ele>135.31</ele>
        <time>2010-09-05T10:04:49Z</time>
      </trkpt>
      <trkpt lat="48.63556" lon="1.77672">
        <ele>135.78</ele>
        <time>2010-09-05T10:04:59Z</time>
      </trkpt>
      <trkpt lat="48.63555" lon="1.77675">
        <ele>135.356</ele>
        <time>2010-09-05T10:05:01Z</time>
      </trkpt>
      <trkpt lat="48.63557" lon="1.77687">
        <ele>139.112</ele>
        <time>2010-09-05T10:05:07Z</time>
      </trkpt>
      <trkpt lat="48.6356" lon="1.77702">
        <ele>138.563</ele>
        <time>2010-09-05T10:05:17Z</time>
      </trkpt>
      <trkpt lat="48.63557" lon="1.7771">
        <ele>138.943</ele>
        <time>2010-09-05T10:05:21Z</time>
      </trkpt>
      <trkpt lat="48.63557" lon="1.77724">
        <ele>142.358</ele>
        <time>2010-09-05T10:05:28Z</time>
      </trkpt>
      <trkpt lat="48.63556" lon="1.77727">
        <ele>143.88</ele>
        <time>2010-09-05T10:05:30Z</time>
      </trkpt>
      <trkpt lat="48.63556" lon="1.77737">
        <ele>146.165</ele>
        <time>2010-09-05T10:05:36Z</time>
      </trkpt>
      <trkpt lat="48.63557" lon="1.77743">
        <ele>147.589</ele>
        <time>2010-09-05T10:05:40Z</time>
      </trkpt>
      <trkpt lat="48.63556" lon="1.77751">
        <ele>148.792</ele>
        <time>2010-09-05T10:05:45Z</time>
      </trkpt>
      <trkpt lat="48.63557" lon="1.77754">
        <ele>149.349</ele>
        <time>2010-09-05T10:05:47Z</time>
      </trkpt>
      <trkpt lat="48.63553" lon="1.7777">
        <ele>152.185</ele>
        <time>2010-09-05T10:05:58Z</time>
      </trkpt>
      <trkpt lat="48.63554" lon="1.77817">
        <ele>155.117</ele>
        <time>2010-09-05T10:06:16Z</time>
      </trkpt>
      <trkpt lat="48.6355" lon="1.77885">
        <ele>156.759</ele>
        <time>2010-09-05T10:06:37Z</time>
      </trkpt>
      <trkpt lat="48.63545" lon="1.77941">
        <ele>157.369</ele>
        <time>2010-09-05T10:06:52Z</time>
      </trkpt>
      <trkpt lat="48.63544" lon="1.77961">
        <ele>157.362</ele>
        <time>2010-09-05T10:06:55Z</time>
      </trkpt>
      <trkpt lat="48.63535" lon="1.78084">
        <ele>156.609</ele>
        <time>2010-09-05T10:07:12Z</time>
      </trkpt>
      <trkpt lat="48.63525" lon="1.78144">
        <ele>156.673</ele>
        <time>2010-09-05T10:07:22Z</time>
      </trkpt>
      <trkpt lat="48.63525" lon="1.78151">
        <ele>156.967</ele>
        <time>2010-09-05T10:07:23Z</time>
      </trkpt>
      <trkpt lat="48.63519" lon="1.78203">
        <ele>155.702</ele>
        <time>2010-09-05T10:07:30Z</time>
      </trkpt>
      <trkpt lat="48.63518" lon="1.78225">
        <ele>155.404</ele>
        <time>2010-09-05T10:07:33Z</time>
      </trkpt>
      <trkpt lat="48.63505" lon="1.78292">
        <ele>152.905</ele>
        <time>2010-09-05T10:07:41Z</time>
      </trkpt>
      <trkpt lat="48.63502" lon="1.78382">
        <ele>152.106</ele>
        <time>2010-09-05T10:07:51Z</time>
      </trkpt>
      <trkpt lat="48.63519" lon="1.7845">
        <ele>152.868</ele>
        <time>2010-09-05T10:07:57Z</time>
      </trkpt>
      <trkpt lat="48.63523" lon="1.78562">
        <ele>152.087</ele>
        <time>2010-09-05T10:08:07Z</time>
      </trkpt>
      <trkpt lat="48.63499" lon="1.78703">
        <ele>144.74</ele>
        <time>2010-09-05T10:08:20Z</time>
      </trkpt>
      <trkpt lat="48.63471" lon="1.78804">
        <ele>141.815</ele>
        <time>2010-09-05T10:08:28Z</time>
      </trkpt>
      <trkpt lat="48.63473" lon="1.78922">
        <ele>141.255</ele>
        <time>2010-09-05T10:08:38Z</time>
      </trkpt>
      <trkpt lat="48.63479" lon="1.78947">
        <ele>141.471</ele>
        <time>2010-09-05T10:08:41Z</time>
      </trkpt>
      <trkpt lat="48.63497" lon="1.78959">
        <ele>141.076</ele>
        <time>2010-09-05T10:08:47Z</time>
      </trkpt>
      <trkpt lat="48.63544" lon="1.78961">
        <ele>140.365</ele>
        <time>2010-09-05T10:09:00Z</time>
      </trkpt>
      <trkpt lat="48.63587" lon="1.78985">
        <ele>141.372</ele>
        <time>2010-09-05T10:09:13Z</time>
      </trkpt>
      <trkpt lat="48.63621" lon="1.79025">
        <ele>143.867</ele>
        <time>2010-09-05T10:09:25Z</time>
      </trkpt>
      <trkpt lat="48.63663" lon="1.7909">
        <ele>144.896</ele>
        <time>2010-09-05T10:09:39Z</time>
      </trkpt>
      <trkpt lat="48.63719" lon="1.79174">
        <ele>142.954</ele>
        <time>2010-09-05T10:09:54Z</time>
      </trkpt>
      <trkpt lat="48.63754" lon="1.79245">
        <ele>141.818</ele>
        <time>2010-09-05T10:10:05Z</time>
      </trkpt>
      <trkpt lat="48.63758" lon="1.79263">
        <ele>141.707</ele>
        <time>2010-09-05T10:10:09Z</time>
      </trkpt>
      <trkpt lat="48.63797" lon="1.79381">
        <ele>140.976</ele>
        <time>2010-09-05T10:10:29Z</time>
      </trkpt>
      <trkpt lat="48.63828" lon="1.79427">
        <ele>140.911</ele>
        <time>2010-09-05T10:10:41Z</time>
      </trkpt>
      <trkpt lat="48.63842" lon="1.79438">
        <ele>141.717</ele>
        <time>2010-09-05T10:10:47Z</time>
      </trkpt>
      <trkpt lat="48.63851" lon="1.79457">
        <ele>143</ele>
        <time>2010-09-05T10:10:54Z</time>
      </trkpt>
      <trkpt lat="48.63884" lon="1.79496">
        <ele>144.25</ele>
        <time>2010-09-05T10:11:06Z</time>
      </trkpt>
      <trkpt lat="48.63921" lon="1.7954">
        <ele>144.967</ele>
        <time>2010-09-05T10:11:18Z</time>
      </trkpt>
      <trkpt lat="48.63939" lon="1.79563">
        <ele>144.547</ele>
        <time>2010-09-05T10:11:24Z</time>
      </trkpt>
      <trkpt lat="48.6396" lon="1.796">
        <ele>144.334</ele>
        <time>2010-09-05T10:11:31Z</time>
      </trkpt>
      <trkpt lat="48.63989" lon="1.79656">
        <ele>143.416</ele>
        <time>2010-09-05T10:11:41Z</time>
      </trkpt>
      <trkpt lat="48.64015" lon="1.79716">
        <ele>142.179</ele>
        <time>2010-09-05T10:11:50Z</time>
      </trkpt>
      <trkpt lat="48.64029" lon="1.7974">
        <ele>142.941</ele>
        <time>2010-09-05T10:11:53Z</time>
      </trkpt>
      <trkpt lat="48.64066" lon="1.79812">
        <ele>144.68</ele>
        <time>2010-09-05T10:12:03Z</time>
      </trkpt>
      <trkpt lat="48.64115" lon="1.79903">
        <ele>147.626</ele>
        <time>2010-09-05T10:12:14Z</time>
      </trkpt>
      <trkpt lat="48.64122" lon="1.79913">
        <ele>147.939</ele>
        <time>2010-09-05T10:12:16Z</time>
      </trkpt>
      <trkpt lat="48.64149" lon="1.79968">
        <ele>149.185</ele>
        <time>2010-09-05T10:12:23Z</time>
      </trkpt>
      <trkpt lat="48.64179" lon="1.80022">
        <ele>148.159</ele>
        <time>2010-09-05T10:12:31Z</time>
      </trkpt>
      <trkpt lat="48.64209" lon="1.80094">
        <ele>146.675</ele>
        <time>2010-09-05T10:12:41Z</time>
      </trkpt>
      <trkpt lat="48.64259" lon="1.80213">
        <ele>143.986</ele>
        <time>2010-09-05T10:12:57Z</time>
      </trkpt>
      <trkpt lat="48.64274" lon="1.80252">
        <ele>142.99</ele>
        <time>2010-09-05T10:13:02Z</time>
      </trkpt>
      <trkpt lat="48.64315" lon="1.80356">
        <ele>142.736</ele>
        <time>2010-09-05T10:13:17Z</time>
      </trkpt>
      <trkpt lat="48.64344" lon="1.80424">
        <ele>142.89</ele>
        <time>2010-09-05T10:13:27Z</time>
      </trkpt>
      <trkpt lat="48.64407" lon="1.80576">
        <ele>144.337</ele>
        <time>2010-09-05T10:13:45Z</time>
      </trkpt>
      <trkpt lat="48.64436" lon="1.80642">
        <ele>144.384</ele>
        <time>2010-09-05T10:13:55Z</time>
      </trkpt>
      <trkpt lat="48.64453" lon="1.80682">
        <ele>145.031</ele>
        <time>2010-09-05T10:14:01Z</time>
      </trkpt>
      <trkpt lat="48.64465" lon="1.80709">
        <ele>147.353</ele>
        <time>2010-09-05T10:14:06Z</time>
      </trkpt>
      <trkpt lat="48.64496" lon="1.80702">
        <ele>146.68</ele>
        <time>2010-09-05T10:14:14Z</time>
      </trkpt>
      <trkpt lat="48.64526" lon="1.80631">
        <ele>145.583</ele>
        <time>2010-09-05T10:14:32Z</time>
      </trkpt>
      <trkpt lat="48.64554" lon="1.80567">
        <ele>145.738</ele>
        <time>2010-09-05T10:14:48Z</time>
      </trkpt>
      <trkpt lat="48.64579" lon="1.805">
        <ele>146.625</ele>
        <time>2010-09-05T10:15:06Z</time>
      </trkpt>
      <trkpt lat="48.64597" lon="1.80463">
        <ele>148.946</ele>
        <time>2010-09-05T10:15:18Z</time>
      </trkpt>
      <trkpt lat="48.64615" lon="1.80429">
        <ele>153.88</ele>
        <time>2010-09-05T10:15:31Z</time>
      </trkpt>
      <trkpt lat="48.64633" lon="1.80396">
        <ele>156.091</ele>
        <time>2010-09-05T10:15:47Z</time>
      </trkpt>
      <trkpt lat="48.64651" lon="1.80362">
        <ele>156.8</ele>
        <time>2010-09-05T10:16:02Z</time>
      </trkpt>
      <trkpt lat="48.6467" lon="1.80316">
        <ele>159.539</ele>
        <time>2010-09-05T10:16:20Z</time>
      </trkpt>
      <trkpt lat="48.64683" lon="1.80287">
        <ele>160.567</ele>
        <time>2010-09-05T10:16:29Z</time>
      </trkpt>
      <trkpt lat="48.64707" lon="1.80238">
        <ele>162.789</ele>
        <time>2010-09-05T10:16:44Z</time>
      </trkpt>
      <trkpt lat="48.64727" lon="1.80205">
        <ele>159.833</ele>
        <time>2010-09-05T10:16:54Z</time>
      </trkpt>
      <trkpt lat="48.64732" lon="1.80201">
        <ele>160.327</ele>
        <time>2010-09-05T10:16:57Z</time>
      </trkpt>
      <trkpt lat="48.64736" lon="1.80193">
        <ele>160.808</ele>
        <time>2010-09-05T10:17:00Z</time>
      </trkpt>
      <trkpt lat="48.64737" lon="1.80178">
        <ele>160.549</ele>
        <time>2010-09-05T10:17:04Z</time>
      </trkpt>
      <trkpt lat="48.64741" lon="1.80164">
        <ele>160.809</ele>
        <time>2010-09-05T10:17:08Z</time>
      </trkpt>
      <trkpt lat="48.64762" lon="1.80132">
        <ele>161.066</ele>
        <time>2010-09-05T10:17:19Z</time>
      </trkpt>
      <trkpt lat="48.64767" lon="1.80142">
        <ele>160.375</ele>
        <time>2010-09-05T10:17:23Z</time>
      </trkpt>
      <trkpt lat="48.64777" lon="1.80203">
        <ele>161.72</ele>
        <time>2010-09-05T10:17:36Z</time>
      </trkpt>
      <trkpt lat="48.6478" lon="1.80265">
        <ele>161.639</ele>
        <time>2010-09-05T10:17:48Z</time>
      </trkpt>
      <trkpt lat="48.6478" lon="1.80294">
        <ele>161.075</ele>
        <time>2010-09-05T10:17:53Z</time>
      </trkpt>
      <trkpt lat="48.6478" lon="1.80312">
        <ele>160.952</ele>
        <time>2010-09-05T10:17:56Z</time>
      </trkpt>
      <trkpt lat="48.64783" lon="1.80381">
        <ele>161.139</ele>
        <time>2010-09-05T10:18:06Z</time>
      </trkpt>
      <trkpt lat="48.64783" lon="1.80436">
        <ele>160.715</ele>
        <time>2010-09-05T10:18:13Z</time>
      </trkpt>
      <trkpt lat="48.64784" lon="1.80491">
        <ele>160.838</ele>
        <time>2010-09-05T10:18:21Z</time>
      </trkpt>
      <trkpt lat="48.6479" lon="1.806">
        <ele>159.992</ele>
        <time>2010-09-05T10:18:37Z</time>
      </trkpt>
      <trkpt lat="48.64792" lon="1.80668">
        <ele>159.419</ele>
        <time>2010-09-05T10:18:45Z</time>
      </trkpt>
      <trkpt lat="48.64791" lon="1.8069">
        <ele>161.242</ele>
        <time>2010-09-05T10:18:48Z</time>
      </trkpt>
      <trkpt lat="48.64787" lon="1.80714">
        <ele>166.181</ele>
        <time>2010-09-05T10:18:52Z</time>
      </trkpt>
      <trkpt lat="48.6479" lon="1.80728">
        <ele>166.142</ele>
        <time>2010-09-05T10:18:54Z</time>
      </trkpt>
      <trkpt lat="48.64794" lon="1.80837">
        <ele>163.126</ele>
        <time>2010-09-05T10:19:08Z</time>
      </trkpt>
      <trkpt lat="48.64795" lon="1.80937">
        <ele>161.364</ele>
        <time>2010-09-05T10:19:19Z</time>
      </trkpt>
      <trkpt lat="48.64801" lon="1.81065">
        <ele>159.913</ele>
        <time>2010-09-05T10:19:33Z</time>
      </trkpt>
      <trkpt lat="48.64802" lon="1.81082">
        <ele>159.869</ele>
        <time>2010-09-05T10:19:35Z</time>
      </trkpt>
      <trkpt lat="48.64804" lon="1.81145">
        <ele>155.768</ele>
        <time>2010-09-05T10:19:42Z</time>
      </trkpt>
      <trkpt lat="48.64809" lon="1.81274">
        <ele>149.943</ele>
        <time>2010-09-05T10:19:57Z</time>
      </trkpt>
      <trkpt lat="48.64808" lon="1.81301">
        <ele>148.658</ele>
        <time>2010-09-05T10:20:01Z</time>
      </trkpt>
      <trkpt lat="48.64806" lon="1.81321">
        <ele>147.492</ele>
        <time>2010-09-05T10:20:04Z</time>
      </trkpt>
      <trkpt lat="48.64834" lon="1.81364">
        <ele>146.678</ele>
        <time>2010-09-05T10:20:14Z</time>
      </trkpt>
      <trkpt lat="48.64846" lon="1.81378">
        <ele>145.722</ele>
        <time>2010-09-05T10:20:17Z</time>
      </trkpt>
      <trkpt lat="48.64907" lon="1.81451">
        <ele>144.34</ele>
        <time>2010-09-05T10:20:32Z</time>
      </trkpt>
      <trkpt lat="48.64977" lon="1.81538">
        <ele>144.415</ele>
        <time>2010-09-05T10:20:50Z</time>
      </trkpt>
      <trkpt lat="48.65016" lon="1.81589">
        <ele>145.08</ele>
        <time>2010-09-05T10:21:01Z</time>
      </trkpt>
      <trkpt lat="48.65046" lon="1.81629">
        <ele>146.524</ele>
        <time>2010-09-05T10:21:10Z</time>
      </trkpt>
      <trkpt lat="48.6509" lon="1.81678">
        <ele>146.514</ele>
        <time>2010-09-05T10:21:23Z</time>
      </trkpt>
      <trkpt lat="48.65113" lon="1.81694">
        <ele>149.166</ele>
        <time>2010-09-05T10:21:34Z</time>
      </trkpt>
      <trkpt lat="48.65161" lon="1.81685">
        <ele>150.352</ele>
        <time>2010-09-05T10:21:50Z</time>
      </trkpt>
      <trkpt lat="48.65205" lon="1.81681">
        <ele>151.982</ele>
        <time>2010-09-05T10:22:03Z</time>
      </trkpt>
      <trkpt lat="48.65238" lon="1.81675">
        <ele>153.017</ele>
        <time>2010-09-05T10:22:13Z</time>
      </trkpt>
      <trkpt lat="48.65321" lon="1.81668">
        <ele>154.611</ele>
        <time>2010-09-05T10:22:33Z</time>
      </trkpt>
      <trkpt lat="48.65401" lon="1.8166">
        <ele>154.315</ele>
        <time>2010-09-05T10:22:53Z</time>
      </trkpt>
      <trkpt lat="48.65469" lon="1.8165">
        <ele>156.923</ele>
        <time>2010-09-05T10:23:12Z</time>
      </trkpt>
      <trkpt lat="48.65538" lon="1.81643">
        <ele>153.401</ele>
        <time>2010-09-05T10:23:29Z</time>
      </trkpt>
      <trkpt lat="48.65542" lon="1.81642">
        <ele>153.752</ele>
        <time>2010-09-05T10:23:30Z</time>
      </trkpt>
      <trkpt lat="48.65556" lon="1.81642">
        <ele>155.462</ele>
        <time>2010-09-05T10:23:33Z</time>
      </trkpt>
      <trkpt lat="48.65612" lon="1.81635">
        <ele>157.296</ele>
        <time>2010-09-05T10:23:43Z</time>
      </trkpt>
      <trkpt lat="48.65679" lon="1.81629">
        <ele>157.066</ele>
        <time>2010-09-05T10:23:54Z</time>
      </trkpt>
      <trkpt lat="48.65721" lon="1.81622">
        <ele>155.74</ele>
        <time>2010-09-05T10:24:00Z</time>
      </trkpt>
      <trkpt lat="48.65764" lon="1.81616">
        <ele>156.713</ele>
        <time>2010-09-05T10:24:07Z</time>
      </trkpt>
      <trkpt lat="48.65836" lon="1.81607">
        <ele>159.19</ele>
        <time>2010-09-05T10:24:23Z</time>
      </trkpt>
      <trkpt lat="48.65905" lon="1.81598">
        <ele>164.893</ele>
        <time>2010-09-05T10:24:46Z</time>
      </trkpt>
      <trkpt lat="48.65958" lon="1.81594">
        <ele>166.047</ele>
        <time>2010-09-05T10:25:07Z</time>
      </trkpt>
      <trkpt lat="48.66019" lon="1.81585">
        <ele>165.034</ele>
        <time>2010-09-05T10:25:27Z</time>
      </trkpt>
      <trkpt lat="48.6609" lon="1.81576">
        <ele>166.523</ele>
        <time>2010-09-05T10:25:47Z</time>
      </trkpt>
      <trkpt lat="48.66101" lon="1.81575">
        <ele>166.367</ele>
        <time>2010-09-05T10:25:52Z</time>
      </trkpt>
      <trkpt lat="48.66105" lon="1.81573">
        <ele>166.556</ele>
        <time>2010-09-05T10:25:54Z</time>
      </trkpt>
      <trkpt lat="48.6611" lon="1.81572">
        <ele>167.488</ele>
        <time>2010-09-05T10:25:57Z</time>
      </trkpt>
      <trkpt lat="48.66113" lon="1.81577">
        <ele>167.755</ele>
        <time>2010-09-05T10:26:01Z</time>
      </trkpt>
      <trkpt lat="48.66116" lon="1.81579">
        <ele>168.343</ele>
        <time>2010-09-05T10:26:03Z</time>
      </trkpt>
      <trkpt lat="48.66156" lon="1.81567">
        <ele>167.632</ele>
        <time>2010-09-05T10:26:15Z</time>
      </trkpt>
      <trkpt lat="48.66187" lon="1.81564">
        <ele>167.704</ele>
        <time>2010-09-05T10:26:22Z</time>
      </trkpt>
      <trkpt lat="48.66235" lon="1.81562">
        <ele>168.402</ele>
        <time>2010-09-05T10:26:33Z</time>
      </trkpt>
      <trkpt lat="48.6626" lon="1.81584">
        <ele>167.619</ele>
        <time>2010-09-05T10:26:40Z</time>
      </trkpt>
      <trkpt lat="48.66267" lon="1.81593">
        <ele>167.662</ele>
        <time>2010-09-05T10:26:42Z</time>
      </trkpt>
      <trkpt lat="48.66316" lon="1.81645">
        <ele>167.251</ele>
        <time>2010-09-05T10:26:55Z</time>
      </trkpt>
      <trkpt lat="48.66355" lon="1.81686">
        <ele>166.52</ele>
        <time>2010-09-05T10:27:04Z</time>
      </trkpt>
      <trkpt lat="48.66426" lon="1.81757">
        <ele>164.57</ele>
        <time>2010-09-05T10:27:21Z</time>
      </trkpt>
      <trkpt lat="48.6653" lon="1.8186">
        <ele>161.276</ele>
        <time>2010-09-05T10:27:46Z</time>
      </trkpt>
      <trkpt lat="48.66553" lon="1.81885">
        <ele>160.005</ele>
        <time>2010-09-05T10:27:52Z</time>
      </trkpt>
      <trkpt lat="48.66564" lon="1.81901">
        <ele>159.675</ele>
        <time>2010-09-05T10:27:56Z</time>
      </trkpt>
      <trkpt lat="48.66561" lon="1.81916">
        <ele>159.578</ele>
        <time>2010-09-05T10:28:00Z</time>
      </trkpt>
      <trkpt lat="48.66557" lon="1.81925">
        <ele>159.785</ele>
        <time>2010-09-05T10:28:13Z</time>
      </trkpt>
      <trkpt lat="48.66543" lon="1.81955">
        <ele>159.837</ele>
        <time>2010-09-05T10:29:02Z</time>
      </trkpt>
      <trkpt lat="48.66503" lon="1.82054">
        <ele>160.001</ele>
        <time>2010-09-05T10:29:19Z</time>
      </trkpt>
      <trkpt lat="48.6648" lon="1.821">
        <ele>163.242</ele>
        <time>2010-09-05T10:29:26Z</time>
      </trkpt>
      <trkpt lat="48.66426" lon="1.82236">
        <ele>160.284</ele>
        <time>2010-09-05T10:29:42Z</time>
      </trkpt>
      <trkpt lat="48.66405" lon="1.82267">
        <ele>161.254</ele>
        <time>2010-09-05T10:29:46Z</time>
      </trkpt>
      <trkpt lat="48.66386" lon="1.82317">
        <ele>164.242</ele>
        <time>2010-09-05T10:29:52Z</time>
      </trkpt>
      <trkpt lat="48.66349" lon="1.82396">
        <ele>169.492</ele>
        <time>2010-09-05T10:30:02Z</time>
      </trkpt>
      <trkpt lat="48.66345" lon="1.82427">
        <ele>174.837</ele>
        <time>2010-09-05T10:30:08Z</time>
      </trkpt>
      <trkpt lat="48.66326" lon="1.82472">
        <ele>182.816</ele>
        <time>2010-09-05T10:30:19Z</time>
      </trkpt>
      <trkpt lat="48.6631" lon="1.8251">
        <ele>188.895</ele>
        <time>2010-09-05T10:30:28Z</time>
      </trkpt>
      <trkpt lat="48.66306" lon="1.82521">
        <ele>188.996</ele>
        <time>2010-09-05T10:30:30Z</time>
      </trkpt>
      <trkpt lat="48.6629" lon="1.82574">
        <ele>185.817</ele>
        <time>2010-09-05T10:30:41Z</time>
      </trkpt>
      <trkpt lat="48.66288" lon="1.82586">
        <ele>184.873</ele>
        <time>2010-09-05T10:30:44Z</time>
      </trkpt>
      <trkpt lat="48.66279" lon="1.82615">
        <ele>183.434</ele>
        <time>2010-09-05T10:30:51Z</time>
      </trkpt>
      <trkpt lat="48.66258" lon="1.82663">
        <ele>181.939</ele>
        <time>2010-09-05T10:31:00Z</time>
      </trkpt>
      <trkpt lat="48.66238" lon="1.82691">
        <ele>183.264</ele>
        <time>2010-09-05T10:31:06Z</time>
      </trkpt>
      <trkpt lat="48.66208" lon="1.82745">
        <ele>186.454</ele>
        <time>2010-09-05T10:31:15Z</time>
      </trkpt>
      <trkpt lat="48.66202" lon="1.82767">
        <ele>184.133</ele>
        <time>2010-09-05T10:31:18Z</time>
      </trkpt>
      <trkpt lat="48.66184" lon="1.82796">
        <ele>182.416</ele>
        <time>2010-09-05T10:31:22Z</time>
      </trkpt>
      <trkpt lat="48.66175" lon="1.82823">
        <ele>178.287</ele>
        <time>2010-09-05T10:31:25Z</time>
      </trkpt>
      <trkpt lat="48.66165" lon="1.82867">
        <ele>178.502</ele>
        <time>2010-09-05T10:31:30Z</time>
      </trkpt>
      <trkpt lat="48.66141" lon="1.8291">
        <ele>179.969</ele>
        <time>2010-09-05T10:31:36Z</time>
      </trkpt>
      <trkpt lat="48.66127" lon="1.82938">
        <ele>178.084</ele>
        <time>2010-09-05T10:31:40Z</time>
      </trkpt>
      <trkpt lat="48.66107" lon="1.82969">
        <ele>165.879</ele>
        <time>2010-09-05T10:31:48Z</time>
      </trkpt>
      <trkpt lat="48.66135" lon="1.8301">
        <ele>157.65</ele>
        <time>2010-09-05T10:31:58Z</time>
      </trkpt>
      <trkpt lat="48.66168" lon="1.83075">
        <ele>154.736</ele>
        <time>2010-09-05T10:32:15Z</time>
      </trkpt>
      <trkpt lat="48.66184" lon="1.83107">
        <ele>154.985</ele>
        <time>2010-09-05T10:32:25Z</time>
      </trkpt>
      <trkpt lat="48.66189" lon="1.83115">
        <ele>154.208</ele>
        <time>2010-09-05T10:32:29Z</time>
      </trkpt>
      <trkpt lat="48.66179" lon="1.83128">
        <ele>156.962</ele>
        <time>2010-09-05T10:32:35Z</time>
      </trkpt>
      <trkpt lat="48.66177" lon="1.8314">
        <ele>158.533</ele>
        <time>2010-09-05T10:32:39Z</time>
      </trkpt>
      <trkpt lat="48.66173" lon="1.83184">
        <ele>157.479</ele>
        <time>2010-09-05T10:32:53Z</time>
      </trkpt>
      <trkpt lat="48.66199" lon="1.83205">
        <ele>157.31</ele>
        <time>2010-09-05T10:33:03Z</time>
      </trkpt>
      <trkpt lat="48.66231" lon="1.83225">
        <ele>158.941</ele>
        <time>2010-09-05T10:33:15Z</time>
      </trkpt>
      <trkpt lat="48.66265" lon="1.83291">
        <ele>160.54</ele>
        <time>2010-09-05T10:33:32Z</time>
      </trkpt>
      <trkpt lat="48.66297" lon="1.83356">
        <ele>162.371</ele>
        <time>2010-09-05T10:33:47Z</time>
      </trkpt>
      <trkpt lat="48.66317" lon="1.83393">
        <ele>163.131</ele>
        <time>2010-09-05T10:33:54Z</time>
      </trkpt>
      <trkpt lat="48.66365" lon="1.83488">
        <ele>163.092</ele>
        <time>2010-09-05T10:34:13Z</time>
      </trkpt>
      <trkpt lat="48.66402" lon="1.83564">
        <ele>163.752</ele>
        <time>2010-09-05T10:34:31Z</time>
      </trkpt>
      <trkpt lat="48.66428" lon="1.83618">
        <ele>162.484</ele>
        <time>2010-09-05T10:34:44Z</time>
      </trkpt>
      <trkpt lat="48.66477" lon="1.83716">
        <ele>161.053</ele>
        <time>2010-09-05T10:35:00Z</time>
      </trkpt>
      <trkpt lat="48.66502" lon="1.83769">
        <ele>161.958</ele>
        <time>2010-09-05T10:35:10Z</time>
      </trkpt>
      <trkpt lat="48.66506" lon="1.83775">
        <ele>162.586</ele>
        <time>2010-09-05T10:35:12Z</time>
      </trkpt>
      <trkpt lat="48.66491" lon="1.83769">
        <ele>164.706</ele>
        <time>2010-09-05T10:35:21Z</time>
      </trkpt>
      <trkpt lat="48.66472" lon="1.83764">
        <ele>168.138</ele>
        <time>2010-09-05T10:35:32Z</time>
      </trkpt>
      <trkpt lat="48.66463" lon="1.83764">
        <ele>166.423</ele>
        <time>2010-09-05T10:35:44Z</time>
      </trkpt>
      <trkpt lat="48.66463" lon="1.83769">
        <ele>165.683</ele>
        <time>2010-09-05T10:38:40Z</time>
      </trkpt>
      <trkpt lat="48.6646" lon="1.83779">
        <ele>165.914</ele>
        <time>2010-09-05T10:38:45Z</time>
      </trkpt>
      <trkpt lat="48.66442" lon="1.83821">
        <ele>168.04</ele>
        <time>2010-09-05T10:38:58Z</time>
      </trkpt>
      <trkpt lat="48.6643" lon="1.8388">
        <ele>172.945</ele>
        <time>2010-09-05T10:39:09Z</time>
      </trkpt>
      <trkpt lat="48.66405" lon="1.83947">
        <ele>178.228</ele>
        <time>2010-09-05T10:39:20Z</time>
      </trkpt>
      <trkpt lat="48.66393" lon="1.83991">
        <ele>183.739</ele>
        <time>2010-09-05T10:39:27Z</time>
      </trkpt>
      <trkpt lat="48.66393" lon="1.84011">
        <ele>185.398</ele>
        <time>2010-09-05T10:39:30Z</time>
      </trkpt>
      <trkpt lat="48.66401" lon="1.84052">
        <ele>186.407</ele>
        <time>2010-09-05T10:39:35Z</time>
      </trkpt>
      <trkpt lat="48.66404" lon="1.84065">
        <ele>186.668</ele>
        <time>2010-09-05T10:39:37Z</time>
      </trkpt>
      <trkpt lat="48.66408" lon="1.84087">
        <ele>187.846</ele>
        <time>2010-09-05T10:39:41Z</time>
      </trkpt>
      <trkpt lat="48.66405" lon="1.84133">
        <ele>183.557</ele>
        <time>2010-09-05T10:39:49Z</time>
      </trkpt>
      <trkpt lat="48.66396" lon="1.84196">
        <ele>179.362</ele>
        <time>2010-09-05T10:39:57Z</time>
      </trkpt>
      <trkpt lat="48.66378" lon="1.84301">
        <ele>173.339</ele>
        <time>2010-09-05T10:40:10Z</time>
      </trkpt>
      <trkpt lat="48.66372" lon="1.84325">
        <ele>172.709</ele>
        <time>2010-09-05T10:40:14Z</time>
      </trkpt>
      <trkpt lat="48.66394" lon="1.84356">
        <ele>170.914</ele>
        <time>2010-09-05T10:40:23Z</time>
      </trkpt>
      <trkpt lat="48.66421" lon="1.84378">
        <ele>169.913</ele>
        <time>2010-09-05T10:40:33Z</time>
      </trkpt>
      <trkpt lat="48.66446" lon="1.84405">
        <ele>171.861</ele>
        <time>2010-09-05T10:40:40Z</time>
      </trkpt>
      <trkpt lat="48.66456" lon="1.84415">
        <ele>172.512</ele>
        <time>2010-09-05T10:40:43Z</time>
      </trkpt>
      <trkpt lat="48.6647" lon="1.84468">
        <ele>177.226</ele>
        <time>2010-09-05T10:40:53Z</time>
      </trkpt>
      <trkpt lat="48.66484" lon="1.84512">
        <ele>180.944</ele>
        <time>2010-09-05T10:41:02Z</time>
      </trkpt>
      <trkpt lat="48.66521" lon="1.84571">
        <ele>180.705</ele>
        <time>2010-09-05T10:41:12Z</time>
      </trkpt>
      <trkpt lat="48.6655" lon="1.84628">
        <ele>181.646</ele>
        <time>2010-09-05T10:41:22Z</time>
      </trkpt>
      <trkpt lat="48.66563" lon="1.84642">
        <ele>180.794</ele>
        <time>2010-09-05T10:41:24Z</time>
      </trkpt>
      <trkpt lat="48.66582" lon="1.84656">
        <ele>178.782</ele>
        <time>2010-09-05T10:41:28Z</time>
      </trkpt>
      <trkpt lat="48.66593" lon="1.84657">
        <ele>177.776</ele>
        <time>2010-09-05T10:41:30Z</time>
      </trkpt>
      <trkpt lat="48.66625" lon="1.8468">
        <ele>177.414</ele>
        <time>2010-09-05T10:41:40Z</time>
      </trkpt>
      <trkpt lat="48.6665" lon="1.8469">
        <ele>178.07</ele>
        <time>2010-09-05T10:41:45Z</time>
      </trkpt>
      <trkpt lat="48.66675" lon="1.84693">
        <ele>177.094</ele>
        <time>2010-09-05T10:41:50Z</time>
      </trkpt>
      <trkpt lat="48.6669" lon="1.84682">
        <ele>178.438</ele>
        <time>2010-09-05T10:41:56Z</time>
      </trkpt>
      <trkpt lat="48.6669" lon="1.84676">
        <ele>178.491</ele>
        <time>2010-09-05T10:41:59Z</time>
      </trkpt>
      <trkpt lat="48.66684" lon="1.84657">
        <ele>178.251</ele>
        <time>2010-09-05T10:42:10Z</time>
      </trkpt>
      <trkpt lat="48.6669" lon="1.84654">
        <ele>177.465</ele>
        <time>2010-09-05T10:42:15Z</time>
      </trkpt>
      <trkpt lat="48.6672" lon="1.84654">
        <ele>176.884</ele>
        <time>2010-09-05T10:42:26Z</time>
      </trkpt>
      <trkpt lat="48.66735" lon="1.84661">
        <ele>176.552</ele>
        <time>2010-09-05T10:42:30Z</time>
      </trkpt>
      <trkpt lat="48.66747" lon="1.8467">
        <ele>177.309</ele>
        <time>2010-09-05T10:42:34Z</time>
      </trkpt>
      <trkpt lat="48.66752" lon="1.84734">
        <ele>180.814</ele>
        <time>2010-09-05T10:42:44Z</time>
      </trkpt>
      <trkpt lat="48.66751" lon="1.84755">
        <ele>183.133</ele>
        <time>2010-09-05T10:42:50Z</time>
      </trkpt>
      <trkpt lat="48.66757" lon="1.84851">
        <ele>186.102</ele>
        <time>2010-09-05T10:42:59Z</time>
      </trkpt>
      <trkpt lat="48.66753" lon="1.84895">
        <ele>187.61</ele>
        <time>2010-09-05T10:43:05Z</time>
      </trkpt>
      <trkpt lat="48.66729" lon="1.84889">
        <ele>182.098</ele>
        <time>2010-09-05T10:43:15Z</time>
      </trkpt>
      <trkpt lat="48.66684" lon="1.8487">
        <ele>177.858</ele>
        <time>2010-09-05T10:43:28Z</time>
      </trkpt>
      <trkpt lat="48.66631" lon="1.84847">
        <ele>177.442</ele>
        <time>2010-09-05T10:43:42Z</time>
      </trkpt>
      <trkpt lat="48.66597" lon="1.84836">
        <ele>174.285</ele>
        <time>2010-09-05T10:43:51Z</time>
      </trkpt>
      <trkpt lat="48.66594" lon="1.84834">
        <ele>174.057</ele>
        <time>2010-09-05T10:43:52Z</time>
      </trkpt>
      <trkpt lat="48.66568" lon="1.84824">
        <ele>173.009</ele>
        <time>2010-09-05T10:43:58Z</time>
      </trkpt>
      <trkpt lat="48.66523" lon="1.84802">
        <ele>167.901</ele>
        <time>2010-09-05T10:44:10Z</time>
      </trkpt>
      <trkpt lat="48.66484" lon="1.84784">
        <ele>163.53</ele>
        <time>2010-09-05T10:44:18Z</time>
      </trkpt>
      <trkpt lat="48.66474" lon="1.84781">
        <ele>164.569</ele>
        <time>2010-09-05T10:44:20Z</time>
      </trkpt>
      <trkpt lat="48.66466" lon="1.84777">
        <ele>164.229</ele>
        <time>2010-09-05T10:44:22Z</time>
      </trkpt>
      <trkpt lat="48.6644" lon="1.84767">
        <ele>164.328</ele>
        <time>2010-09-05T10:44:30Z</time>
      </trkpt>
      <trkpt lat="48.66436" lon="1.84767">
        <ele>164.591</ele>
        <time>2010-09-05T10:44:31Z</time>
      </trkpt>
      <trkpt lat="48.66427" lon="1.84776">
        <ele>165.903</ele>
        <time>2010-09-05T10:44:35Z</time>
      </trkpt>
      <trkpt lat="48.66418" lon="1.84802">
        <ele>168.734</ele>
        <time>2010-09-05T10:44:41Z</time>
      </trkpt>
      <trkpt lat="48.66387" lon="1.8486">
        <ele>176.016</ele>
        <time>2010-09-05T10:44:51Z</time>
      </trkpt>
      <trkpt lat="48.66361" lon="1.84907">
        <ele>184.499</ele>
        <time>2010-09-05T10:45:02Z</time>
      </trkpt>
      <trkpt lat="48.66355" lon="1.8491">
        <ele>185.303</ele>
        <time>2010-09-05T10:45:03Z</time>
      </trkpt>
      <trkpt lat="48.66323" lon="1.84928">
        <ele>188.213</ele>
        <time>2010-09-05T10:45:07Z</time>
      </trkpt>
      <trkpt lat="48.66312" lon="1.84934">
        <ele>189.682</ele>
        <time>2010-09-05T10:45:09Z</time>
      </trkpt>
      <trkpt lat="48.66265" lon="1.84981">
        <ele>198.339</ele>
        <time>2010-09-05T10:45:21Z</time>
      </trkpt>
      <trkpt lat="48.66245" lon="1.85016">
        <ele>201.301</ele>
        <time>2010-09-05T10:45:29Z</time>
      </trkpt>
      <trkpt lat="48.6623" lon="1.85043">
        <ele>200.163</ele>
        <time>2010-09-05T10:45:36Z</time>
      </trkpt>
      <trkpt lat="48.66207" lon="1.85071">
        <ele>194.478</ele>
        <time>2010-09-05T10:45:46Z</time>
      </trkpt>
      <trkpt lat="48.66151" lon="1.85105">
        <ele>188.649</ele>
        <time>2010-09-05T10:45:58Z</time>
      </trkpt>
      <trkpt lat="48.66148" lon="1.85105">
        <ele>187.945</ele>
        <time>2010-09-05T10:45:59Z</time>
      </trkpt>
      <trkpt lat="48.66127" lon="1.85103">
        <ele>185.026</ele>
        <time>2010-09-05T10:46:04Z</time>
      </trkpt>
      <trkpt lat="48.66064" lon="1.85114">
        <ele>175.521</ele>
        <time>2010-09-05T10:46:17Z</time>
      </trkpt>
      <trkpt lat="48.66002" lon="1.85124">
        <ele>172.701</ele>
        <time>2010-09-05T10:46:28Z</time>
      </trkpt>
      <trkpt lat="48.65985" lon="1.85127">
        <ele>172.449</ele>
        <time>2010-09-05T10:46:31Z</time>
      </trkpt>
      <trkpt lat="48.65937" lon="1.85135">
        <ele>172.334</ele>
        <time>2010-09-05T10:46:39Z</time>
      </trkpt>
      <trkpt lat="48.65862" lon="1.85153">
        <ele>174.812</ele>
        <time>2010-09-05T10:46:52Z</time>
      </trkpt>
      <trkpt lat="48.65758" lon="1.85167">
        <ele>170.881</ele>
        <time>2010-09-05T10:47:08Z</time>
      </trkpt>
      <trkpt lat="48.65707" lon="1.85173">
        <ele>170.881</ele>
        <time>2010-09-05T10:47:17Z</time>
      </trkpt>
      <trkpt lat="48.65706" lon="1.852">
        <ele>169.233</ele>
        <time>2010-09-05T10:47:24Z</time>
      </trkpt>
      <trkpt lat="48.65732" lon="1.85293">
        <ele>167.656</ele>
        <time>2010-09-05T10:47:39Z</time>
      </trkpt>
      <trkpt lat="48.6574" lon="1.85339">
        <ele>168.903</ele>
        <time>2010-09-05T10:47:46Z</time>
      </trkpt>
      <trkpt lat="48.6573" lon="1.85352">
        <ele>169.26</ele>
        <time>2010-09-05T10:47:50Z</time>
      </trkpt>
      <trkpt lat="48.6566" lon="1.8538">
        <ele>167.625</ele>
        <time>2010-09-05T10:48:07Z</time>
      </trkpt>
      <trkpt lat="48.65637" lon="1.85385">
        <ele>166.895</ele>
        <time>2010-09-05T10:48:17Z</time>
      </trkpt>
      <trkpt lat="48.65631" lon="1.8539">
        <ele>167.25</ele>
        <time>2010-09-05T10:49:44Z</time>
      </trkpt>
      <trkpt lat="48.65595" lon="1.85407">
        <ele>168.271</ele>
        <time>2010-09-05T10:49:56Z</time>
      </trkpt>
      <trkpt lat="48.65534" lon="1.85449">
        <ele>168.423</ele>
        <time>2010-09-05T10:50:14Z</time>
      </trkpt>
      <trkpt lat="48.65476" lon="1.85493">
        <ele>169.098</ele>
        <time>2010-09-05T10:50:32Z</time>
      </trkpt>
      <trkpt lat="48.65464" lon="1.85467">
        <ele>168.995</ele>
        <time>2010-09-05T10:50:37Z</time>
      </trkpt>
      <trkpt lat="48.65461" lon="1.85455">
        <ele>168.807</ele>
        <time>2010-09-05T10:50:39Z</time>
      </trkpt>
      <trkpt lat="48.65449" lon="1.85449">
        <ele>168.956</ele>
        <time>2010-09-05T10:50:43Z</time>
      </trkpt>
      <trkpt lat="48.65426" lon="1.8546">
        <ele>168.743</ele>
        <time>2010-09-05T10:50:49Z</time>
      </trkpt>
      <trkpt lat="48.65416" lon="1.85445">
        <ele>168.915</ele>
        <time>2010-09-05T10:50:53Z</time>
      </trkpt>
      <trkpt lat="48.654" lon="1.8538">
        <ele>167.946</ele>
        <time>2010-09-05T10:51:04Z</time>
      </trkpt>
      <trkpt lat="48.6537" lon="1.85378">
        <ele>168.924</ele>
        <time>2010-09-05T10:51:13Z</time>
      </trkpt>
      <trkpt lat="48.65338" lon="1.85384">
        <ele>168.633</ele>
        <time>2010-09-05T10:51:22Z</time>
      </trkpt>
      <trkpt lat="48.65335" lon="1.85383">
        <ele>168.183</ele>
        <time>2010-09-05T10:51:35Z</time>
      </trkpt>
      <trkpt lat="48.65329" lon="1.85376">
        <ele>167.119</ele>
        <time>2010-09-05T10:51:44Z</time>
      </trkpt>
      <trkpt lat="48.65324" lon="1.85373">
        <ele>166.99</ele>
        <time>2010-09-05T10:51:47Z</time>
      </trkpt>
      <trkpt lat="48.65278" lon="1.85387">
        <ele>165.831</ele>
        <time>2010-09-05T10:52:03Z</time>
      </trkpt>
      <trkpt lat="48.65216" lon="1.85391">
        <ele>165.308</ele>
        <time>2010-09-05T10:52:18Z</time>
      </trkpt>
      <trkpt lat="48.65161" lon="1.85404">
        <ele>165.351</ele>
        <time>2010-09-05T10:52:30Z</time>
      </trkpt>
      <trkpt lat="48.65111" lon="1.85441">
        <ele>164.987</ele>
        <time>2010-09-05T10:52:43Z</time>
      </trkpt>
      <trkpt lat="48.65075" lon="1.85466">
        <ele>165.513</ele>
        <time>2010-09-05T10:52:53Z</time>
      </trkpt>
      <trkpt lat="48.65073" lon="1.85485">
        <ele>166.785</ele>
        <time>2010-09-05T10:52:57Z</time>
      </trkpt>
      <trkpt lat="48.65076" lon="1.85497">
        <ele>166.74</ele>
        <time>2010-09-05T10:52:59Z</time>
      </trkpt>
      <trkpt lat="48.6507" lon="1.85515">
        <ele>168.92</ele>
        <time>2010-09-05T10:53:03Z</time>
      </trkpt>
      <trkpt lat="48.65047" lon="1.85526">
        <ele>169.084</ele>
        <time>2010-09-05T10:53:10Z</time>
      </trkpt>
      <trkpt lat="48.65047" lon="1.85543">
        <ele>169.391</ele>
        <time>2010-09-05T10:53:14Z</time>
      </trkpt>
      <trkpt lat="48.6506" lon="1.85582">
        <ele>168.66</ele>
        <time>2010-09-05T10:53:21Z</time>
      </trkpt>
      <trkpt lat="48.65063" lon="1.85613">
        <ele>168.806</ele>
        <time>2010-09-05T10:53:26Z</time>
      </trkpt>
      <trkpt lat="48.65058" lon="1.8564">
        <ele>169.968</ele>
        <time>2010-09-05T10:53:31Z</time>
      </trkpt>
      <trkpt lat="48.65058" lon="1.85652">
        <ele>169.782</ele>
        <time>2010-09-05T10:53:33Z</time>
      </trkpt>
      <trkpt lat="48.65046" lon="1.85669">
        <ele>169.907</ele>
        <time>2010-09-05T10:53:38Z</time>
      </trkpt>
      <trkpt lat="48.65012" lon="1.85675">
        <ele>169.393</ele>
        <time>2010-09-05T10:53:45Z</time>
      </trkpt>
      <trkpt lat="48.64996" lon="1.85675">
        <ele>168.929</ele>
        <time>2010-09-05T10:53:48Z</time>
      </trkpt>
      <trkpt lat="48.64956" lon="1.85684">
        <ele>168.134</ele>
        <time>2010-09-05T10:53:57Z</time>
      </trkpt>
      <trkpt lat="48.64906" lon="1.85695">
        <ele>167.224</ele>
        <time>2010-09-05T10:54:10Z</time>
      </trkpt>
      <trkpt lat="48.64858" lon="1.85693">
        <ele>166.038</ele>
        <time>2010-09-05T10:54:23Z</time>
      </trkpt>
      <trkpt lat="48.64824" lon="1.85691">
        <ele>167.184</ele>
        <time>2010-09-05T10:54:34Z</time>
      </trkpt>
      <trkpt lat="48.64791" lon="1.85695">
        <ele>169.235</ele>
        <time>2010-09-05T10:54:43Z</time>
      </trkpt>
      <trkpt lat="48.64763" lon="1.85705">
        <ele>168.777</ele>
        <time>2010-09-05T10:54:52Z</time>
      </trkpt>
      <trkpt lat="48.64735" lon="1.85717">
        <ele>169.354</ele>
        <time>2010-09-05T10:55:07Z</time>
      </trkpt>
      <trkpt lat="48.64726" lon="1.85717">
        <ele>170.499</ele>
        <time>2010-09-05T10:55:11Z</time>
      </trkpt>
    </trkseg>
  </trk>
</gpx>